[[{"header":{"parameterUnit":"m.s-1","parameterCategory":1,"la1":30.6,"la2":28.766,"lo1":-90.7593,"lo2":-88.6598,"dy":0.0162,"dx":0.0183,"nx":116,"ny":114,"refTime":"2023-06-10T18:00:00:Z","depth":0,"parameterNumber":2,"parameterNumberName":"U-component_of_WINDS"},"data":[0.0,0.0,0.0,0.0,0.0,0.0,0.0,0.0,0.0,0.0,0.0,0.0,0.0,0.0,0.0,0.0,0.0,0.0,0.0,0.0,0.0,0.0,0.0,0.0,0.0,0.0,0.0,0.0,0.0,0.0,0.0,0.0,0.0,0.0,0.0,0.0,0.0,0.0,0.0,0.0,0.0,0.0,0.0,0.0,0.0,0.0,0.0,0.0,0.0,0.0,0.0,0.0,0.0,0.0,0.0,0.0,0.0,0.0,0.0,0.0,0.0,0.0,0.0,0.0,0.0,0.0,0.0,0.0,0.0,0.0,0.0,0.0,0.0,0.0,0.0,0.0,0.0,0.0,0.0,0.0,0.0,0.0,0.0,0.0,0.0,0.0,0.0,0.0,0.0,0.0,0.0,0.0,0.0,0.0,0.0,0.0,0.0,0.0,0.0,0.0,0.0,0.0,0.0,0.0,0.0,0.0,0.0,0.0,0.0,0.0,0.0,0.0,0.0,0.0,0.0,0.0,0.0,0.0,0.0,0.0,0.0,0.0,0.0,0.0,0.0,0.0,0.0,0.0,0.0,0.0,0.0,0.0,0.0,0.0,0.0,0.0,0.0,0.0,0.0,0.0,0.0,0.0,0.0,0.0,0.0,0.0,0.0,0.0,0.0,0.0,0.0,0.0,0.0,0.0,0.0,0.0,0.0,0.0,0.0,0.0,0.0,0.0,0.0,0.0,0.0,0.0,0.0,0.0,0.0,0.0,0.0,0.0,0.0,0.0,0.0,0.0,0.0,0.0,0.0,0.0,0.0,0.0,0.0,0.0,0.0,0.0,0.0,0.0,0.0,0.0,0.0,0.0,0.0,0.0,0.0,0.0,0.0,0.0,0.0,0.0,0.0,0.0,0.0,0.0,0.0,0.0,0.0,0.0,0.0,0.0,0.0,0.0,0.0,0.0,0.0,0.0,0.0,0.0,0.0,0.0,0.0,0.0,0.0,0.0,0.0,0.0,0.0,0.0,0.0,0.0,0.0,0.0,0.0,0.0,0.0,0.0,0.0,0.0,0.0,0.0,0.0,0.0,0.0,0.0,0.0,0.0,0.0,0.0,0.0,0.0,0.0,0.0,0.0,0.0,0.0,0.0,0.0,0.0,0.0,0.0,0.0,0.0,0.0,0.0,0.0,0.0,0.0,0.0,0.0,0.0,0.0,0.0,0.0,0.0,0.0,0.0,0.0,0.0,0.0,0.0,0.0,0.0,0.0,0.0,0.0,0.0,0.0,0.0,0.0,0.0,0.0,0.0,0.0,0.0,0.0,0.0,0.0,0.0,0.0,0.0,0.0,0.0,0.0,0.0,0.0,0.0,0.0,0.0,0.0,0.0,0.0,0.0,0.0,0.0,0.0,0.0,0.0,0.0,0.0,0.0,0.0,0.0,0.0,0.0,0.0,0.0,0.0,0.0,0.0,0.0,0.0,0.0,0.0,0.0,0.0,0.0,0.0,0.0,0.0,0.0,0.0,0.0,0.0,0.0,0.0,0.0,0.0,0.0,0.0,0.0,0.0,0.0,0.0,0.0,0.0,0.0,0.0,0.0,0.0,0.0,0.0,0.0,0.0,0.0,0.0,0.0,0.0,0.0,0.0,0.0,0.0,0.0,0.0,0.0,0.0,0.0,0.0,0.0,0.0,0.0,0.0,0.0,0.0,0.0,0.0,0.0,0.0,0.0,0.0,0.0,0.0,0.0,0.0,0.0,0.0,0.0,0.0,0.0,0.0,0.0,0.0,0.0,0.0,0.0,0.0,0.0,0.0,0.0,0.0,0.0,0.0,0.0,0.0,0.0,0.0,0.0,0.0,0.0,0.0,0.0,0.0,0.0,0.0,0.0,0.0,0.0,0.0,0.0,0.0,0.0,0.0,0.0,0.0,0.0,0.0,0.0,0.0,0.0,0.0,0.0,0.0,0.0,0.0,0.0,0.0,0.0,0.0,0.0,0.0,0.0,0.0,0.0,0.0,0.0,0.0,0.0,0.0,0.0,0.0,0.0,0.0,0.0,0.0,0.0,0.0,0.0,0.0,0.0,0.0,0.0,0.0,0.0,0.0,0.0,0.0,0.0,0.0,0.0,0.0,0.0,0.0,0.0,0.0,0.0,0.0,0.0,0.0,0.0,0.0,0.0,0.0,0.0,0.0,0.0,0.0,0.0,0.0,0.0,0.0,0.0,0.0,0.0,0.0,0.0,0.0,0.0,0.0,0.0,0.0,0.0,0.0,0.0,0.0,0.0,0.0,0.0,0.0,0.0,0.0,0.0,0.0,0.0,0.0,0.0,0.0,0.0,0.0,0.0,0.0,0.0,0.0,0.0,0.0,0.0,0.0,0.0,0.0,0.0,0.0,0.0,0.0,0.0,0.0,0.0,0.0,0.0,0.0,0.0,0.0,0.0,0.0,0.0,0.0,0.0,0.0,0.0,0.0,0.0,0.0,0.0,0.0,0.0,0.0,0.0,0.0,0.0,0.0,0.0,0.0,0.0,0.0,0.0,0.0,0.0,0.0,0.0,0.0,0.0,0.0,0.0,0.0,0.0,0.0,0.0,0.0,0.0,0.0,0.0,0.0,0.0,0.0,0.0,0.0,0.0,0.0,0.0,0.0,0.0,0.0,0.0,0.0,0.0,0.0,0.0,0.0,0.0,0.0,0.0,0.0,0.0,0.0,0.0,0.0,0.0,0.0,0.0,0.0,0.0,0.0,0.0,0.0,0.0,0.0,0.0,0.0,0.0,0.0,0.0,0.0,0.0,0.0,0.0,0.0,0.0,0.0,0.0,0.0,0.0,0.0,0.0,0.0,0.0,0.0,0.0,0.0,0.0,0.0,0.0,0.0,0.0,0.0,0.0,0.0,0.0,0.0,0.0,0.0,0.0,0.0,0.0,0.0,0.0,0.0,0.0,0.0,0.0,0.0,0.0,0.0,0.0,0.0,0.0,0.0,0.0,0.0,0.0,0.0,0.0,0.0,0.0,0.0,0.0,0.0,0.0,0.0,0.0,0.0,0.0,0.0,0.0,0.0,0.0,0.0,0.0,0.0,0.0,0.0,0.0,0.0,0.0,0.0,0.0,0.0,0.0,0.0,0.0,0.0,0.0,0.0,0.0,0.0,0.0,0.0,0.0,0.0,0.0,0.0,0.0,0.0,0.0,0.0,0.0,0.0,0.0,0.0,0.0,0.0,0.0,0.0,0.0,0.0,0.0,0.0,0.0,0.0,0.0,0.0,0.0,0.0,0.0,0.0,0.0,0.0,0.0,0.0,0.0,0.0,0.0,0.0,0.0,0.0,0.0,0.0,0.0,0.0,0.0,0.0,0.0,0.0,0.0,0.0,0.0,0.0,0.0,0.0,0.0,0.0,0.0,0.0,0.0,0.0,0.0,0.0,0.0,0.0,0.0,0.0,0.0,0.0,0.0,0.0,0.0,0.0,0.0,0.0,0.0,0.0,0.0,0.0,0.0,0.0,0.0,0.0,0.0,0.0,0.0,0.0,0.0,0.0,0.0,0.0,0.0,0.0,0.0,0.0,0.0,0.0,0.0,0.0,0.0,0.0,0.0,0.0,0.0,0.0,0.0,0.0,0.0,0.0,0.0,0.0,0.0,0.0,0.0,0.0,0.0,0.0,0.0,0.0,0.0,0.0,0.0,0.0,0.0,0.0,0.0,0.0,0.0,0.0,0.0,0.0,0.0,0.0,0.0,0.0,0.0,0.0,0.0,0.0,0.0,0.0,0.0,0.0,0.0,0.0,0.0,0.0,0.0,0.0,0.0,0.0,0.0,0.0,0.0,0.0,0.0,0.0,0.0,0.0,0.0,0.0,0.0,0.0,0.0,0.0,0.0,0.0,0.0,0.0,0.0,0.0,0.0,0.0,0.0,0.0,0.0,0.0,0.0,0.0,0.0,0.0,0.0,0.0,0.0,0.0,0.0,0.0,0.0,0.0,0.0,0.0,0.0,0.0,0.0,0.0,0.0,0.0,0.0,0.0,0.0,0.0,0.0,0.0,0.0,0.0,0.0,0.0,0.0,0.0,0.0,0.0,0.0,0.0,0.0,0.0,0.0,0.0,0.0,0.0,0.0,0.0,0.0,0.0,0.0,0.0,0.0,0.0,0.0,0.0,0.0,0.0,0.0,0.0,0.0,0.0,0.0,0.0,0.0,0.0,0.0,0.0,0.0,0.0,0.0,0.0,0.0,0.0,0.0,0.0,0.0,0.0,0.0,0.0,0.0,0.0,0.0,0.0,0.0,0.0,0.0,0.0,0.0,0.0,0.0,0.0,0.0,0.0,0.0,0.0,0.0,0.0,0.0,0.0,0.0,0.0,0.0,0.0,0.0,0.0,0.0,0.0,0.0,0.0,0.0,0.0,0.0,0.0,0.0,0.0,0.0,0.0,0.0,0.0,0.0,0.0,0.0,0.0,0.0,0.0,0.0,0.0,0.0,0.0,0.0,0.0,0.0,0.0,0.0,0.0,0.0,0.0,0.0,0.0,0.0,0.0,0.0,0.0,0.0,0.0,0.0,0.0,0.0,0.0,0.0,0.0,0.0,0.0,0.0,0.0,0.0,0.0,0.0,0.0,0.0,0.0,0.0,0.0,0.0,0.0,0.0,0.0,0.0,0.0,0.0,0.0,0.0,0.0,0.0,0.0,0.0,0.0,0.0,0.0,0.0,0.0,0.0,0.0,0.0,0.0,0.0,0.0,0.0,0.0,0.0,0.0,0.0,0.0,0.0,0.0,0.0,0.0,0.0,0.0,0.0,0.0,0.0,0.0,0.0,0.0,0.0,0.0,0.0,0.0,0.0,0.0,0.0,0.0,0.0,0.0,0.0,0.0,0.0,0.0,0.0,0.0,0.0,0.0,0.0,0.0,0.0,0.0,0.0,0.0,0.0,0.0,0.0,0.0,0.0,0.0,0.0,0.0,0.0,0.0,0.0,0.0,0.0,0.0,0.0,0.0,0.0,0.0,0.0,0.0,0.0,0.0,0.0,0.0,0.0,0.0,0.0,0.0,0.0,0.0,0.0,0.0,0.0,0.0,0.0,0.0,0.0,0.0,0.0,0.0,0.0,0.0,0.0,0.0,0.0,0.0,0.0,0.0,0.0,0.0,0.0,0.0,0.0,0.0,0.0,0.0,0.0,0.0,0.0,0.0,0.0,0.0,0.0,0.0,0.0,0.0,0.0,0.0,0.0,0.0,0.0,0.0,0.0,0.0,0.0,0.0,0.0,0.0,0.0,0.0,0.0,0.0,0.0,0.0,0.0,0.0,0.0,0.0,0.0,0.0,0.0,0.0,0.0,0.0,0.0,0.0,0.0,0.0,0.0,0.0,0.0,0.0,0.0,0.0,0.0,0.0,0.0,0.0,0.0,0.0,0.0,0.0,0.0,0.0,0.0,0.0,0.0,0.0,0.0,0.0,0.0,0.0,0.0,0.0,0.0,0.0,0.0,0.0,0.0,0.0,0.0,0.0,0.0,0.0,0.0,0.0,0.0,0.0,0.0,0.0,0.0,0.0,0.0,0.0,0.0,0.0,0.0,0.0,0.0,0.0,0.0,0.0,0.0,0.0,0.0,0.0,0.0,0.0,0.0,0.0,0.0,0.0,0.0,0.0,0.0,0.0,0.0,0.0,0.0,0.0,0.0,0.0,0.0,0.0,0.0,0.0,0.0,0.0,0.0,0.0,0.0,0.0,0.0,0.0,0.0,0.0,0.0,0.0,0.0,0.0,0.0,0.0,0.0,0.0,0.0,0.0,0.0,0.0,0.0,0.0,0.0,0.0,0.0,0.0,0.0,0.0,0.0,0.0,0.0,0.0,0.0,0.0,0.0,0.0,0.0,0.0,0.0,0.0,0.0,0.0,0.0,0.0,0.0,0.0,0.0,0.0,0.0,0.0,0.0,0.0,0.0,0.0,0.0,0.0,0.0,0.0,0.0,0.0,0.0,0.0,0.0,0.0,0.0,0.0,0.0,0.0,0.0,0.0,0.0,0.0,0.0,0.0,0.0,0.0,0.0,0.0,0.0,0.0,0.0,0.0,0.0,0.0,0.0,0.0,0.0,0.0,0.0,-5.9646,0.0,0.0,0.0,0.0,0.0,0.0,0.0,0.0,0.0,0.0,0.0,0.0,0.0,0.0,0.0,0.0,0.0,0.0,0.0,0.0,0.0,0.0,0.0,0.0,0.0,0.0,0.0,0.0,0.0,0.0,0.0,0.0,0.0,0.0,0.0,0.0,0.0,0.0,0.0,0.0,0.0,0.0,0.0,0.0,0.0,0.0,0.0,0.0,0.0,0.0,0.0,0.0,0.0,0.0,0.0,0.0,0.0,0.0,0.0,0.0,0.0,0.0,0.0,0.0,0.0,0.0,0.0,0.0,0.0,0.0,0.0,0.0,0.0,0.0,0.0,0.0,0.0,0.0,0.0,0.0,0.0,0.0,0.0,0.0,0.0,0.0,0.0,0.0,0.0,0.0,0.0,0.0,0.0,0.0,0.0,0.0,0.0,0.0,0.0,0.0,0.0,0.0,0.0,0.0,0.0,0.0,0.0,0.0,0.0,0.0,0.0,0.0,0.0,0.0,0.0,0.0,-6.0301,0.0,0.0,0.0,0.0,0.0,0.0,0.0,0.0,0.0,0.0,0.0,0.0,0.0,0.0,0.0,0.0,0.0,0.0,0.0,0.0,0.0,0.0,0.0,0.0,0.0,0.0,0.0,0.0,0.0,0.0,0.0,0.0,0.0,0.0,0.0,0.0,0.0,0.0,0.0,0.0,0.0,0.0,0.0,0.0,0.0,0.0,0.0,0.0,0.0,0.0,0.0,0.0,0.0,0.0,0.0,0.0,0.0,0.0,0.0,0.0,0.0,0.0,0.0,0.0,0.0,0.0,0.0,0.0,0.0,0.0,0.0,0.0,0.0,0.0,0.0,0.0,0.0,0.0,0.0,0.0,0.0,0.0,0.0,0.0,0.0,0.0,0.0,0.0,0.0,0.0,0.0,0.0,0.0,0.0,0.0,0.0,0.0,0.0,0.0,0.0,0.0,0.0,0.0,0.0,0.0,0.0,0.0,0.0,-6.6673,-6.6725,-6.6432,-6.6492,-6.6384,-6.6025,-6.4155,-6.2875,-6.1961,0.0,0.0,0.0,0.0,0.0,0.0,0.0,0.0,0.0,0.0,0.0,0.0,0.0,0.0,0.0,0.0,0.0,0.0,0.0,0.0,0.0,0.0,0.0,0.0,0.0,0.0,0.0,0.0,0.0,0.0,0.0,0.0,0.0,0.0,0.0,0.0,0.0,0.0,0.0,-6.0093,-6.0373,-6.038,-6.0108,-5.8454,0.0,0.0,0.0,0.0,0.0,0.0,0.0,0.0,0.0,0.0,0.0,0.0,0.0,0.0,0.0,0.0,0.0,0.0,0.0,0.0,0.0,0.0,0.0,0.0,0.0,0.0,0.0,0.0,0.0,0.0,0.0,0.0,0.0,0.0,0.0,0.0,0.0,0.0,0.0,0.0,0.0,0.0,0.0,-5.9682,-5.9172,0.0,0.0,0.0,0.0,0.0,0.0,0.0,0.0,0.0,0.0,0.0,0.0,0.0,-6.6636,-6.7553,-6.8631,-6.8583,-6.7576,-6.9735,-6.9985,-6.8529,-6.8925,-6.9218,-6.9412,-6.8439,0.0,-6.3759,-6.3649,0.0,0.0,0.0,0.0,0.0,0.0,0.0,0.0,0.0,0.0,0.0,0.0,0.0,0.0,0.0,0.0,0.0,0.0,0.0,0.0,0.0,0.0,0.0,0.0,0.0,0.0,0.0,0.0,0.0,0.0,0.0,0.0,0.0,0.0,0.0,0.0,-5.9743,-6.1492,-6.25,-6.2401,-6.2606,-6.2963,-6.1827,-6.0963,-6.032,-6.0152,0.0,0.0,0.0,0.0,0.0,0.0,0.0,0.0,0.0,0.0,0.0,0.0,0.0,0.0,0.0,0.0,0.0,0.0,0.0,0.0,0.0,0.0,0.0,0.0,0.0,0.0,0.0,0.0,0.0,0.0,0.0,0.0,0.0,0.0,0.0,0.0,0.0,0.0,0.0,-5.9491,-6.0752,-5.9911,-6.0561,-6.0599,0.0,0.0,0.0,0.0,0.0,0.0,0.0,0.0,0.0,-6.7515,-6.8814,-6.9922,-7.0763,-7.1921,-7.2319,-7.1959,-7.2294,-7.2377,-7.2275,-7.2014,-7.2208,-7.2753,-7.1945,-7.055,-6.8678,-6.6843,-6.5228,-6.3649,0.0,0.0,0.0,0.0,-6.0566,-6.075,0.0,0.0,0.0,0.0,0.0,0.0,0.0,0.0,0.0,0.0,0.0,0.0,0.0,0.0,0.0,-5.5009,0.0,0.0,0.0,0.0,0.0,0.0,0.0,0.0,0.0,0.0,0.0,-6.0102,-6.234,-6.398,-6.5033,-6.4648,-6.4927,-6.5668,-6.5165,-6.3825,-6.1914,-6.2326,-6.1074,0.0,0.0,0.0,0.0,0.0,0.0,0.0,0.0,0.0,0.0,0.0,0.0,0.0,0.0,0.0,0.0,0.0,0.0,0.0,0.0,0.0,0.0,0.0,0.0,0.0,0.0,0.0,0.0,0.0,0.0,0.0,0.0,0.0,0.0,0.0,0.0,0.0,0.0,-6.0561,-6.186,-6.0828,-6.2013,-6.2395,0.0,0.0,0.0,0.0,0.0,0.0,-6.7591,-6.8432,-6.9464,-7.0763,-7.2074,-7.3204,-7.4081,-7.464,-7.5087,-7.5308,-7.419,-7.4071,-7.4882,-7.4294,-7.4331,-7.4882,-7.4258,-7.367,-7.2863,-6.9633,-6.7724,-6.6586,-6.4567,-6.3613,-6.3392,-6.2989,-6.2842,-6.3062,0.0,0.0,0.0,0.0,0.0,0.0,0.0,0.0,0.0,0.0,0.0,0.0,0.0,0.0,-5.6046,-5.7563,-5.8226,-5.917,0.0,0.0,0.0,0.0,0.0,0.0,0.0,0.0,0.0,-6.2622,-6.4347,-6.5999,-6.753,-6.7494,-6.7924,-6.8632,-6.7878,-6.7012,-6.5987,-6.2966,-6.2259,-6.2848,0.0,0.0,0.0,0.0,0.0,0.0,0.0,0.0,0.0,0.0,0.0,0.0,0.0,0.0,0.0,0.0,0.0,0.0,0.0,0.0,0.0,0.0,0.0,0.0,0.0,0.0,0.0,0.0,0.0,0.0,0.0,0.0,0.0,0.0,0.0,0.0,0.0,0.0,0.0,-6.1745,-6.4458,0.0,0.0,0.0,0.0,-6.6522,-6.7286,-6.847,-7.0151,-7.103,-7.2635,-7.5136,-7.5493,-7.6107,-7.7,-7.6081,-7.5665,-7.5676,-7.5093,-7.4838,-7.4918,-7.4882,-7.4882,-7.4918,-7.4882,-7.4845,-7.4551,-7.1321,-6.9045,-6.754,-6.6659,-6.5852,-6.5264,-6.5999,-6.6256,-6.6366,0.0,0.0,0.0,0.0,0.0,0.0,0.0,0.0,0.0,0.0,0.0,0.0,0.0,-5.615,-5.8219,-5.9288,-6.0912,-6.1597,-6.0944,0.0,0.0,0.0,0.0,0.0,0.0,0.0,-6.2181,-6.442,-6.6035,-6.7393,-6.8458,-6.8458,-6.8898,-6.9669,-6.9376,-6.9078,-6.8678,-6.647,-6.5028,-6.3995,-6.1453,-5.9363,0.0,0.0,0.0,0.0,0.0,0.0,0.0,0.0,0.0,0.0,0.0,0.0,0.0,0.0,0.0,0.0,0.0,0.0,0.0,0.0,0.0,0.0,0.0,0.0,0.0,0.0,0.0,0.0,0.0,0.0,0.0,0.0,0.0,0.0,0.0,0.0,0.0,-6.4114,-6.656,0.0,-6.6254,-6.7897,-6.9311,-6.9884,-7.168,-7.3514,-7.5195,-7.5577,-7.6647,-7.8634,-7.8476,-7.8739,-7.9573,-7.9112,-7.8843,-7.8843,-7.7791,-7.7561,-7.8038,-7.7524,-7.7268,-7.7268,-7.6717,-7.6166,-7.5542,-7.3891,-7.2863,-7.2202,-7.0881,-7.0183,-6.9853,-6.9082,-6.8825,-6.8788,0.0,0.0,0.0,0.0,0.0,0.0,0.0,0.0,0.0,0.0,0.0,-5.3563,-5.5115,-5.8219,-6.0496,-6.1289,-6.2944,-6.3448,-6.2234,0.0,0.0,0.0,0.0,0.0,0.0,-6.1998,-6.4053,-6.5705,-6.732,-6.8385,-6.8898,-6.9192,-6.9743,-7.0477,-7.022,-7.0403,-7.0807,-6.9192,-6.7473,-6.5676,-6.3808,-6.2064,-6.041,0.0,0.0,0.0,0.0,0.0,0.0,0.0,0.0,0.0,0.0,0.0,0.0,0.0,0.0,0.0,0.0,0.0,0.0,0.0,0.0,0.0,0.0,0.0,0.0,0.0,0.0,0.0,0.0,0.0,0.0,0.0,0.0,0.0,0.0,0.0,-6.6445,-6.7018,-6.9349,-7.0648,-7.0075,-7.1794,-7.3323,-7.4201,-7.6074,-7.7793,-7.9207,-7.9283,-7.982,-8.1057,-8.0542,-8.0467,-8.0804,-8.0489,-8.0334,-8.0304,-7.9431,-7.9286,-7.9764,-7.925,-7.8993,-7.8956,-7.8112,-7.7451,-7.6864,-7.6056,-7.5726,-7.5579,-7.3964,-7.3156,-7.2789,-7.1725,-7.1138,-7.077,0.0,0.0,0.0,0.0,0.0,0.0,0.0,0.0,0.0,0.0,0.0,-5.5115,-5.6667,-6.0254,-6.2806,-6.3531,-6.4255,-6.4622,-6.4566,-6.0684,0.0,0.0,0.0,0.0,-6.0493,-6.2952,-6.4971,-6.6586,-6.8164,-6.8972,-6.9009,-6.9779,-7.0587,-7.1293,-7.0513,-7.1027,-7.2386,-7.0844,-6.9499,-6.821,-6.5689,-6.4927,-6.4741,0.0,0.0,0.0,0.0,0.0,0.0,0.0,0.0,0.0,0.0,0.0,0.0,0.0,0.0,0.0,0.0,0.0,0.0,0.0,0.0,0.0,0.0,0.0,0.0,0.0,0.0,0.0,0.0,0.0,0.0,0.0,0.0,0.0,-6.4046,-6.6445,-6.8661,-7.0342,-7.2788,-7.4354,-7.4354,-7.6647,-7.8481,-7.9302,-8.0162,-8.1003,-8.1843,-8.1862,-8.201,-8.2301,-8.1732,-8.1196,-8.0737,-8.018,-7.9874,-7.9874,-7.9874,-7.9874,-7.9874,-7.9837,-7.98,-7.9764,-7.8956,-7.8589,-7.8479,-7.7671,-7.7273,-7.7127,-7.5579,-7.4441,-7.3707,-7.3707,-7.3156,-7.2239,0.0,0.0,0.0,0.0,0.0,0.0,0.0,0.0,0.0,0.0,-5.3563,-5.5908,-5.7426,-6.1013,-6.3358,-6.3565,-6.3772,-6.3797,-6.3609,0.0,0.0,0.0,0.0,0.0,-6.3906,-6.5742,-6.721,-6.8238,-6.9265,-7.0073,-7.066,-7.0881,-7.1394,-7.2165,-7.1945,-7.2092,-7.2459,-7.2018,-7.1663,-7.1075,-6.8057,-6.6347,-6.5305,0.0,0.0,0.0,0.0,0.0,0.0,0.0,0.0,0.0,0.0,0.0,0.0,0.0,0.0,0.0,0.0,0.0,0.0,0.0,0.0,0.0,0.0,0.0,0.0,0.0,0.0,0.0,0.0,0.0,0.0,0.0,0.0,-6.4292,-6.4986,-6.8852,-7.1985,-7.3017,-7.5959,-7.7908,-7.7908,-7.9627,-8.085,-8.1079,-8.2455,-8.3372,-8.3601,-8.3185,-8.3535,-8.484,-8.2815,-8.2173,-8.3188,-8.2097,-8.1525,-8.1525,-8.1525,-8.1525,-8.1525,-8.0938,-8.0351,-7.9764,-7.8956,-7.8259,-7.7671,-7.7384,-7.7273,-7.72,-7.6166,-7.5285,-7.4515,-7.3927,-7.2826,-7.1505,0.0,0.0,0.0,0.0,0.0,0.0,0.0,0.0,0.0,0.0,-5.4218,-5.6702,-5.8219,-6.122,-6.3255,-6.3565,-6.2737,-6.2058,-6.1856,0.0,0.0,0.0,0.0,-6.4127,-6.5778,-6.7393,-6.8605,-6.9412,-7.022,-7.0844,-7.1293,-7.1651,-7.2055,-7.2496,-7.2496,-7.2496,-7.2496,-7.2496,-7.2496,-7.2349,-7.044,-6.9282,-6.8266,-6.4951,-6.3461,-6.2785,-6.0299,-6.032,-6.1371,-6.0338,0.0,0.0,0.0,0.0,0.0,0.0,0.0,0.0,0.0,0.0,0.0,0.0,0.0,0.0,0.0,0.0,0.0,0.0,0.0,0.0,0.0,0.0,0.0,0.0,-6.5081,-6.7135,-6.8319,-7.1482,-7.4409,-7.6256,-7.879,-8.0679,-8.1474,-8.2663,-8.3639,-8.4365,-8.51,-8.549,-8.549,-8.4627,-8.4595,-8.5681,-8.3825,-8.3328,-8.4347,-8.3263,-8.27,-8.27,-8.237,-8.2186,-8.215,-8.1379,-8.0755,0.0,-7.9103,-7.8295,-7.7818,-7.742,-7.7273,0.0,0.0,0.0,0.0,0.0,-7.2606,-7.1688,0.0,0.0,0.0,0.0,0.0,0.0,0.0,0.0,0.0,0.0,0.0,-5.7219,-5.8737,-6.0875,-6.2565,-6.3393,-6.1392,-6.0011,0.0,0.0,0.0,-5.9735,-6.2732,-6.5118,-6.6733,-6.8348,-6.9522,-7.022,-7.1064,-7.1439,-7.1439,-7.2165,-7.2496,-7.2496,-7.2496,-7.2496,-7.2496,-7.2496,-7.2496,-7.2496,-7.2496,-7.2459,-7.19,-6.7848,-6.6617,-6.6629,-6.3152,-6.2031,-6.2089,-6.1215,0.0,0.0,0.0,0.0,0.0,0.0,0.0,0.0,0.0,0.0,0.0,0.0,0.0,0.0,0.0,0.0,0.0,0.0,0.0,0.0,0.0,0.0,0.0,0.0,-6.7551,-7.061,-7.2712,-7.4319,-7.6322,-7.9324,-8.1032,-8.2696,-8.453,-8.5126,-8.6098,-8.7773,-8.7414,-8.7117,-8.7117,0.0,0.0,0.0,0.0,-8.4415,-8.4719,-8.3948,-8.3508,-8.3398,-8.259,-8.215,-8.2039,-8.1158,-8.0718,-8.0645,-7.9103,-7.8442,-7.8405,-7.7604,-7.7163,-7.6943,-7.624,-7.5469,-7.4588,-7.3083,-7.2496,-7.2386,0.0,0.0,0.0,0.0,0.0,0.0,0.0,0.0,0.0,-5.2908,-5.4736,-5.6426,-5.7943,-5.9633,-6.1185,-6.2565,-6.0565,-5.9379,0.0,0.0,-6.0921,-6.3062,-6.5007,-6.6806,-6.8421,-7.0036,-7.0917,-7.1064,-7.1872,-7.2275,-7.2275,-7.2422,-7.2496,-7.2496,-7.2496,-7.2496,-7.2496,-7.2496,-7.2496,-7.2496,-7.2496,-7.2129,-7.1358,-6.9825,-6.8556,-6.7295,-6.531,-6.5409,-6.6333,-6.5274,-6.4778,-6.4413,-6.3341,0.0,0.0,0.0,0.0,0.0,0.0,0.0,0.0,0.0,0.0,0.0,0.0,0.0,0.0,0.0,0.0,0.0,0.0,0.0,0.0,-6.7871,-7.0152,-7.2306,-7.4767,-7.7058,-7.8791,-7.9599,-8.1707,-8.3512,-8.4612,-8.478,-8.537,-8.6555,-8.6538,-8.6459,-8.6459,-8.6395,-8.6385,-8.6382,-8.5175,-8.4853,-8.5563,-8.4756,-8.4058,-8.3398,0.0,0.0,-8.1195,-7.9727,-7.9066,-7.8993,-7.8002,-7.753,-7.7561,-7.7347,-7.654,-7.5359,-7.5212,-7.4661,-7.3817,-7.2863,-7.2496,-7.2386,0.0,0.0,0.0,0.0,0.0,0.0,0.0,0.0,0.0,0.0,-5.4356,-5.5667,-5.7185,-5.8047,-5.8944,-6.0082,-5.8955,0.0,0.0,-6.0503,-6.2732,-6.5191,-6.6843,-6.8458,-7.0073,-7.0889,-7.1476,-7.1908,-7.2312,-7.2496,-7.2496,-7.2496,-7.2496,-7.2496,-7.2496,-7.2496,-7.2496,-7.2496,-7.2496,-7.2496,-7.2496,-7.2275,-7.1835,-7.1027,-6.9963,-6.8752,-6.754,-6.7357,-6.7557,-6.6591,-6.605,-6.5686,-6.4659,-6.2521,-6.0097,0.0,0.0,0.0,0.0,0.0,0.0,0.0,0.0,0.0,0.0,0.0,0.0,0.0,0.0,-6.2352,0.0,0.0,-6.756,-6.999,-7.1746,-7.3665,-7.6158,-7.7931,-7.9277,-8.0078,-8.2573,-8.4469,-8.5049,-8.5698,-8.6503,-8.749,-8.7257,-8.7084,-8.7121,-8.6554,-8.6426,-8.68,-8.5732,-8.538,-8.5783,-8.5013,-8.3985,-8.281,-8.1966,-8.1195,-8.0351,-7.914,-7.8589,-7.8552,-7.7708,-7.7273,-7.7273,-7.7273,-7.6099,-7.4331,-7.4735,-7.4147,-7.3046,-7.2642,-7.2275,-7.1835,0.0,0.0,0.0,0.0,0.0,0.0,0.0,0.0,0.0,0.0,0.0,-5.4977,-5.6219,-5.6357,-5.6529,0.0,0.0,0.0,0.0,-6.1547,-6.4567,-6.688,-6.8531,-6.9963,-7.1256,-7.1439,-7.1872,-7.2496,-7.2496,-7.2496,-7.2496,-7.2496,-7.2496,-7.2496,-7.2496,-7.2496,-7.2496,-7.2496,-7.2496,-7.2496,-7.2496,-7.2496,-7.2422,-7.1798,-7.0954,-7.0,-6.9376,-6.8421,-6.7393,-6.688,-6.6404,-6.5877,-6.5173,-6.3758,-6.2092,-6.0882,-6.021,0.0,0.0,0.0,0.0,0.0,0.0,0.0,0.0,0.0,-6.1164,-6.2528,-6.3904,-6.5269,-6.6642,-6.8382,-7.0164,-7.1745,-7.3083,-7.4735,-7.698,-7.8185,-7.929,-8.0541,-8.3042,-8.4891,-8.5432,-8.63,-8.7277,-8.8359,-8.7842,-8.7561,-8.7715,-8.6638,-8.6334,-8.6995,-8.6224,-8.5783,-8.5783,-8.5013,-8.3801,-8.2186,-8.1379,-8.0498,-7.9543,-7.8699,-7.8369,-7.8295,-7.7598,-7.72,-7.7053,-7.6907,-7.5689,-7.3964,-7.4478,-7.3891,-7.2716,-7.2386,-7.1872,-7.1256,0.0,0.0,0.0,0.0,0.0,0.0,0.0,0.0,0.0,0.0,0.0,0.0,0.0,0.0,0.0,0.0,0.0,0.0,0.0,-6.4085,-6.6843,-6.8568,-7.0183,-7.1109,-7.1293,-7.2018,-7.2422,-7.2496,-7.2496,-7.2496,-7.2496,-7.2496,-7.2496,-7.2496,-7.2496,-7.2496,-7.2496,-7.2496,-7.2496,-7.2496,-7.2496,-7.2496,-7.2496,-7.2422,-7.1431,-7.0073,-7.0,-6.8531,-6.6733,-6.7357,-6.7079,-6.6408,-6.6297,-6.5625,-6.4709,-6.385,0.0,-6.0433,-6.0921,-6.0418,0.0,-5.921,-5.9647,-6.1034,0.0,0.0,-6.5149,-6.7114,-6.7688,-6.8396,-7.0349,-7.034,-7.101,-7.4001,-7.4661,-7.5359,-7.7053,-7.8662,-7.9979,-8.085,-8.2288,-8.3797,-8.5267,-8.4882,-8.5294,-8.7047,-8.6467,-8.636,-8.7061,-8.6956,-8.6921,-8.6995,-8.6224,-8.5783,-8.5783,-8.5013,-8.3801,-8.2186,-8.1379,-8.0204,-7.8699,-7.7855,-7.742,-7.742,-7.7347,-7.69,-7.6166,-7.5469,-7.5028,-7.4698,-7.4074,-7.3707,-7.3377,-7.1982,-7.1366,-7.1183,0.0,0.0,0.0,0.0,0.0,0.0,0.0,0.0,0.0,0.0,0.0,0.0,0.0,0.0,0.0,0.0,0.0,0.0,-6.0142,-6.4137,-6.743,-6.9522,-7.0697,-7.1541,-7.1982,-7.2349,-7.2496,-7.2496,-7.2496,-7.2496,-7.2496,-7.2496,-7.2496,-7.2496,-7.2496,-7.2496,-7.2496,-7.2496,-7.2496,-7.2496,-7.2496,-7.2239,-7.1798,-7.1798,-7.0513,-6.8752,-6.9229,-6.7871,0.0,0.0,-6.5778,-6.5191,-6.5668,-6.4897,-6.3886,-6.4049,-6.3043,0.0,-6.3435,0.0,0.0,0.0,-6.3499,-6.4358,-6.6212,-6.683,-6.7439,-6.903,-7.0106,-7.0983,-7.1827,-7.2129,-7.2642,0.0,-7.4992,-7.6166,-7.7818,-7.9066,-8.0094,-8.0901,-8.1082,-8.1938,-8.4041,-8.4779,-8.546,-8.6258,-8.6407,-8.6664,-8.6995,-8.6995,-8.6811,-8.6334,-8.5967,-8.5343,-8.4425,-8.3618,-8.2406,-8.0791,-7.9984,-7.8993,-7.7855,-7.7457,-7.7273,-7.7273,-7.6827,-7.6166,-7.5432,-7.5542,-7.5065,-7.4258,-7.4845,-7.4515,-7.356,-7.2422,-7.1431,-7.0477,0.0,0.0,0.0,0.0,0.0,0.0,0.0,0.0,0.0,0.0,0.0,0.0,0.0,0.0,0.0,0.0,0.0,0.0,0.0,-6.3941,-6.7577,-7.0,-7.0881,0.0,-7.2496,-7.2496,-7.2496,-7.2496,-7.2496,-7.2496,-7.2496,-7.2496,-7.2496,-7.2496,-7.2496,-7.2496,-7.2496,-7.2496,-7.2496,-7.2496,-7.2496,-7.2018,-7.1256,-7.1064,-6.9486,-6.7393,-6.7797,-6.6366,0.0,0.0,-6.3576,-6.3209,-6.4016,-6.3504,-6.2875,-6.4091,-6.395,-6.3558,-6.4329,0.0,0.0,-6.5516,-6.6502,-6.7296,-6.7827,-6.8726,-6.9743,-7.0891,-7.2018,-7.2899,-7.312,-7.3266,-7.3597,-7.4258,-7.5322,-7.6754,-7.8662,-7.9433,-8.0094,-8.0901,-8.0277,-8.0498,-8.226,-8.3875,-8.4976,-8.5416,-8.6224,-8.6775,-8.6995,-8.6811,-8.6407,-8.582,-8.538,-8.4462,-8.3104,-8.226,-8.1048,-7.9433,-7.8883,-7.8148,-7.7273,-7.7053,-7.6974,-7.6937,-7.635,-7.5652,-7.4955,-7.5763,-7.5285,-7.4147,-7.5322,-7.4918,-7.3597,-7.2789,-7.1468,-6.9963,0.0,0.0,0.0,0.0,0.0,0.0,0.0,0.0,0.0,0.0,0.0,0.0,0.0,0.0,0.0,0.0,0.0,0.0,0.0,-6.3941,-6.7577,-7.0,-7.0881,-7.1688,-7.2496,-7.2496,-7.2496,-7.2496,-7.2496,-7.2496,-7.2496,-7.2496,-7.2496,-7.2496,-7.2496,-7.2496,-7.2496,-7.2496,-7.2496,-7.2496,-7.2496,-7.2018,-7.1211,-7.044,-6.8641,-6.6439,-6.5705,0.0,0.0,0.0,-6.0529,-6.0639,-6.1447,-6.1942,0.0,-6.4741,-6.5087,-6.4396,0.0,0.0,-6.4865,-6.5588,-6.7317,-6.9036,-6.9844,-7.1239,-7.2569,-7.3413,-7.3634,-7.3891,-7.4698,-7.356,-7.3303,-7.5652,-7.6056,-7.6974,-7.9396,-7.9764,-8.0094,-8.0901,-8.0277,-7.98,0.0,-8.1342,-8.2957,-8.4535,-8.538,-8.6187,-8.6958,-8.6261,-8.582,-8.5783,-8.4278,-8.3067,-8.2223,-8.1452,-8.0241,-7.8626,-7.8589,-7.8148,-7.7273,-7.6497,-7.613,-7.613,-7.6093,-7.5652,-7.4955,-7.5763,-7.5616,-7.4882,-7.4918,-7.4441,-7.3597,-7.2789,-7.1468,-6.9963,0.0,0.0,0.0,0.0,0.0,0.0,0.0,0.0,0.0,0.0,0.0,0.0,0.0,0.0,0.0,0.0,0.0,0.0,0.0,-6.2547,-6.5742,-6.7614,-7.0036,-7.1431,-7.1725,-7.2239,-7.2496,-7.2496,-7.2496,-7.2496,-7.2496,-7.2496,-7.2496,-7.2496,-7.2496,-7.2496,-7.2496,-7.2496,-7.2496,-7.2459,-7.1945,-7.1211,-7.0477,-7.0183,-6.7577,-6.3943,0.0,0.0,0.0,0.0,0.0,0.0,-5.8951,-5.8957,0.0,-6.0497,-6.2553,-6.4312,0.0,0.0,-6.7406,-6.8717,-7.0169,-7.1505,-7.2312,-7.3303,-7.4184,-7.4441,-7.4918,-7.5212,-7.4955,-7.4882,-7.4808,-7.4551,-7.635,-7.7671,-7.7378,-7.8736,-7.969,-7.9433,-7.8662,0.0,0.0,0.0,0.0,-8.292,-8.3765,-8.4572,-8.538,-8.5159,-8.4756,-8.4242,-8.3177,-8.2223,-8.1415,-8.0094,-7.914,-7.8589,-7.8002,-7.7304,-7.6497,-7.624,-7.6093,-7.6056,-7.5542,-7.5175,-7.4918,-7.5212,-7.4845,-7.4147,-7.4698,-7.4074,-7.2863,-7.2606,-7.1138,-6.9265,0.0,0.0,0.0,0.0,0.0,0.0,0.0,0.0,0.0,0.0,0.0,0.0,0.0,0.0,0.0,0.0,0.0,0.0,0.0,0.0,-6.2879,-6.5081,-6.688,-6.8128,-6.8715,-6.8935,-6.9486,-7.0367,-7.0367,-7.0807,-7.1651,-7.1945,-7.2092,-7.2092,-7.2386,-7.2496,-7.2496,-7.2496,-7.2018,-7.1174,-7.066,-6.9265,-6.7467,-6.7173,-6.4567,0.0,0.0,0.0,0.0,0.0,0.0,0.0,-5.6895,-5.7508,-5.8134,-5.938,-6.1711,-6.4299,-6.6275,-6.7638,-6.9019,-7.1226,-7.2383,-7.3156,-7.3964,-7.4551,-7.4918,-7.4918,-7.4845,-7.4661,-7.4147,-7.378,-7.356,-7.367,-7.5726,-7.7304,-7.7414,-7.8772,-7.958,-7.9066,-7.8295,0.0,0.0,0.0,0.0,-8.1269,-8.237,-8.3324,-8.4132,-8.4168,-8.3801,-8.2994,-8.2186,-8.1232,-8.0167,-7.9103,-7.8442,-7.8148,-7.7598,-7.7017,-7.6533,-7.624,-7.6093,-7.6056,-7.5249,-7.4918,-7.4918,-7.4918,-7.4441,-7.3707,-7.3964,-7.323,-7.2055,-7.1762,-7.066,-6.9302,0.0,0.0,0.0,0.0,0.0,0.0,0.0,0.0,0.0,0.0,0.0,0.0,0.0,0.0,0.0,0.0,0.0,0.0,0.0,0.0,0.0,-6.2413,-6.1924,-6.2365,-6.398,-6.3282,-6.4053,-6.6439,-6.6439,-6.7614,-6.9853,-7.066,-7.0962,-7.0999,-7.1798,-7.2129,-7.2129,-7.2129,-7.0807,-6.8641,-6.8605,-6.6256,-6.2658,-6.1887,0.0,0.0,0.0,0.0,0.0,0.0,0.0,0.0,0.0,-5.7654,-6.0157,-6.1344,-6.2598,-6.4485,-6.842,-6.9321,-6.9889,-7.2936,-7.3744,-7.4001,-7.4735,-7.4955,-7.4955,-7.4882,-7.356,-7.2459,0.0,0.0,-7.0073,-7.3083,-7.4441,-7.613,-7.9103,-7.969,-7.9764,0.0,0.0,0.0,0.0,0.0,0.0,-7.9617,0.0,-8.237,-8.3177,-8.3251,-8.2884,-8.2076,-8.1305,-8.0131,-7.8626,-7.8552,-7.8112,-7.7273,-7.7273,-7.7273,-7.72,-7.6423,-7.6056,-7.5983,-7.5212,-7.4845,-7.4845,-7.4808,-7.4294,-7.3487,-7.2679,-7.1908,-7.1073,-7.033,-7.0,-6.9853,0.0,0.0,0.0,0.0,0.0,0.0,0.0,0.0,0.0,0.0,0.0,0.0,0.0,0.0,0.0,0.0,0.0,0.0,0.0,0.0,0.0,0.0,0.0,0.0,0.0,0.0,0.0,0.0,0.0,-6.5925,-6.6549,-6.6733,-6.6843,0.0,-6.7063,-6.7136,-6.7136,-6.7136,-6.6439,-6.5264,0.0,-6.3392,-6.1887,0.0,0.0,0.0,0.0,0.0,0.0,0.0,0.0,0.0,0.0,-5.8713,-6.0558,-6.2053,-6.4033,-6.6243,-6.8462,-7.0707,-7.2679,-7.3487,-7.4588,-7.5395,-7.4992,-7.5359,-7.5469,-7.4258,-7.2753,-7.1615,0.0,0.0,0.0,-7.1872,-7.5139,0.0,-7.6276,-7.8259,0.0,-7.8993,0.0,-7.9176,-7.8369,-7.8479,0.0,0.0,-7.8919,-7.9874,-8.0681,-8.0718,-8.0608,-8.0424,-7.9617,-7.8993,-7.8589,-7.7965,-7.7494,-7.7273,-7.7273,-7.698,-7.6387,-7.5579,-7.5212,-7.5175,-7.4368,-7.4001,-7.3964,-7.3377,-7.2642,-7.1835,-7.1027,-7.022,-6.9486,-6.9302,-6.8825,-6.8201,0.0,0.0,0.0,0.0,0.0,0.0,0.0,0.0,0.0,0.0,0.0,0.0,0.0,0.0,0.0,0.0,0.0,0.0,0.0,0.0,0.0,0.0,0.0,0.0,0.0,0.0,0.0,0.0,0.0,0.0,0.0,-6.3686,-6.3686,-6.3686,-6.4053,-6.4174,-6.4174,0.0,0.0,0.0,0.0,0.0,0.0,0.0,0.0,0.0,0.0,0.0,0.0,0.0,0.0,-5.9098,-5.9465,-6.097,-6.2952,-6.4897,0.0,-6.8495,-7.0477,-7.2569,-7.4294,-7.4661,-7.5175,-7.5469,-7.5028,-7.4441,-7.356,-7.1945,-7.0036,0.0,0.0,0.0,0.0,0.0,0.0,0.0,-7.7047,-7.8919,-8.0167,0.0,-8.0057,0.0,-7.8699,-7.8919,-7.8626,0.0,-7.8112,-7.8809,-7.925,-7.958,-7.9617,-7.9286,-7.8846,-7.8405,-7.8038,-7.753,-7.7273,-7.7273,-7.6937,-7.6717,-7.6607,-7.5432,-7.5102,-7.5359,0.0,-7.3487,-7.312,-7.2312,-7.1505,-7.0697,-6.9889,-6.9302,-6.8825,-6.8128,-6.7577,-6.7063,0.0,0.0,0.0,0.0,0.0,0.0,0.0,0.0,0.0,0.0,0.0,0.0,0.0,0.0,0.0,0.0,0.0,0.0,0.0,0.0,0.0,0.0,0.0,0.0,0.0,0.0,0.0,0.0,0.0,0.0,0.0,0.0,0.0,0.0,0.0,0.0,0.0,0.0,0.0,0.0,0.0,0.0,0.0,0.0,0.0,0.0,0.0,0.0,0.0,0.0,-6.0126,-6.1227,-6.2108,-6.4016,-6.6366,-6.8568,-6.9779,-7.0881,-7.3083,-7.4368,-7.5249,-7.5946,-7.5579,-7.5028,-7.4808,-7.2899,-7.066,-6.8935,0.0,-6.4604,-6.3906,0.0,-6.6292,-6.9302,0.0,-7.5983,-7.9029,-8.0241,-8.0828,-8.0828,-8.1048,-8.0498,-7.8772,-7.9323,-7.9103,-7.742,-7.8002,-7.8442,-7.8442,-7.9103,-7.914,-7.8442,-7.8442,-7.8075,-7.731,-7.7163,-7.7127,-7.7127,-7.6423,-7.6423,-7.6907,-7.5542,-7.5212,-7.5689,0.0,0.0,-7.2275,-7.1468,-7.066,-6.9853,-6.9045,-6.8752,-6.8568,-6.7063,-6.6512,-6.6366,0.0,0.0,0.0,0.0,0.0,0.0,0.0,0.0,0.0,0.0,-5.1134,-5.1017,0.0,0.0,0.0,0.0,0.0,0.0,0.0,0.0,0.0,0.0,0.0,0.0,0.0,0.0,0.0,0.0,0.0,0.0,0.0,0.0,0.0,0.0,0.0,0.0,0.0,0.0,0.0,0.0,0.0,0.0,0.0,0.0,0.0,0.0,0.0,0.0,0.0,0.0,-6.2108,-6.4714,-6.6182,-6.7834,-6.9486,-7.0587,-7.1468,-7.2312,-7.3413,-7.4771,-7.5946,-7.6056,-7.6019,-7.5542,-7.4221,-7.2018,0.0,0.0,0.0,-6.2181,-6.2071,-6.3833,0.0,-6.7797,0.0,0.0,0.0,0.0,-7.9984,0.0,0.0,0.0,0.0,0.0,0.0,0.0,0.0,0.0,-7.753,-7.7671,-7.764,-7.753,-7.753,-7.742,-7.7273,-7.6644,-7.6313,-7.6313,-7.6166,-7.5836,-7.5322,-7.5028,-7.4625,-7.4037,-7.312,0.0,-7.1468,-7.066,-6.9816,-6.9045,-6.8201,-6.7907,-6.7797,-6.6843,-6.6512,-6.6292,0.0,0.0,0.0,0.0,0.0,0.0,0.0,-5.1408,-5.1933,-5.3015,-5.3726,-5.3734,-5.281,-5.2876,0.0,0.0,0.0,0.0,0.0,0.0,0.0,0.0,0.0,0.0,0.0,0.0,0.0,0.0,0.0,0.0,0.0,0.0,0.0,0.0,0.0,0.0,0.0,0.0,0.0,0.0,0.0,0.0,0.0,0.0,0.0,0.0,0.0,0.0,0.0,0.0,-6.2511,-6.6292,-6.8311,-7.0036,-7.1431,-7.1835,-7.3083,-7.4368,-7.4331,-7.613,-7.7708,-7.6423,-7.6093,-7.5359,-7.2459,0.0,0.0,0.0,-6.2034,-6.0236,-5.9795,0.0,0.0,0.0,0.0,0.0,0.0,0.0,0.0,0.0,0.0,0.0,0.0,0.0,0.0,0.0,0.0,0.0,-7.7273,-7.7273,-7.7273,-7.7273,-7.69,-7.668,-7.668,-7.6276,-7.6093,-7.6093,-7.5689,-7.5506,-7.5469,-7.4221,-7.367,-7.367,-7.2863,0.0,-7.066,-7.0257,-6.9376,-6.8201,-6.7393,-6.7063,-6.6916,-6.5705,-6.5228,-6.5081,0.0,0.0,0.0,0.0,0.0,0.0,0.0,-5.2393,-5.3127,-5.4931,-5.6644,-5.6963,-5.4898,-5.4406,-5.4031,0.0,0.0,0.0,0.0,0.0,0.0,0.0,0.0,0.0,0.0,0.0,0.0,0.0,0.0,0.0,0.0,0.0,0.0,0.0,0.0,0.0,0.0,0.0,0.0,0.0,0.0,0.0,0.0,0.0,0.0,0.0,0.0,0.0,0.0,0.0,-6.2108,-6.6145,-6.8568,-7.077,-7.2459,-7.2312,-7.3964,-7.5689,-7.5065,-7.7047,-7.8772,-7.6644,-7.5983,-7.4808,-7.077,-6.7981,0.0,0.0,-6.0052,-5.8767,-5.8107,0.0,0.0,0.0,0.0,0.0,0.0,0.0,0.0,0.0,0.0,0.0,0.0,0.0,0.0,0.0,0.0,0.0,-7.7273,-7.7127,-7.7017,-7.7017,-7.6276,-7.5946,-7.6093,-7.5763,-7.5652,-7.5836,-7.5028,-7.4882,-7.5249,-7.3377,-7.2753,-7.312,-7.2349,0.0,0.0,-6.9853,-6.8898,-6.7357,-6.6733,-6.6402,-6.6072,-6.464,-6.409,-6.398,0.0,0.0,0.0,0.0,0.0,0.0,0.0,-5.3381,-5.5087,-5.7932,-5.8979,-5.9053,-5.7918,-5.7125,-5.5748,0.0,0.0,0.0,0.0,0.0,0.0,0.0,0.0,0.0,0.0,0.0,0.0,0.0,0.0,0.0,0.0,0.0,0.0,0.0,0.0,0.0,0.0,0.0,0.0,0.0,0.0,0.0,0.0,0.0,0.0,0.0,0.0,0.0,0.0,0.0,0.0,-6.3576,-6.6035,-6.9449,-7.2349,-7.1651,0.0,0.0,-7.4918,-7.6173,-7.7304,-7.635,-7.5542,-7.3964,-6.9926,0.0,0.0,-6.119,-5.9245,-5.8107,-5.7997,-5.9391,0.0,0.0,0.0,0.0,0.0,0.0,0.0,0.0,0.0,0.0,0.0,0.0,0.0,0.0,0.0,0.0,0.0,-7.6607,-7.6203,-7.6203,-7.5432,-7.5359,-7.6093,-7.4661,-7.4294,-7.5028,-7.4184,-7.345,-7.2826,-7.2606,-7.2165,-7.1505,-7.066,0.0,0.0,-6.9009,-6.8054,-6.6586,-6.6512,-6.6035,-6.5301,-6.442,-6.409,-6.398,0.0,0.0,0.0,0.0,0.0,0.0,-5.2959,-5.3929,-5.5643,-5.9191,-6.0919,-6.147,-6.0577,-5.9788,-5.7722,-5.387,0.0,0.0,0.0,0.0,0.0,0.0,0.0,0.0,0.0,0.0,0.0,0.0,0.0,0.0,0.0,0.0,0.0,0.0,0.0,0.0,0.0,0.0,0.0,0.0,0.0,0.0,0.0,0.0,0.0,0.0,0.0,0.0,0.0,0.0,0.0,0.0,-6.2658,-6.5301,0.0,0.0,-7.2642,-7.4918,-7.4918,-7.6827,-7.8369,-7.6533,-7.5506,-7.3854,-6.9816,0.0,0.0,-6.097,-5.9134,-5.7997,-5.7997,-5.851,-5.9428,0.0,0.0,0.0,0.0,0.0,0.0,0.0,0.0,0.0,0.0,0.0,0.0,0.0,0.0,0.0,0.0,-7.6533,-7.6313,-7.6827,-7.6056,-7.5542,-7.5395,-7.4735,-7.4331,-7.4184,-7.3854,-7.3266,-7.2496,-7.2018,-7.1358,-7.055,-7.022,0.0,0.0,-6.8164,-6.7247,-6.5742,-6.5228,-6.4861,-6.4494,-6.3649,-6.3319,-6.3282,0.0,0.0,0.0,0.0,0.0,-5.1207,-5.3375,-5.4296,-5.6042,-5.9682,-6.1531,-6.2382,-6.2036,-6.0632,-5.8341,-5.5024,-5.3964,0.0,0.0,0.0,0.0,0.0,0.0,0.0,0.0,0.0,-5.3203,-5.3203,-5.3445,0.0,0.0,0.0,0.0,0.0,0.0,0.0,0.0,0.0,0.0,0.0,0.0,0.0,0.0,0.0,0.0,0.0,0.0,0.0,0.0,0.0,0.0,0.0,0.0,0.0,0.0,0.0,-7.1138,-7.3634,-7.4368,-7.657,-7.8295,-7.6533,-7.5506,-7.3744,0.0,0.0,0.0,-6.0346,-5.8804,-5.7997,-5.7997,-5.7997,-5.8253,0.0,0.0,0.0,0.0,0.0,0.0,0.0,0.0,0.0,0.0,0.0,0.0,0.0,0.0,0.0,0.0,-7.5616,-7.5506,-7.654,-7.5799,-7.5102,-7.4551,-7.4331,-7.4037,-7.367,-7.323,-7.2679,-7.2129,-7.1064,-7.0146,-6.9376,0.0,0.0,0.0,-6.699,-6.6182,-6.4897,-6.431,-6.3943,-6.3649,-6.3025,-6.278,-6.278,0.0,0.0,0.0,0.0,0.0,0.0,-5.3299,-5.4747,-5.6592,-5.9452,-6.0406,-6.1126,-6.1902,-5.9095,-5.7137,-5.7159,-5.4942,0.0,0.0,0.0,0.0,0.0,0.0,0.0,0.0,0.0,-5.3203,-5.3203,-5.3995,-5.3995,-5.3203,-5.3203,0.0,0.0,0.0,0.0,0.0,0.0,0.0,0.0,0.0,0.0,0.0,0.0,0.0,0.0,0.0,0.0,0.0,0.0,0.0,0.0,0.0,0.0,0.0,0.0,-6.8238,-7.066,-7.3046,-7.4882,-7.613,-7.6093,-7.5506,-7.345,0.0,0.0,-6.3906,-5.9024,-5.7997,-5.7997,-5.7997,-5.7997,-5.8253,-5.9074,0.0,0.0,0.0,0.0,0.0,0.0,0.0,0.0,0.0,0.0,0.0,0.0,0.0,0.0,0.0,-7.3413,-7.3266,-7.4882,-7.4147,-7.3707,-7.3707,-7.2936,-7.2936,-7.367,-7.2092,-7.1293,-7.1284,-6.9669,-6.8495,0.0,0.0,0.0,0.0,-6.5338,-6.4861,-6.409,-6.409,-6.3576,-6.278,-6.278,-6.278,-6.278,0.0,0.0,0.0,0.0,0.0,0.0,0.0,-5.399,-5.5597,-5.8163,-5.9028,-5.9906,-6.13,-5.8937,-5.7286,-5.7406,-5.5024,0.0,0.0,0.0,0.0,0.0,0.0,0.0,0.0,0.0,-5.3482,-5.4032,-5.4289,-5.4546,-5.4803,-5.3702,-5.3482,-5.3959,0.0,0.0,0.0,0.0,0.0,0.0,0.0,0.0,0.0,0.0,0.0,0.0,0.0,0.0,0.0,0.0,0.0,0.0,0.0,0.0,0.0,0.0,0.0,0.0,-6.9376,-7.1174,-7.2569,-7.1468,-7.0587,-6.9229,-6.6329,0.0,-6.2034,-5.9391,-5.84,-5.7997,-5.7997,-5.7997,-5.8621,-6.0529,0.0,0.0,0.0,0.0,0.0,0.0,0.0,0.0,0.0,0.0,0.0,0.0,0.0,0.0,0.0,-7.1866,-7.1938,-7.4037,-7.3303,-7.2606,-7.2092,-7.1835,-7.1541,-7.1211,-7.0734,-7.0183,-6.9633,-6.9155,0.0,0.0,0.0,0.0,0.0,-6.4494,-6.398,-6.3209,-6.3209,-6.3062,-6.278,-6.278,-6.278,-6.278,0.0,0.0,0.0,0.0,0.0,0.0,0.0,-5.3695,-5.4905,-5.6565,-5.7101,-5.8066,-6.0035,-5.7707,-5.6388,-5.7336,-5.5044,0.0,0.0,0.0,0.0,0.0,0.0,0.0,-5.3314,-5.3272,-5.3619,-5.4427,-5.5008,-5.539,-5.5574,-5.4876,-5.4509,-5.4326,-5.3041,0.0,0.0,0.0,0.0,0.0,0.0,0.0,-5.3203,0.0,0.0,0.0,0.0,0.0,0.0,0.0,0.0,0.0,0.0,0.0,0.0,0.0,-6.1006,0.0,0.0,-6.8348,-6.9779,-6.9082,-6.8311,0.0,0.0,0.0,-6.1043,-5.9134,-5.8364,-5.7997,-5.7997,-5.7997,-5.8474,-5.9979,0.0,0.0,0.0,0.0,0.0,0.0,0.0,0.0,0.0,0.0,0.0,0.0,0.0,0.0,0.0,0.0,-6.9632,-7.1047,-7.147,-7.1385,-7.0844,-7.0844,-7.0587,-7.0073,-6.9486,-6.8935,-6.8421,-6.7834,0.0,0.0,0.0,0.0,0.0,-6.3613,-6.3282,-6.278,-6.278,-6.278,-6.278,-6.278,-6.278,-6.278,0.0,0.0,0.0,0.0,0.0,0.0,0.0,-5.3744,-5.4428,-5.485,-5.4909,-5.58,-5.8103,-5.5652,-5.4684,-5.6867,0.0,0.0,0.0,0.0,0.0,0.0,0.0,0.0,-5.3481,-5.338,-5.3723,-5.4607,-5.6022,-5.6381,-5.5757,-5.6418,-5.5904,-5.4436,-5.3592,-5.3203,0.0,0.0,0.0,0.0,0.0,-5.3885,0.0,0.0,0.0,0.0,0.0,0.0,0.0,0.0,0.0,0.0,0.0,0.0,0.0,0.0,0.0,0.0,0.0,0.0,0.0,0.0,0.0,0.0,0.0,0.0,0.0,-5.8474,-5.7923,-5.7886,-5.8033,-5.7997,-5.7997,0.0,0.0,0.0,0.0,0.0,0.0,0.0,0.0,0.0,0.0,0.0,0.0,0.0,0.0,0.0,0.0,0.0,-6.6631,-6.6631,-6.8701,-6.9818,-6.987,-6.9825,-6.9853,-6.9816,-6.8274,-6.7504,-6.7467,-6.5999,0.0,0.0,0.0,0.0,0.0,-6.278,-6.278,-6.278,-6.278,-6.278,-6.278,-6.278,-6.278,-6.278,0.0,0.0,0.0,0.0,0.0,0.0,0.0,0.0,0.0,0.0,-5.4091,-5.4314,-5.4909,-5.4277,-5.3998,0.0,0.0,0.0,0.0,0.0,0.0,0.0,0.0,0.0,-5.3481,-5.338,-5.4018,-5.5491,-5.575,-5.6418,-5.7409,-5.6381,-5.5728,-5.5389,-5.387,-5.3203,0.0,0.0,0.0,0.0,-5.3408,-5.335,0.0,0.0,0.0,0.0,-5.4106,-5.4913,0.0,0.0,0.0,0.0,0.0,0.0,0.0,0.0,-5.5574,-5.6014,-5.8217,0.0,-6.1998,-6.1594,-6.1814,0.0,0.0,0.0,-5.8694,-5.8107,0.0,-5.6712,-5.8584,0.0,0.0,0.0,0.0,0.0,0.0,0.0,0.0,0.0,0.0,0.0,0.0,0.0,0.0,0.0,0.0,0.0,0.0,0.0,-6.512,-6.512,-6.511,-6.5863,-6.7491,-6.7396,-6.7357,-6.732,-6.6329,-6.5852,-6.5852,-6.5485,0.0,0.0,0.0,0.0,-6.278,-6.278,-6.278,-6.278,-6.278,-6.278,-6.278,-6.278,-6.278,-6.278,0.0,0.0,0.0,0.0,0.0,0.0,0.0,0.0,0.0,0.0,0.0,0.0,0.0,0.0,0.0,0.0,0.0,0.0,0.0,0.0,0.0,0.0,0.0,-5.3716,-5.3639,-5.3558,-5.4252,-5.5849,-5.611,-5.6853,-5.7997,-5.7483,-5.6698,-5.5625,-5.3943,-5.3203,-5.3203,-5.3592,-5.3555,-5.3203,-5.3592,0.0,0.0,0.0,0.0,0.0,-5.3702,-5.4583,0.0,-5.6528,-5.7593,-5.8364,0.0,0.0,0.0,0.0,-5.4693,-5.5133,-5.6014,-5.8033,-5.9832,-5.9795,-5.9795,-5.9758,0.0,0.0,0.0,0.0,0.0,0.0,0.0,0.0,0.0,0.0,0.0,0.0,0.0,0.0,0.0,0.0,0.0,0.0,0.0,0.0,0.0,0.0,0.0,0.0,0.0,0.0,-6.4111,-6.4111,-6.3693,-6.4217,-6.5682,-6.5537,-6.5478,-6.5478,-6.4987,-6.4751,-6.4751,-6.4347,-6.3943,0.0,0.0,0.0,-6.278,-6.278,-6.278,-6.278,-6.278,-6.278,-6.278,-6.278,-6.278,-6.278,0.0,0.0,0.0,0.0,0.0,0.0,0.0,0.0,0.0,0.0,0.0,0.0,0.0,0.0,0.0,0.0,0.0,0.0,0.0,0.0,0.0,0.0,0.0,-5.3868,-5.398,-5.379,-5.4431,-5.5897,-5.6528,-5.7228,-5.7997,-5.8694,-5.7813,-5.5559,-5.4222,-5.3466,-5.3261,-5.3922,-5.3812,-5.324,-5.3959,0.0,0.0,0.0,0.0,0.0,0.0,0.0,0.0,-5.6198,-5.7519,-5.8561,-5.7079,0.0,0.0,0.0,0.0,0.0,-5.5831,-5.7556,-5.9331,-5.9905,-5.9722,-5.9294,-5.9074,0.0,0.0,0.0,0.0,0.0,0.0,0.0,0.0,0.0,0.0,0.0,0.0,0.0,0.0,0.0,0.0,0.0,0.0,0.0,0.0,0.0,0.0,0.0,0.0,0.0,0.0,-6.3427,-6.3136,-6.3258,-6.3839,-6.3932,-6.4049,-6.4098,-6.3862,-6.3793,-6.387,-6.3135,-6.278,0.0,0.0,0.0,-6.278,-6.278,-6.278,-6.278,-6.278,-6.278,-6.278,-6.278,-6.278,-6.278,0.0,0.0,0.0,0.0,0.0,0.0,0.0,0.0,0.0,0.0,0.0,0.0,0.0,0.0,0.0,0.0,0.0,0.0,0.0,0.0,0.0,0.0,-5.3774,-5.4128,-5.4797,-5.4086,-5.4431,-5.5897,-5.5975,-5.6676,-5.7997,-5.8143,-5.7262,-5.5596,-5.5533,-5.4628,-5.3203,-5.3335,-5.3314,-5.3203,-5.3335,0.0,0.0,0.0,0.0,0.0,0.0,0.0,0.0,-5.473,-5.5831,-5.7005,-5.6088,0.0,0.0,0.0,0.0,0.0,-5.6895,-5.84,-5.9074,-5.851,-5.9318,-5.9869,0.0,0.0,0.0,0.0,0.0,0.0,0.0,0.0,0.0,0.0,0.0,0.0,0.0,0.0,0.0,0.0,0.0,0.0,0.0,0.0,0.0,0.0,0.0,0.0,0.0,0.0,0.0,-6.2668,-6.1396,-6.0774,-6.0843,-6.1982,-6.2788,-6.3265,-6.2586,-6.2516,-6.3025,-6.2853,-6.278,0.0,0.0,-6.278,-6.278,-6.278,-6.278,-6.278,-6.278,-6.278,-6.278,-6.278,-6.278,-6.278,0.0,0.0,0.0,0.0,0.0,0.0,0.0,0.0,0.0,0.0,0.0,0.0,0.0,0.0,0.0,0.0,0.0,0.0,0.0,0.0,0.0,-5.4385,-5.4424,-5.461,-5.4922,-5.4548,-5.5279,-5.714,-5.7096,-5.7853,-5.9281,-5.8029,-5.6801,-5.5647,-5.487,-5.3997,-5.3203,-5.3203,-5.3203,-5.3203,0.0,0.0,0.0,0.0,0.0,0.0,0.0,0.0,0.0,0.0,-5.6124,-5.7226,-5.5978,0.0,0.0,0.0,0.0,0.0,-5.5647,-5.7593,-5.9001,-5.8217,-5.9538,-6.075,0.0,0.0,0.0,0.0,0.0,0.0,0.0,0.0,0.0,0.0,0.0,0.0,0.0,0.0,0.0,0.0,0.0,0.0,0.0,0.0,0.0,0.0,0.0,0.0,0.0,0.0,0.0,-6.1841,-6.0771,-6.0185,-6.0185,-6.0381,-6.0968,-6.1918,-6.1904,-6.2229,-6.278,-6.278,-6.278,-6.278,0.0,-6.278,-6.278,-6.278,-6.278,-6.278,-6.278,-6.278,-6.278,-6.278,-6.278,-6.278,0.0,0.0,0.0,0.0,0.0,0.0,0.0,0.0,0.0,0.0,0.0,0.0,0.0,0.0,0.0,0.0,0.0,0.0,0.0,0.0,-5.4091,-5.4686,-5.4909,-5.5166,-5.5495,-5.5492,-5.6462,-5.8518,-5.8496,-5.9053,-6.0136,-5.8391,-5.6927,-5.5733,-5.446,-5.3624,-5.3203,-5.3203,-5.3203,-5.3203,0.0,0.0,0.0,0.0,0.0,0.0,0.0,0.0,0.0,0.0,0.0,0.0,0.0,0.0,0.0,-5.4289,-5.4069,-5.4509,-5.5097,-5.7042,-5.8841,-5.84,0.0,0.0,0.0,0.0,0.0,0.0,0.0,0.0,0.0,0.0,0.0,0.0,0.0,0.0,0.0,0.0,0.0,0.0,0.0,0.0,0.0,0.0,0.0,0.0,0.0,0.0,0.0,0.0,-6.1047,-6.1047,-6.0323,-5.9909,-5.9909,-5.9323,-5.9611,-6.0915,-6.1443,-6.2059,-6.278,-6.278,-6.278,-6.278,-6.278,-6.278,-6.278,-6.278,-6.278,-6.278,-6.278,-6.278,-6.278,-6.278,-6.278,-6.278,0.0,0.0,0.0,0.0,0.0,0.0,0.0,0.0,0.0,0.0,0.0,0.0,0.0,0.0,0.0,0.0,0.0,0.0,0.0,0.0,-5.3831,-5.3868,-5.4611,-5.5726,-5.7266,-5.72,-5.791,-5.9501,-5.9366,-5.9371,-5.9467,-5.9283,-5.8017,-5.5807,-5.5659,-5.4727,-5.3203,-5.3203,-5.3203,-5.3203,-5.3203,0.0,0.0,0.0,0.0,0.0,0.0,0.0,0.0,0.0,0.0,0.0,0.0,0.0,-5.5669,-5.5464,-5.495,-5.4876,-5.7116,-5.7923,-5.8253,-5.8927,-5.9832,0.0,-6.1374,-6.0272,0.0,-6.0015,0.0,0.0,0.0,0.0,0.0,0.0,0.0,0.0,0.0,0.0,0.0,0.0,0.0,0.0,0.0,0.0,0.0,0.0,0.0,0.0,0.0,0.0,0.0,-6.0289,-5.9495,-5.9081,-5.9081,-5.9047,-5.9611,-6.0879,-6.0974,-6.1604,-6.278,-6.278,-6.278,-6.278,-6.278,-6.278,-6.278,-6.278,-6.278,-6.278,-6.278,-6.278,-6.278,-6.278,-6.278,-6.278,0.0,0.0,0.0,0.0,0.0,0.0,0.0,0.0,0.0,0.0,0.0,0.0,0.0,0.0,0.0,0.0,0.0,0.0,0.0,0.0,-5.4017,-5.4537,-5.5354,-5.6057,-5.6611,-5.8021,-5.9981,-6.2546,-6.1934,-6.1232,-6.0359,-5.8201,-5.6741,-5.5802,-5.4269,-5.3723,-5.3922,-5.3472,-5.3545,-5.3922,-5.3387,-5.3203,0.0,0.0,0.0,0.0,0.0,0.0,0.0,0.0,-5.4326,-5.5023,0.0,0.0,-5.6161,-5.5133,-5.462,-5.4583,-5.55,-5.6492,-5.7336,-5.7629,-5.8671,0.0,0.0,-6.152,-6.1544,-6.1917,-6.202,0.0,0.0,0.0,0.0,0.0,0.0,0.0,0.0,0.0,0.0,0.0,0.0,0.0,0.0,0.0,0.0,0.0,0.0,0.0,0.0,0.0,0.0,-5.9461,-5.8737,-5.8323,-5.8323,-5.7874,-5.83,-5.9668,-6.0487,-6.1379,-6.2219,-6.2105,-6.2034,-6.2034,-6.152,-6.13,-6.1374,-6.1851,-6.2034,-6.2108,-6.2622,-6.2511,-6.2034,-6.2034,-6.2034,-6.2034,0.0,0.0,0.0,0.0,0.0,0.0,0.0,0.0,0.0,0.0,0.0,0.0,0.0,0.0,0.0,0.0,0.0,0.0,-5.3794,-5.3794,-5.3943,-5.424,-5.5018,-5.5646,-5.6105,-5.8422,-6.0785,-6.3185,-6.2866,-6.1818,-6.0115,-5.747,-5.6113,-5.5802,-5.4101,-5.3886,-5.473,-5.397,-5.3949,-5.4363,-5.3812,-5.3592,0.0,0.0,0.0,0.0,0.0,0.0,0.0,0.0,-5.4142,0.0,0.0,0.0,0.0,0.0,-5.517,-5.5053,-5.4605,-5.5313,-5.6154,-5.6154,0.0,0.0,-6.0845,-6.1722,-6.2344,-6.3264,-6.2645,0.0,0.0,0.0,0.0,0.0,0.0,0.0,0.0,0.0,0.0,0.0,0.0,0.0,0.0,0.0,0.0,0.0,0.0,0.0,0.0,0.0,0.0,0.0,-5.815,-5.7805,-5.7564,-5.7047,-5.7309,-5.8244,-5.9567,-6.0626,-6.1498,-6.1131,-6.1043,-6.119,-6.0639,-6.0419,-6.0456,-6.1263,-6.1594,-6.163,-6.1924,-6.1704,-6.1227,-6.1227,-6.1227,-6.1263,0.0,0.0,0.0,0.0,0.0,0.0,0.0,0.0,0.0,0.0,0.0,0.0,0.0,0.0,0.0,0.0,0.0,0.0,-5.3794,-5.3794,-5.346,-5.2642,-5.3327,-5.4437,-5.6031,-5.8348,-5.9981,-6.0817,-6.1606,-6.0757,-5.8393,-5.7413,-5.6558,-5.5807,-5.564,-5.5596,-5.5537,-5.473,-5.4399,-5.4436,-5.4399,-5.4399,-5.4399,0.0,0.0,0.0,0.0,0.0,0.0,0.0,-5.3849,-5.3628,0.0,0.0,0.0,0.0,-5.6785,-5.6488,-5.5099,-5.4725,-5.481,0.0,0.0,0.0,-6.0105,-6.0621,-6.1323,-6.3867,0.0,0.0,0.0,0.0,0.0,0.0,0.0,0.0,0.0,0.0,0.0,0.0,0.0,0.0,0.0,0.0,0.0,0.0,0.0,0.0,0.0,0.0,0.0,0.0,-5.7874,-5.7529,-5.6805,-5.6771,-5.6771,-5.6804,-5.7982,-5.9335,-6.0675,-5.9931,-5.9914,-6.0382,-6.0382,-6.0382,-6.0456,-6.1263,-6.1557,-6.152,-6.0713,-6.0419,-6.0382,-6.0382,-6.0382,-6.0493,0.0,0.0,0.0,0.0,0.0,0.0,0.0,0.0,0.0,0.0,0.0,0.0,0.0,0.0,0.0,0.0,0.0,0.0,-5.3794,-5.3794,-5.3683,-5.346,-5.4201,-5.457,-5.4417,-5.6212,-5.8671,-6.1795,-6.1357,-6.0248,-5.8428,-5.6325,-5.5834,-5.6595,-5.5481,-5.5506,-5.6345,-5.5037,-5.5089,-5.6014,-5.4876,-5.473,-5.5244,0.0,0.0,0.0,0.0,0.0,0.0,0.0,0.0,0.0,0.0,0.0,0.0,-5.6198,-5.6345,-5.6447,-5.492,-5.4646,0.0,0.0,0.0,0.0,0.0,0.0,0.0,0.0,0.0,0.0,0.0,0.0,0.0,0.0,0.0,0.0,0.0,0.0,0.0,0.0,0.0,0.0,0.0,0.0,0.0,0.0,0.0,0.0,0.0,0.0,0.0,0.0,-5.6598,-5.6184,-5.5977,-5.546,-5.546,-5.5943,-5.623,-5.7355,-5.9235,-5.9278,-5.9432,-5.9515,-5.8951,-5.8694,-5.8767,-5.9575,-6.0272,-6.075,-6.0493,-6.0052,-5.9551,-5.9551,-5.9551,-5.9661,0.0,0.0,0.0,0.0,0.0,0.0,0.0,0.0,0.0,0.0,-5.3794,0.0,0.0,0.0,0.0,0.0,0.0,0.0,0.0,-5.3794,-5.3794,-5.3794,-5.4238,-5.4514,-5.464,-5.5919,-5.7624,-5.9789,-5.9205,-5.811,-5.6504,-5.5918,-5.6107,-5.7,-5.7317,-5.7398,-5.7226,-5.6632,-5.6559,-5.6748,-5.6088,-5.6124,-5.6528,0.0,0.0,0.0,0.0,0.0,0.0,0.0,0.0,0.0,0.0,0.0,0.0,-5.6088,-5.6026,-5.5856,-5.528,0.0,0.0,0.0,0.0,0.0,0.0,0.0,0.0,0.0,0.0,0.0,0.0,0.0,0.0,0.0,0.0,0.0,0.0,0.0,0.0,0.0,0.0,0.0,0.0,0.0,0.0,0.0,0.0,0.0,0.0,0.0,0.0,0.0,-5.5874,-5.546,-5.5184,-5.4736,-5.4736,-5.5184,-5.5553,-5.644,-5.7695,-5.817,-5.8481,-5.8694,-5.8217,-5.818,-5.851,-5.8657,-5.9208,-5.9905,-5.9575,-5.9171,-5.8731,-5.8731,-5.8731,-5.8841,0.0,0.0,0.0,0.0,0.0,0.0,0.0,0.0,0.0,0.0,-5.3794,-5.3794,0.0,0.0,0.0,0.0,0.0,0.0,0.0,0.0,-5.3831,-5.3905,-5.394,-5.4642,-5.6088,-5.6755,-5.6698,-5.5882,-5.6031,-5.5229,-5.3665,-5.596,-5.7074,-5.7368,-6.016,-6.0186,-5.8143,-5.8657,-5.807,-5.6859,-5.7519,-5.7923,-5.8107,-5.8033,0.0,0.0,0.0,0.0,0.0,0.0,0.0,0.0,-5.4179,0.0,-5.3717,-5.5874,-5.5663,-5.4905,0.0,0.0,0.0,0.0,0.0,0.0,0.0,0.0,0.0,0.0,0.0,0.0,0.0,0.0,0.0,0.0,0.0,0.0,0.0,0.0,0.0,0.0,0.0,0.0,0.0,0.0,0.0,0.0,0.0,0.0,0.0,0.0,0.0,0.0,-5.5497,-5.5184,-5.4529,-5.4494,-5.4494,0.0,-5.5716,-5.6303,-5.633,-5.6912,-5.7474,-5.7997,-5.7997,-5.84,-5.9038,-5.829,-5.8437,-5.9001,-5.829,-5.7997,-5.7997,-5.7997,-5.7997,-5.8107,0.0,0.0,0.0,0.0,0.0,0.0,0.0,0.0,0.0,0.0,0.0,0.0,0.0,0.0,0.0,0.0,0.0,0.0,0.0,0.0,-5.4091,-5.4723,-5.5372,-5.5909,-5.6243,-5.576,-5.5053,-5.4215,-5.5475,-5.5525,-5.4458,-5.6245,-5.773,-5.8892,-5.9592,-5.9522,-5.8817,-5.7116,-5.6528,-5.6748,-5.6308,-5.7262,-5.8877,-5.8253,-5.7886,0.0,0.0,0.0,0.0,0.0,0.0,0.0,-5.4363,-5.4289,-5.4151,-5.4246,-5.4471,-5.4652,0.0,0.0,0.0,0.0,0.0,0.0,0.0,0.0,0.0,0.0,0.0,0.0,0.0,0.0,0.0,0.0,0.0,0.0,0.0,0.0,0.0,0.0,0.0,0.0,0.0,0.0,0.0,0.0,0.0,0.0,0.0,0.0,0.0,-5.4736,-5.4736,-5.4667,-5.4494,-5.4494,-5.4494,0.0,-5.5716,-5.6303,-5.633,-5.7351,-5.7867,-5.7997,-5.7997,-5.8107,-5.8253,-5.807,-5.8107,-5.8253,-5.807,-5.7997,-5.7997,-5.7997,-5.7997,-5.8107,0.0,0.0,0.0,0.0,0.0,0.0,0.0,0.0,0.0,0.0,0.0,0.0,0.0,0.0,0.0,0.0,0.0,0.0,0.0,0.0,0.0,-5.5577,-5.6803,-5.71,-5.632,-5.5837,-5.4998,-5.3676,-5.4588,-5.4714,-5.4183,-5.5744,-5.7523,-5.9407,-5.9729,-5.9205,-5.7973,-5.7116,-5.6528,-5.6271,-5.6602,-5.774,-5.9111,-5.8327,-5.7776,-5.7336,-5.6528,0.0,0.0,0.0,0.0,0.0,0.0,0.0,-5.3366,-5.3857,-5.3543,-5.338,0.0,0.0,0.0,0.0,0.0,0.0,0.0,0.0,0.0,0.0,0.0,0.0,0.0,0.0,0.0,0.0,0.0,0.0,0.0,0.0,0.0,0.0,0.0,0.0,0.0,0.0,0.0,0.0,0.0,0.0,0.0,-5.4701,-5.4356,-5.3977,-5.3977,-5.3804,-5.3425,-5.3425,-5.3425,-5.3425,-5.4974,-5.6204,-5.7116,-5.7726,-5.7997,-5.7997,-5.7997,-5.7997,-5.7997,-5.7997,-5.7997,-5.7997,-5.7997,-5.7997,-5.7997,-5.7997,-5.7997,-5.807,0.0,0.0,0.0,0.0,0.0,0.0,0.0,0.0,0.0,0.0,0.0,0.0,0.0,0.0,0.0,0.0,0.0,0.0,0.0,0.0,0.0,0.0,-5.7583,-5.7732,-5.6543,-5.6209,-5.5389,-5.3918,-5.3848,-5.392,-5.4166,-5.5486,-5.7243,-5.9407,-5.9829,-5.8827,-5.6822,-5.7079,-5.6308,-5.5119,-5.6565,-5.774,-5.851,-5.785,-5.7152,-5.6528,-5.5831,-5.55,-5.539,-5.5559,0.0,0.0,0.0,0.0,-5.2433,-5.3602,-5.2737,-5.1957,0.0,0.0,0.0,0.0,0.0,0.0,0.0,0.0,0.0,0.0,0.0,0.0,0.0,0.0,0.0,0.0,0.0,0.0,0.0,0.0,0.0,0.0,0.0,0.0,0.0,0.0,0.0,0.0,0.0,0.0,-5.4529,-5.4391,-5.4046,-5.3425,-5.3287,-5.2873,-5.2188,-5.2188,-5.2188,-5.2218,-5.4048,-5.583,-5.7593,-5.7593,-5.774,-5.7997,-5.7997,-5.7997,-5.7997,-5.7997,-5.7997,-5.7997,-5.7997,-5.7997,-5.7997,-5.7997,-5.7997,-5.7997,0.0,0.0,0.0,0.0,0.0,0.0,0.0,0.0,0.0,0.0,0.0,0.0,0.0,0.0,0.0,0.0,0.0,0.0,0.0,0.0,0.0,-5.6246,-5.6506,-5.684,-5.7323,-5.5912,-5.5038,-5.4852,-5.4146,-5.483,0.0,-5.7006,-5.7913,-5.9371,-5.8745,-5.7867,-5.6675,-5.4693,-5.3298,-5.2564,-5.3482,-5.473,-5.6051,-5.5941,-5.5831,-5.5757,-5.5647,-5.5133,-5.4656,-5.5354,-5.5596,0.0,0.0,0.0,-5.2892,-5.2186,-5.1736,-5.1393,0.0,0.0,0.0,0.0,0.0,0.0,0.0,0.0,0.0,0.0,0.0,0.0,0.0,0.0,0.0,0.0,0.0,0.0,0.0,0.0,0.0,0.0,0.0,0.0,0.0,0.0,0.0,0.0,0.0,0.0,-5.4529,-5.3908,-5.3494,-5.3391,-5.2735,-5.2321,-5.2188,-5.2188,-5.2188,-5.2218,-5.3462,-5.4722,-5.5904,-5.5904,-5.6675,-5.7997,-5.7997,-5.7997,-5.7997,-5.7997,-5.7997,-5.7997,-5.7997,-5.7997,-5.7997,-5.7997,-5.7997,-5.7997,0.0,0.0,0.0,0.0,0.0,0.0,0.0,0.0,0.0,0.0,0.0,0.0,0.0,0.0,0.0,0.0,0.0,0.0,0.0,0.0,0.0,-5.554,-5.606,-5.6246,-5.6097,-5.4946,-5.4351,-5.4351,0.0,0.0,0.0,-5.8434,-5.9376,-6.0659,-5.8883,-5.7602,-5.6638,-5.4194,-5.2747,-5.2013,-5.238,-5.4289,-5.6675,-5.4436,-5.4693,-5.5978,-5.3702,-5.2968,-5.3188,-5.3995,-5.4546,-5.4913,-5.4913,0.0,0.0,0.0,-5.0785,0.0,0.0,0.0,0.0,0.0,0.0,0.0,0.0,0.0,0.0,0.0,0.0,0.0,0.0,0.0,0.0,0.0,0.0,0.0,0.0,0.0,0.0,0.0,0.0,0.0,0.0,0.0,0.0,0.0,0.0,-5.3873,-5.3873,-5.3149,-5.2563,-5.2114,-5.177,-5.139,-5.0976,-5.0976,-5.15,-5.2529,-5.3034,-5.4073,-5.5596,-5.5596,-5.6,-5.6638,-5.6638,-5.6638,-5.6638,-5.6638,-5.6638,-5.6675,-5.7152,-5.7336,-5.7373,-5.7813,-5.7997,-5.7997,0.0,0.0,0.0,0.0,0.0,0.0,0.0,0.0,0.0,0.0,0.0,0.0,0.0,0.0,0.0,0.0,0.0,0.0,0.0,0.0,0.0,-5.4983,-5.5429,-5.5466,-5.502,-5.4017,-5.3608,0.0,0.0,0.0,-5.9202,-5.993,-6.1408,0.0,-6.0501,-5.857,-5.724,-5.462,-5.3151,-5.2564,-5.216,-5.3775,-5.6235,-5.4032,-5.4583,-5.6088,-5.2858,-5.1977,-5.2417,-5.3004,-5.3592,-5.4179,-5.4583,-5.3995,0.0,0.0,0.0,0.0,0.0,0.0,0.0,0.0,0.0,0.0,0.0,0.0,0.0,0.0,0.0,0.0,0.0,0.0,0.0,0.0,0.0,0.0,0.0,0.0,0.0,0.0,0.0,0.0,0.0,0.0,0.0,0.0,0.0,-5.3322,-5.3115,-5.2356,-5.1671,-5.1149,-5.0942,-5.0562,-5.0011,-5.012,-5.0947,-5.2483,-5.2609,-5.3495,-5.503,-5.503,-5.5015,-5.5073,-5.5434,-5.5596,-5.5596,-5.5655,-5.5743,-5.5963,-5.6632,-5.7,-5.7234,-5.7867,-5.8088,-5.8088,0.0,0.0,0.0,0.0,0.0,0.0,0.0,0.0,0.0,0.0,0.0,0.0,-5.3794,-5.3794,-5.3497,-5.2717,-5.2679,0.0,0.0,0.0,0.0,-5.4983,-5.4314,0.0,-5.4983,-5.346,-5.3051,0.0,0.0,0.0,-6.1054,-6.1624,-6.4055,-6.7802,-6.4316,-6.1397,-5.8854,0.0,0.0,0.0,-5.2601,-5.2123,-5.2601,-5.5464,-5.6198,-5.5559,-5.4546,-5.3739,-5.313,-5.3188,-5.3203,-5.3555,-5.506,-5.4473,-5.298,0.0,0.0,0.0,0.0,0.0,0.0,0.0,0.0,0.0,0.0,0.0,0.0,0.0,0.0,0.0,0.0,0.0,0.0,0.0,0.0,0.0,0.0,0.0,0.0,0.0,0.0,0.0,0.0,0.0,0.0,0.0,0.0,-5.308,-5.2291,-5.1563,-5.1149,-5.1114,-5.0424,-5.0045,-5.0011,-5.0509,-5.1044,-5.1672,-5.2162,-5.2753,-5.3408,-5.3408,-5.347,-5.3682,-5.5021,-5.5596,-5.5596,-5.572,-5.6176,-5.6771,-5.6992,-5.753,-5.8142,-5.8327,-5.8371,-5.8371,0.0,0.0,0.0,0.0,0.0,0.0,0.0,0.0,0.0,0.0,0.0,0.0,0.0,-5.3794,-5.3497,-5.2679,-5.2605,0.0,0.0,0.0,0.0,-5.424,-5.4463,-5.4463,-5.424,-5.3162,0.0,0.0,0.0,-5.45,-5.8884,-6.0418,-6.2613,-6.5086,-6.3542,-6.2169,-6.0672,-5.6279,0.0,0.0,0.0,-5.2931,-5.4326,-5.4436,-5.5611,0.0,0.0,0.0,0.0,-5.2837,-5.2527,-5.1867,-5.2931,-5.2894,-5.2029,-4.9957,-4.8579,0.0,0.0,0.0,0.0,0.0,0.0,0.0,0.0,0.0,0.0,0.0,0.0,0.0,0.0,0.0,0.0,0.0,0.0,0.0,0.0,0.0,0.0,0.0,0.0,0.0,0.0,0.0,0.0,0.0,0.0,0.0,-5.1528,-5.0804,-5.039,-5.039,-5.0149,-5.0149,-5.0509,-5.0741,-5.1337,-5.2172,-5.245,-5.2886,-5.342,-5.342,-5.344,-5.3518,-5.4027,-5.4264,-5.4264,-5.4285,-5.4469,-5.4723,-5.5323,-5.5729,-5.6076,-5.719,-5.758,-5.7654,0.0,0.0,0.0,0.0,0.0,0.0,0.0,0.0,0.0,-5.3794,0.0,0.0,0.0,0.0,-5.3385,-5.2308,-5.2197,-5.2197,-5.2197,-5.294,-5.3534,-5.3794,-5.4574,-5.4611,-5.3831,0.0,0.0,0.0,0.0,0.0,0.0,-5.9464,-6.1624,-6.3799,-6.2338,-6.2217,0.0,0.0,0.0,-5.473,0.0,0.0,-5.5207,0.0,0.0,0.0,0.0,0.0,0.0,0.0,0.0,0.0,-5.2234,-5.1909,-5.0873,-4.8596,-4.8151,0.0,-4.8673,0.0,0.0,0.0,0.0,0.0,0.0,0.0,0.0,0.0,0.0,0.0,0.0,0.0,0.0,0.0,0.0,0.0,0.0,0.0,0.0,0.0,0.0,0.0,0.0,0.0,0.0,0.0,0.0,0.0,-5.0769,-5.0287,-5.0011,-5.0011,-5.0171,-5.0474,-5.0822,-5.1276,-5.1838,-5.2585,-5.2827,-5.3178,-5.3578,-5.3578,-5.3598,-5.358,-5.358,-5.3561,-5.3481,-5.3558,-5.3706,-5.3961,-5.4576,-5.4946,-5.5295,-5.6409,-5.6837,-5.6911,0.0,0.0,0.0,0.0,0.0,0.0,0.0,0.0,-5.3794,-5.3794,0.0,0.0,0.0,0.0,0.0,-5.1602,-5.1491,-5.1491,-5.1454,-5.2197,-5.2977,-5.3794,0.0,0.0,0.0,0.0,0.0,0.0,0.0,0.0,0.0,0.0,-6.1389,-6.447,-6.1032,-6.1661,-6.5064,0.0,-6.0199,-6.0015,0.0,-5.506,-5.4876,0.0,0.0,0.0,-5.6822,-5.6271,0.0,-5.3812,0.0,0.0,0.0,0.0,-4.9633,-4.8061,-4.7984,0.0,0.0,0.0,0.0,0.0,0.0,0.0,0.0,0.0,0.0,0.0,0.0,0.0,0.0,0.0,0.0,0.0,0.0,0.0,0.0,0.0,0.0,0.0,0.0,0.0,0.0,0.0,0.0,0.0,0.0,-5.0769,-5.0045,-5.0011,-5.0011,-5.0011,-5.0605,-5.0911,-5.0938,-5.21,-5.2718,-5.274,-5.3261,-5.3578,-5.3714,-5.3714,-5.3735,-5.3794,-5.3794,-5.3678,-5.3501,-5.3637,-5.4078,-5.4683,-5.4885,-5.5387,-5.6068,-5.6206,-5.6246,-5.6283,0.0,0.0,0.0,0.0,0.0,0.0,-5.3794,-5.3794,-5.3794,0.0,0.0,0.0,-5.3794,-5.4314,-5.424,-5.3237,-5.3683,-5.3497,-5.2345,-5.3014,-5.3571,-5.3794,-5.4574,-5.4611,-5.3831,0.0,0.0,0.0,0.0,0.0,0.0,0.0,0.0,0.0,-5.9775,-5.9825,-6.0098,-5.6116,0.0,0.0,-5.4289,-5.4252,0.0,0.0,0.0,0.0,0.0,-5.5904,-5.484,0.0,-5.4656,-5.3004,0.0,0.0,0.0,0.0,0.0,0.0,-4.6688,0.0,0.0,0.0,0.0,0.0,0.0,0.0,0.0,0.0,0.0,0.0,0.0,0.0,0.0,0.0,0.0,0.0,0.0,0.0,0.0,0.0,0.0,0.0,0.0,0.0,0.0,0.0,-5.046,-5.0414,-5.0291,-5.0291,-5.0291,-5.0291,-5.083,-5.1286,-5.1665,-5.245,-5.3014,-5.342,-5.362,-5.3754,-5.3774,-5.3774,-5.3793,-5.3794,-5.3794,-5.3756,-5.3717,-5.3774,-5.3866,-5.4032,-5.409,-5.4258,-5.4535,-5.5112,-5.5354,-5.5466,0.0,0.0,0.0,0.0,0.0,-5.4203,-5.3868,-5.3794,-5.3794,0.0,0.0,0.0,-5.424,-5.5354,-5.5466,-5.3943,-5.3943,-5.346,-5.2197,-5.2531,-5.294,-5.3274,-5.476,-5.5169,-5.4314,0.0,0.0,0.0,0.0,0.0,0.0,0.0,0.0,0.0,0.0,0.0,0.0,0.0,0.0,0.0,-5.5354,0.0,0.0,-5.6895,-5.6638,0.0,0.0,0.0,-5.5023,-5.5978,-5.5133,0.0,0.0,0.0,0.0,0.0,0.0,0.0,-4.7546,0.0,0.0,0.0,0.0,0.0,0.0,-5.0183,0.0,0.0,0.0,0.0,0.0,0.0,0.0,0.0,0.0,0.0,0.0,0.0,0.0,0.0,0.0,0.0,0.0,0.0,0.0,-5.0291,-5.0285,-5.0313,-5.0397,-5.0341,-5.0341,-5.0397,-5.0991,-5.1551,-5.203,-5.2688,-5.324,-5.3735,-5.3793,-5.3608,-5.3311,-5.3645,-5.3608,-5.3311,-5.3645,-5.3794,-5.3794,-5.3794,-5.3794,-5.3794,-5.3794,-5.3794,-5.3868,-5.4351,-5.45,-5.4574,0.0,0.0,-5.3831,-5.3943,-5.4537,-5.4797,-5.4166,-5.4017,-5.398,0.0,-5.346,-5.3608,-5.5131,-5.6617,-5.6617,-5.4426,-5.3385,-5.2531,-5.1714,-5.1491,-5.1751,-5.2568,-5.4797,-5.5652,-5.4871,-5.6506,0.0,0.0,0.0,0.0,0.0,0.0,0.0,0.0,0.0,0.0,0.0,0.0,0.0,-5.5412,-5.7556,-5.7813,0.0,0.0,-5.8143,-5.5831,-5.6528,-5.6271,-5.5574,-5.55,-5.506,0.0,0.0,0.0,0.0,0.0,-5.009,0.0,0.0,-4.917,-5.008,0.0,0.0,0.0,-5.1016,-5.0119,0.0,0.0,0.0,0.0,0.0,0.0,0.0,0.0,0.0,0.0,0.0,0.0,0.0,0.0,0.0,0.0,0.0,0.0,-4.9985,-5.0126,-5.0223,-5.0293,-5.0321,-5.0278,-5.0285,-5.0425,-5.114,-5.1714,-5.2136,-5.2806,-5.3383,-5.3794,-5.3794,-5.3423,-5.2754,-5.346,-5.3423,-5.2791,-5.3497,-5.3757,-5.3683,-5.3757,-5.3794,-5.3794,-5.3794,-5.3794,-5.3794,-5.3794,-5.3794,-5.3794,0.0,0.0,-5.4017,-5.4648,-5.4909,-5.5206,-5.5726,-5.5243,-5.502,-5.5726,-5.5689,-5.5949,-5.6915,-5.7323,-5.7323,-5.684,-5.5391,-5.4203,-5.3385,-5.2122,-5.1751,-5.2568,-5.3683,-5.4203,-5.4054,-5.5689,-5.5652,0.0,0.0,0.0,0.0,0.0,0.0,0.0,0.0,0.0,0.0,0.0,0.0,-5.2835,-5.3314,0.0,-5.7666,-5.6859,-5.6528,-5.6602,-5.6748,-5.6271,-5.55,-5.484,-5.495,-5.495,0.0,0.0,0.0,0.0,0.0,0.0,0.0,0.0,0.0,0.0,0.0,0.0,-4.8114,-4.8258,0.0,0.0,0.0,0.0,0.0,0.0,0.0,0.0,0.0,0.0,0.0,0.0,0.0,0.0,0.0,0.0,0.0,0.0,-4.8259,-4.839,-4.909,-4.9602,-4.9845,-5.027,-5.062,-5.0792,-5.1665,-5.2183,-5.2276,-5.3203,-5.3717,-5.3794,-5.3794,-5.372,-5.3571,-5.372,-5.372,-5.3571,-5.372,-5.3423,-5.2865,-5.3534,-5.3794,-5.3794,-5.3794,-5.3794,-5.3794,-5.3794,-5.3794,-5.3794,-5.3868,-5.4128,-5.4537,-5.4946,-5.5354,-5.58,-5.6246,-5.5949,-5.58,-5.6246,-5.6989,-5.736,-5.6952,-5.7621,-5.7435,-5.58,-5.4537,-5.3274,-5.2048,-5.1231,-5.0971,-5.1342,-5.294,-5.398,-5.4388,-5.5243,-5.5466,-5.5057,0.0,0.0,0.0,0.0,0.0,0.0,0.0,0.0,0.0,0.0,-5.1119,-5.1146,-5.4018,0.0,-5.796,-5.7556,-5.7152,-5.6748,-5.6345,-5.5941,-5.5574,-5.5611,-5.5611,0.0,0.0,-5.3739,-5.3879,0.0,-5.1522,-5.2289,0.0,0.0,0.0,-4.9947,0.0,0.0,0.0,-4.801,0.0,0.0,0.0,0.0,0.0,0.0,0.0,0.0,0.0,0.0,0.0,0.0,0.0,0.0,0.0,0.0,0.0,0.0,-4.8417,-4.8215,-4.8939,-4.9501,-4.9679,-4.9932,-5.0249,-5.0645,-5.1117,-5.1605,-5.2113,-5.2999,-5.358,-5.3794,-5.3794,-5.3385,-5.2605,-5.3014,-5.2754,-5.1974,-5.2419,-5.2382,-5.2048,-5.2865,-5.2977,-5.2679,-5.3497,-5.3794,-5.3794,-5.3794,-5.3794,-5.3794,-5.3905,-5.4314,-5.476,-5.476,-5.5614,-5.632,-5.632,-5.632,-5.632,-5.632,-5.7583,-5.8029,-5.6878,-5.7658,-5.7435,-5.5391,-5.3608,-5.2234,-5.1342,-5.0599,-5.0302,-5.0562,-5.2494,-5.4017,-5.4983,-5.502,-5.5206,-5.5577,0.0,0.0,0.0,0.0,0.0,0.0,0.0,0.0,0.0,0.0,0.0,-5.1094,0.0,-5.7125,-5.6969,-5.823,-5.774,-5.6271,-5.5611,-5.5574,-5.5868,-5.6051,0.0,-5.5647,-5.4509,-5.484,0.0,0.0,0.0,0.0,0.0,0.0,0.0,0.0,0.0,-4.9045,0.0,0.0,0.0,0.0,0.0,0.0,0.0,0.0,0.0,0.0,0.0,0.0,0.0,0.0,0.0,0.0,0.0,0.0,0.0,0.0,-4.8625,-4.8057,-4.8653,-4.9073,-4.9258,-4.9346,-4.9687,-5.0385,-5.0581,-5.1144,-5.2123,-5.2867,-5.3424,-5.3794,-5.3794,-5.3125,-5.1899,-5.2531,-5.2085,-5.0859,-5.1379,-5.1528,-5.1454,-5.2085,-5.1899,-5.1342,-5.3125,-5.372,-5.3608,-5.3757,-5.3794,-5.3794,-5.3683,-5.3868,-5.3943,-5.3943,-5.5243,-5.632,-5.632,-5.632,-5.632,-5.632,-5.71,-5.7843,-5.8364,-5.7323,0.0,-6.0147,0.0,0.0,-5.5466,0.0,-5.0785,-5.2271,-5.2605,-5.346,-5.4983,-5.502,-5.4351,-5.3014,0.0,0.0,0.0,0.0,0.0,0.0,-5.1008,0.0,0.0,0.0,-5.2345,0.0,-5.4172,-5.3531,0.0,-5.5941,-5.6088,-5.4656,-5.4583,-5.5464,-5.6345,0.0,-5.4987,-5.6271,0.0,-5.4363,-5.5119,0.0,0.0,0.0,0.0,0.0,0.0,0.0,-5.1942,0.0,0.0,0.0,0.0,0.0,0.0,0.0,0.0,0.0,0.0,0.0,0.0,0.0,0.0,0.0,0.0,0.0,0.0,0.0,0.0,0.0,-4.6995,-4.6355,-4.689,-4.7396,-4.7643,-4.8544,-4.9465,-5.0388,-5.1252,-5.2129,-5.2968,-5.3467,-5.3737,-5.3794,-5.3794,-5.372,-5.3534,-5.3608,-5.3571,-5.3348,-5.2717,-5.2048,-5.1416,-5.1491,-5.1045,-5.0488,-5.2865,-5.3348,-5.2828,-5.3534,-5.3794,-5.3794,-5.2234,-5.3162,-5.3645,-5.32,-5.4091,-5.502,-5.5466,-5.6357,-5.6989,-5.6989,-5.7286,0.0,0.0,0.0,0.0,0.0,0.0,-5.3831,0.0,0.0,-5.1156,-5.1862,-5.1899,-5.2679,-5.4277,-5.3868,-5.3274,-5.2605,-5.1639,0.0,0.0,0.0,0.0,0.0,-5.1454,0.0,-5.2808,0.0,0.0,0.0,0.0,0.0,0.0,-5.4795,-5.5434,-5.4399,-5.4399,-5.484,-5.5244,0.0,-5.4583,0.0,0.0,0.0,0.0,0.0,0.0,0.0,0.0,0.0,0.0,0.0,0.0,0.0,-4.8051,0.0,-4.681,0.0,0.0,0.0,0.0,0.0,0.0,0.0,0.0,0.0,0.0,0.0,0.0,0.0,0.0,0.0,0.0,0.0,0.0,0.0,0.0,-4.7397,-4.7782,-4.8235,-4.8875,-4.9793,-5.0268,-5.1032,-5.2079,-5.2771,-5.3348,-5.3794,-5.3348,-5.2865,-5.2382,-5.1899,-5.1416,-5.0933,-5.0599,-5.0265,-5.0005,-5.045,-5.0153,-4.9596,-5.1639,-5.2494,-5.2717,-5.3497,-5.3497,-5.3088,-5.0896,-5.2197,-5.2977,0.0,0.0,0.0,0.0,0.0,0.0,0.0,0.0,0.0,-5.7769,-5.71,0.0,0.0,-5.632,-5.5131,0.0,0.0,-5.2048,0.0,0.0,0.0,0.0,-5.2902,-5.2159,-5.1899,-5.0488,0.0,0.0,0.0,0.0,0.0,0.0,-5.2679,-5.416,0.0,0.0,-5.2648,-5.184,-5.1024,-5.0645,-5.3624,-5.4464,-5.4069,-5.4069,-5.4216,-5.4363,-5.4142,-5.4216,0.0,-5.4142,0.0,0.0,0.0,0.0,0.0,-4.9868,0.0,0.0,0.0,0.0,0.0,0.0,0.0,0.0,0.0,0.0,0.0,0.0,0.0,0.0,0.0,0.0,0.0,0.0,0.0,0.0,0.0,0.0,0.0,0.0,0.0,0.0,0.0,-4.7081,-4.7195,-4.7559,-4.7806,-4.8351,-4.9188,-4.976,-5.0471,-5.1379,-5.2197,-5.2791,-5.3162,-5.2568,-5.1974,-5.1379,-5.0748,-5.0153,-4.9559,-4.9336,-4.9224,-4.9262,-4.9633,-4.9447,-4.9039,-5.0488,-5.1416,-5.2011,-5.2828,-5.2902,-5.2568,-5.0079,-5.0896,0.0,0.0,0.0,0.0,0.0,0.0,0.0,0.0,0.0,0.0,0.0,0.0,0.0,0.0,0.0,-5.8066,-5.9531,0.0,-5.3645,0.0,0.0,-5.2531,0.0,0.0,-5.1045,-5.019,0.0,0.0,0.0,0.0,0.0,0.0,0.0,-5.2605,-5.2717,-5.3404,-5.5112,-5.7006,-5.3812,-5.2436,-5.2205,0.0,-5.2601,-5.3261,-5.3261,0.0,0.0,-5.3518,-5.3775,0.0,0.0,0.0,0.0,0.0,0.0,0.0,0.0,0.0,0.0,-4.9768,0.0,0.0,0.0,0.0,-4.8499,0.0,0.0,0.0,0.0,0.0,0.0,-4.9069,0.0,0.0,0.0,0.0,0.0,0.0,0.0,0.0,0.0,0.0,0.0,-4.6284,-4.6249,-4.6249,-4.6274,-4.7107,-4.7989,-4.8814,-5.0448,-5.1361,-5.1416,-5.2197,-5.2234,-5.1491,-5.1454,-5.1416,-5.1416,-5.1379,-5.1342,-5.1268,-5.045,-5.0079,-5.0005,-4.9262,-4.8927,-4.9002,-4.9819,-5.0153,-5.0302,-5.1156,-5.1936,-5.2494,0.0,-5.0822,0.0,0.0,0.0,0.0,0.0,-5.4314,0.0,0.0,0.0,0.0,0.0,-5.8772,-5.8846,0.0,0.0,-5.8066,-5.7546,-5.5429,0.0,0.0,0.0,-5.3608,0.0,0.0,0.0,0.0,0.0,0.0,0.0,0.0,0.0,0.0,0.0,-5.3162,0.0,0.0,0.0,0.0,0.0,-5.1896,-5.241,0.0,0.0,-5.2417,-5.2417,-5.2931,0.0,-5.2674,-5.2931,-5.3555,-5.3277,-5.2974,-5.2649,-5.2454,-5.2365,0.0,0.0,0.0,-5.4225,-5.1167,0.0,0.0,0.0,0.0,0.0,0.0,0.0,0.0,0.0,0.0,-4.9257,-4.8514,-4.9443,0.0,0.0,0.0,0.0,0.0,0.0,0.0,0.0,0.0,0.0,-4.7011,-4.6495,-4.6326,0.0,-4.727,-4.7881,-4.8457,-4.9289,-5.0005,-5.0525,-5.0822,-5.1119,-5.1379,-5.0822,-5.0562,-5.0525,-5.0005,-4.9745,-4.9745,-4.9447,-4.9299,-4.9299,-4.9002,-4.889,-4.8927,-4.9187,-4.9299,-4.9485,-5.0896,-5.1231,-5.0933,-5.0933,0.0,0.0,0.0,0.0,0.0,0.0,0.0,0.0,0.0,-5.7658,0.0,-5.9738,0.0,-5.8958,0.0,-5.9329,-5.8586,-5.7249,-5.6097,0.0,-5.6692,-5.5131,0.0,0.0,0.0,0.0,0.0,0.0,-5.1825,0.0,0.0,0.0,0.0,0.0,0.0,0.0,0.0,-5.5512,0.0,0.0,-5.1803,0.0,0.0,-5.2312,-5.1169,0.0,-5.1903,-5.2307,-5.2087,-5.216,-5.2417,-5.2716,-5.2578,-5.2257,-5.2302,-5.2472,-5.27,-5.2786,-5.4037,0.0,-5.2105,-5.1999,0.0,-4.867,0.0,0.0,0.0,0.0,0.0,0.0,0.0,0.0,-4.906,-4.9509,-4.9196,0.0,-4.659,0.0,0.0,0.0,0.0,0.0,0.0,-4.7031,-4.7362,-4.6832,-4.6578,0.0,0.0,-4.7995,-4.8287,-4.8992,-4.9447,-4.967,-4.9968,-5.0228,-5.0488,-4.993,-4.967,-4.967,-4.915,-4.889,-4.889,-4.889,-4.889,-4.889,-4.889,-4.889,-4.889,-4.889,-4.889,-4.9039,-5.0116,-5.0153,-4.9707,0.0,0.0,0.0,0.0,-5.2717,0.0,0.0,0.0,-5.7138,0.0,-5.7138,-5.8215,-5.9738,-5.9218,-5.9404,-6.0964,-6.0333,0.0,-5.8772,-5.7249,0.0,0.0,-5.5986,-5.5503,-5.6357,0.0,0.0,0.0,0.0,0.0,0.0,0.0,0.0,0.0,-5.294,0.0,-5.3905,-5.554,-5.6655,-5.708,-5.4531,-5.2121,-5.0065,-5.0597,-5.0277,-4.9667,-5.0455,-5.0765,-5.0932,-5.163,-5.141,-5.0969,-5.1805,-5.2042,-5.2018,-5.2026,-5.3326,-5.4375,-5.2937,-5.3908,-5.4816,-5.2663,0.0,0.0,0.0,0.0,-5.2091,0.0,0.0,0.0,0.0,0.0,0.0,-5.0487,-4.9363,-4.7908,-4.6285,0.0,0.0,0.0,0.0,0.0,0.0,-4.6914,-4.6405,-4.7317,-4.7051,-4.6903,0.0,0.0,-4.8287,-4.8306,-4.9436,-4.967,-4.8927,-4.967,-4.967,-4.889,-4.889,-4.889,-4.889,-4.889,-4.889,-4.889,-4.889,-4.889,-4.889,-4.889,-4.889,-4.889,-4.889,-4.889,-4.889,-4.889,-4.889,-4.9002,-5.1676,-5.1825,-5.2048,0.0,-5.2642,-5.3237,0.0,0.0,0.0,0.0,-5.8772,-5.942,-5.985,-5.9738,-5.9515,-5.9367,-5.9144,0.0,0.0,0.0,0.0,-5.8364,-5.7398,-5.6952,-5.7212,-5.6395,0.0,-5.5354,0.0,0.0,-5.5874,0.0,0.0,0.0,0.0,0.0,-5.3868,-5.4909,-5.5131,-5.4537,-5.2048,-5.0583,0.0,0.0,-4.9141,-4.8974,-4.969,-5.0409,-5.0966,-5.0504,-5.0671,-5.1077,-5.128,-5.176,-5.2109,-5.1539,-5.2924,-5.4531,-5.3621,-5.4621,-5.5539,-5.4085,-5.3099,-5.2149,0.0,0.0,0.0,0.0,0.0,0.0,0.0,0.0,0.0,0.0,0.0,0.0,0.0,0.0,0.0,-4.6996,0.0,0.0,0.0,-4.6926,-4.703,-4.7015,-4.6624,-4.6695,0.0,0.0,0.0,-4.8287,-4.8881,-4.9113,-4.889,-4.9113,-4.9113,-4.889,-4.889,-4.889,-4.889,-4.889,-4.889,-4.889,-4.889,-4.889,-4.889,-4.889,-4.889,-4.889,-4.889,-4.889,-4.889,-4.889,-4.889,-4.8927,-5.1862,0.0,0.0,-5.4166,0.0,0.0,-5.4946,0.0,0.0,-5.7992,-5.8884,0.0,-5.8884,-5.9181,-5.9181,-5.8735,-5.8698,0.0,-5.7695,0.0,0.0,-5.7658,-5.7546,-5.7658,-5.8029,-5.7583,0.0,-5.684,0.0,0.0,-5.5652,0.0,0.0,0.0,0.0,-5.2345,0.0,-5.3608,-5.3497,-5.2605,-5.0822,0.0,0.0,-4.899,-4.8787,-4.8806,-4.9178,-4.9603,-4.9972,-4.9842,-4.9898,-5.0102,-5.049,-5.0878,-5.1117,-5.0712,-5.184,-5.3097,-5.2712,-5.3807,-5.4919,-5.4256,-5.4044,-5.3712,-5.2688,-5.2542,-5.2545,0.0,0.0,0.0,0.0,0.0,0.0,0.0,0.0,0.0,0.0,0.0,0.0,0.0,0.0,0.0,0.0,-4.6786,-4.7168,-4.7109,-4.692,0.0,0.0,0.0,0.0,-4.855,-4.8785,-4.889,-4.889,-4.889,-4.889,-4.889,-4.889,-4.889,-4.889,-4.889,-4.889,-4.889,-4.889,-4.889,-4.889,-4.889,-4.889,-4.889,-4.889,-4.889,-4.889,-4.889,-4.889,-4.889,0.0,0.0,0.0,0.0,0.0,0.0,0.0,-5.6655,0.0,-5.7658,0.0,-5.8735,-5.7918,-5.8549,-5.9032,-5.9032,0.0,-5.8252,-5.6878,-5.7249,-5.7249,-5.6655,-5.7175,-5.7881,-5.8698,-5.8624,0.0,0.0,0.0,0.0,-5.4611,0.0,0.0,0.0,0.0,0.0,0.0,-5.2159,-5.1974,0.0,-5.0302,-4.9522,-4.8873,-4.884,-4.8857,-4.8873,-4.884,-4.8714,-4.8753,-4.9455,-4.9233,-4.8771,-4.9584,-4.9843,-4.9825,-4.9843,-5.0528,-5.1195,-5.1083,-5.227,-5.3497,-5.3497,-5.4535,-5.5269,-5.4165,-5.3408,-5.2995,-5.3235,-5.181,-5.1243,0.0,0.0,0.0,0.0,0.0,0.0,0.0,0.0,0.0,0.0,0.0,0.0,0.0,0.0,0.0,-4.7311,-4.7374,0.0,0.0,0.0,0.0,-4.8873,-4.889,0.0,-4.889,0.0,-4.889,-4.889,-4.889,-4.889,-4.889,-4.889,-4.889,-4.889,-4.889,-4.889,-4.889,-4.889,-4.889,-4.889,-4.889,-4.889,-4.889,-4.889,-4.889,-4.889,0.0,0.0,0.0,0.0,0.0,-5.6469,-5.6989,-5.7881,-5.8512,-5.8512,-5.9812,-6.0444,-5.9589,-6.0258,-6.0778,-6.0778,-6.011,0.0,0.0,0.0,0.0,-5.8252,-5.7769,-5.7881,-5.8698,-5.8066,-5.7323,0.0,-5.4834,-5.3683,-5.2977,0.0,0.0,0.0,0.0,0.0,-5.1416,-5.1565,0.0,-5.0265,-4.9447,-4.9039,-4.889,-4.891,-4.8873,-4.889,-4.891,-4.8855,-4.8875,-4.9023,-4.8949,-4.8875,-4.9041,-4.9524,-4.9914,-4.9301,-5.0155,-5.1194,-5.0489,-5.1027,-5.1825,-5.1825,-5.171,-5.1644,-5.1842,-5.2515,-5.2889,-5.2249,-5.315,-5.3617,-5.2037,0.0,0.0,0.0,0.0,0.0,0.0,0.0,0.0,0.0,0.0,0.0,0.0,0.0,0.0,0.0,0.0,0.0,0.0,0.0,0.0,0.0,-4.889,0.0,0.0,0.0,-4.889,-4.889,-4.889,-4.889,-4.889,-4.889,-4.889,-4.889,-4.889,-4.889,-4.889,-4.889,-4.889,-4.889,-4.889,-4.889,-4.889,-4.889,-4.889,-4.889,0.0,0.0,0.0,0.0,0.0,0.0,0.0,-5.9478,0.0,-5.8809,-5.9404,-5.9738,-5.9308,-6.0444,-6.1187,-6.1187,-6.0407,-5.9738,-5.9292,-5.8178,-5.7695,-5.8066,-5.7732,0.0,-5.8698,-5.8326,-5.7509,-5.632,-5.4611,-5.3162,-5.1936,0.0,0.0,0.0,0.0,-5.0339,0.0,0.0,0.0,-4.9447,-4.9076,-4.889,-4.889,-4.889,-4.889,-4.889,-4.889,-4.889,-4.889,-4.889,-4.889,-4.889,-4.889,-4.9187,-4.941,-4.9002,-4.9485,-5.0005,-4.9596,-5.0079,-5.0748,-5.0748,-5.0861,-5.11,-5.1343,-5.1824,-5.2114,-5.1688,-5.2417,-5.2675,-5.1146,-5.0068,0.0,0.0,0.0,0.0,0.0,0.0,0.0,0.0,0.0,0.0,0.0,0.0,0.0,0.0,0.0,0.0,0.0,0.0,0.0,0.0,0.0,0.0,0.0,0.0,0.0,-4.889,-4.889,-4.889,-4.889,-4.889,-4.889,-4.889,-4.889,-4.889,-4.889,-4.889,-4.889,-4.889,-4.889,-4.889,-4.889,-4.889,-4.889,-4.889,0.0,-5.6134,0.0,0.0,-5.7918,0.0,-5.9717,-6.063,-6.0778,-5.9664,-5.9515,-5.9515,-5.9515,-6.0815,-6.1633,-6.1484,-6.0667,-5.985,-5.9032,-5.8029,-5.7583,-5.7769,-5.7435,-5.7695,-5.8698,-5.8549,-5.7658,0.0,-5.4537,-5.2977,0.0,0.0,0.0,0.0,0.0,0.0,0.0,0.0,-4.889,-4.889,-4.889,-4.889,-4.889,-4.889,-4.889,-4.889,-4.889,-4.889,-4.889,-4.889,-4.889,-4.889,-4.889,-4.889,-4.889,-4.889,-4.889,-4.889,-4.889,-4.9373,-4.9856,-4.9856,-5.0376,-5.0859,-5.0859,-5.1008,-5.1082,-5.0896,-5.1008,-5.0972,-5.0534,-4.985,0.0,0.0,0.0,0.0,0.0,0.0,0.0,0.0,0.0,0.0,0.0,0.0,0.0,0.0,0.0,-4.727,-4.8094,-4.7915,0.0,0.0,0.0,-4.889,-4.889,0.0,-4.889,0.0,-4.889,-4.889,-4.889,-4.889,-4.889,-4.889,-4.889,-4.889,-4.889,-4.889,-4.889,-4.889,-4.889,-4.889,-4.889,-4.889,-4.889,-4.889,0.0,0.0,0.0,0.0,0.0,0.0,0.0,-6.063,-6.141,-6.2004,-6.2041,-6.2041,-6.2041,-6.2859,-6.3082,-6.2339,-6.1558,-6.0704,-5.9828,-5.8364,-5.7843,-5.8549,-5.7212,-5.7138,-5.8661,-5.7992,-5.6803,0.0,0.0,-5.2977,0.0,0.0,0.0,0.0,0.0,0.0,0.0,-4.8927,-4.889,-4.889,-4.889,-4.889,-4.889,-4.889,-4.889,-4.889,-4.889,-4.889,-4.889,-4.889,-4.889,-4.889,-4.889,-4.889,-4.889,-4.889,-4.889,-4.889,-4.889,-4.8964,-4.9002,-4.9002,-4.9076,-4.915,-4.915,-4.9707,-5.0005,-4.9299,-4.9707,-5.0101,-4.9669,-5.047,-5.0786,0.0,0.0,0.0,0.0,0.0,0.0,0.0,0.0,0.0,0.0,0.0,0.0,0.0,0.0,-4.7115,-4.7632,-4.8035,-4.8458,-4.8873,0.0,-4.889,-4.889,-4.889,-4.889,-4.889,-4.889,-4.889,-4.889,-4.889,-4.889,-4.889,-4.889,-4.889,-4.889,-4.889,-4.889,-4.889,-4.889,-4.889,-4.889,-4.889,-4.889,-4.889,0.0,0.0,0.0,0.0,0.0,0.0,0.0,-6.1298,-6.1484,-6.2301,-6.2004,-6.1856,-6.2339,-6.2264,-6.2041,-6.1707,-6.0927,-6.0295,-5.9903,-5.8846,-5.8141,-5.7992,-5.736,-5.7323,-5.7992,-5.7658,-5.6692,0.0,0.0,0.0,0.0,0.0,0.0,0.0,0.0,-4.889,-4.889,-4.889,-4.889,-4.889,-4.889,-4.889,-4.889,-4.889,-4.889,-4.889,-4.889,-4.889,-4.889,-4.889,-4.889,-4.889,-4.889,-4.889,-4.889,-4.889,-4.889,-4.889,-4.889,-4.889,-4.889,-4.889,-4.889,-4.889,-4.889,-4.915,-4.9299,-4.8964,-4.915,-4.9469,-4.9806,-4.9677,-4.9787,0.0,0.0,0.0,0.0,0.0,0.0,0.0,0.0,0.0,0.0,0.0,0.0,0.0,0.0,0.0,-4.7975,-4.8209,0.0,-4.8873,0.0,-4.889,-4.889,-4.889,-4.889,-4.889,-4.889,-4.889,-4.889,-4.889,-4.889,-4.889,-4.889,-4.889,-4.889,-4.889,-4.889,-4.889,-4.889,-4.889,-4.889,-4.889,-4.889,-4.889,-6.0184,0.0,-5.8846,0.0,-5.9998,-5.9738,-6.1744,-6.1558,-6.141,-6.1967,-6.1336,-6.115,-6.1967,-6.1558,-6.1113,-6.0853,-6.0258,-5.9791,-5.9568,-5.9032,-5.8364,-5.7546,-5.7286,0.0,-5.7138,-5.6915,-5.6209,-5.502,-5.4203,0.0,0.0,0.0,0.0,0.0,-4.9262,-4.9113,-4.889,-4.889,-4.889,-4.889,-4.889,-4.889,-4.889,-4.889,-4.889,-4.889,-4.889,-4.889,-4.889,-4.889,-4.889,-4.889,-4.889,-4.889,-4.889,-4.889,-4.889,-4.889,-4.889,-4.889,-4.889,-4.889,-4.889,-4.889,-4.889,-4.889,-4.889,-4.889,-4.889,-4.9076,-4.9633,-4.903,-4.8938,-5.0452,0.0,0.0,0.0,0.0,0.0,0.0,-4.9119,-4.866,-4.8495,0.0,0.0,0.0,0.0,0.0,0.0,0.0,0.0,0.0,0.0,0.0,0.0,-4.889,-4.889,-4.889,-4.889,-4.889,-4.889,-4.889,-4.889,-4.889,-4.889,-4.889,-4.889,-4.889,-4.889,-4.889,-4.889,-4.889,-4.889,-4.889,-4.889,-4.889,-6.1187,-6.0481,-6.0147,-6.1038,-6.0481,-6.0184,-6.1076,-6.1224,-6.1187,-6.1224,-6.0481,-6.0258,-6.1113,-6.1224,-6.0853,-5.9977,-5.9924,-5.9568,-5.8772,-5.8735,-5.8364,0.0,0.0,-5.632,-5.632,-5.5466,-5.502,-5.502,0.0,0.0,-5.2568,0.0,-5.0933,-5.019,-5.0116,-4.9633,-4.889,-4.889,-4.889,-4.889,-4.889,-4.889,-4.889,-4.889,-4.889,-4.889,-4.889,-4.889,-4.889,-4.889,-4.889,-4.889,-4.889,-4.889,-4.889,-4.889,-4.889,-4.889,-4.889,-4.889,-4.889,-4.889,-4.889,-4.889,-4.889,-4.889,-4.889,-4.889,-4.889,-4.889,-4.8927,-4.889,-4.891,-4.8927,0.0,0.0,0.0,0.0,0.0,0.0,-4.855,-4.8458,-4.8838,0.0,0.0,0.0,0.0,0.0,0.0,0.0,0.0,-4.889,-4.889,0.0,-4.889,-4.889,-4.889,-4.889,-4.889,-4.889,-4.889,-4.889,-4.889,-4.889,-4.889,-4.889,-4.889,-4.889,-4.889,-4.889,-4.889,-4.889,-4.889,-4.889,-4.889,-4.889,-6.0221,-6.011,-6.0184,-6.1038,-6.0964,-6.089,-6.115,-6.0704,-6.0333,-6.0333,-5.9589,-5.9181,-5.9478,-5.9515,-5.9404,0.0,-5.9107,-5.8995,0.0,-5.8215,-5.7509,-5.6729,-5.5874,-5.5429,-5.5429,-5.5131,-5.502,-5.502,0.0,0.0,0.0,-5.0079,-4.9559,-4.9299,-4.9299,-4.915,-4.889,-4.889,-4.889,-4.889,-4.889,-4.889,-4.889,-4.889,-4.889,-4.889,-4.889,-4.889,-4.889,-4.889,-4.889,-4.889,-4.889,-4.889,-4.889,-4.889,-4.889,-4.889,-4.889,-4.889,-4.889,-4.889,-4.889,-4.889,-4.889,-4.889,-4.889,-4.889,-4.889,-4.889,-4.889,-4.889,-4.889,-4.889,-4.889,0.0,0.0,0.0,0.0,0.0,0.0,-4.875,0.0,-4.8785,0.0,0.0,0.0,0.0,0.0,0.0,0.0,0.0,-4.889,0.0,-4.889,-4.889,-4.889,-4.889,-4.889,-4.889,-4.889,-4.889,-4.889,-4.889,-4.889,-4.889,-4.889,-4.889,-4.889,-4.889,-4.889,-4.889,-4.889,-4.889,-4.889,-4.889,-6.0295,-6.0147,-6.0072,-6.063,-6.0481,-6.0258,-6.0258,-5.9812,-5.9478,-5.9478,-5.9032,-5.8698,-5.8698,-5.8698,0.0,-5.8698,-5.8698,-5.8586,-5.8289,-5.7769,-5.6989,-5.5874,-5.528,-5.4871,-5.4574,0.0,0.0,-5.4574,-5.346,-5.2122,-5.0562,-4.9745,-4.9336,-4.9336,-4.9336,-4.9187,-4.889,-4.889,-4.889,-4.889,-4.889,-4.889,-4.889,-4.889,-4.889,-4.889,-4.889,-4.889,-4.889,-4.889,-4.889,-4.889,-4.889,-4.889,-4.889,-4.889,-4.889,-4.889,-4.889,-4.889,-4.889,-4.889,-4.889,-4.889,-4.889,-4.889,-4.889,-4.889,-4.889,-4.889,-4.889,-4.889,-4.889,-4.889,-4.889,-4.889,-4.889,0.0,0.0,0.0,0.0,0.0,0.0,-4.889,0.0,0.0,0.0,0.0,0.0,0.0,0.0,-4.889,-4.889,0.0,-4.889,-4.889,-4.889,-4.889,-4.889,-4.889,-4.889,-4.889,-4.889,-4.889,-4.889,-4.889,-4.889,-4.889,-4.889,-4.889,-4.889,-4.889,-4.889,-4.889,-4.889,-4.889,-6.1038,-6.037,0.0,0.0,-5.9218,0.0,-5.8698,-5.8698,-5.8698,-5.8698,-5.8698,-5.8698,-5.8698,-5.8698,-5.8698,-5.8624,0.0,0.0,0.0,-5.7398,-5.6617,-5.5094,-5.4946,-5.4574,-5.3831,-5.3794,-5.3794,-5.372,-5.2159,-5.1379,-5.1305,-5.0413,-5.0042,-5.0042,-5.0042,-4.9596,-4.889,-4.889,-4.889,-4.889,-4.889,-4.889,-4.889,-4.889,-4.889,-4.889,-4.889,-4.889,-4.889,-4.889,-4.889,-4.889,-4.889,-4.889,-4.889,-4.889,-4.889,-4.889,-4.889,-4.889,-4.889,-4.889,-4.889,-4.889,-4.889,-4.889,-4.889,-4.889,-4.889,-4.889,-4.889,-4.889,-4.889,-4.889,-4.889,-4.889,-4.889,0.0,0.0,0.0,0.0,0.0,0.0,-4.889,-4.889,0.0,0.0,0.0,0.0,0.0,-4.889,-4.889,-4.889,-4.889,-4.889,-4.889,-4.889,-4.889,-4.889,-4.889,-4.889,-4.889,-4.889,-4.889,-4.889,-4.889,-4.889,-4.889,-4.889,-4.889,-4.889,-4.889,-4.889,-4.889,-4.889,-4.889,0.0,0.0,-5.8995,-5.8995,-5.8846,-5.8698,-5.8698,-5.8698,-5.8698,-5.8698,-5.8698,-5.8698,-5.8698,-5.8698,-5.8475,-5.7843,-5.7769,-5.7695,-5.7509,-5.632,-5.5429,-5.502,-5.4426,-5.398,-5.3794,-5.3794,-5.3497,-5.2865,-5.1899,-5.1045,-5.0413,-4.9559,-4.9187,-4.9187,-4.9187,-4.9076,-4.889,-4.889,-4.889,-4.889,-4.889,-4.889,-4.889,-4.889,-4.889,-4.889,-4.889,-4.889,-4.889,-4.889,-4.889,-4.889,-4.889,-4.889,-4.889,-4.889,-4.889,-4.889,-4.889,-4.889,-4.889,-4.889,-4.889,-4.889,-4.889,-4.889,-4.889,-4.889,-4.889,-4.889,-4.889,-4.889,-4.889,-4.889,-4.889,-4.889,-4.889,-4.889,-4.889,0.0,-4.889,-4.889,-4.889,-4.889,-4.889,0.0,0.0,0.0,0.0,-4.889,-4.889,-4.889,-4.889,-4.889,-4.889,-4.889,-4.889,-4.889,-4.889,-4.889,-4.889,-4.889,-4.889,-4.889,-4.889,-4.889,-4.889,-4.889,-4.889,-4.889,-4.889,-4.889,-4.889,-4.889,-4.889,-4.889,-5.8698,-5.8698,-5.8698,-5.8698,-5.8698,-5.8698,-5.8698,-5.8698,-5.8698,-5.8698,-5.8698,-5.8698,-5.8698,-5.8698,-5.8401,-5.7583,-5.7509,-5.7175,-5.6432,-5.5503,-5.4834,-5.4463,-5.4054,-5.3794,-5.3794,-5.3794,-5.3237,-5.2048,-5.1231,-5.0376,-4.9559,-4.9113,-4.889,-4.889,-4.889,-4.889,-4.889,-4.889,-4.889,-4.889,-4.889,-4.889,-4.889,-4.889,-4.889,-4.889,-4.889,-4.889,-4.889,-4.889,-4.889,-4.889,-4.889,-4.889,-4.889,-4.889,-4.889,-4.889,-4.889,-4.889,-4.889,-4.889,-4.889,-4.889,-4.889,-4.889,-4.889,-4.889,-4.889,-4.889,-4.889,-4.889,-4.889,-4.889,-4.889,-4.889,-4.889,-4.889,-4.889,-4.889,-4.889,-4.889,-4.889,-4.889,-4.889,-4.889,0.0,0.0,-4.889,-4.889,-4.889,-4.889,-4.889,-4.889,-4.889,-4.889,-4.889,-4.889,-4.889,-4.889,-4.889,-4.889,-4.889,-4.889,-4.889,-4.889,-4.889,-4.889,-4.889,-4.889,-4.889,-4.889,-4.889,-4.889,-4.889,-4.889,-5.8698,-5.8698,-5.8698,-5.8698,-5.8698,-5.8698,-5.8698,-5.8698,-5.8698,-5.8698,-5.8698,-5.8661,-5.8549,-5.8512,-5.8141,-5.7212,-5.7138,-5.6543,-5.5094,-5.4909,-5.45,-5.3831,-5.3794,-5.3757,-5.3608,-5.3497,-5.2717,-5.1193,-5.045,-4.9707,-4.889,-4.889,-4.889,-4.889,-4.889,-4.889,-4.889,-4.889,-4.889,-4.889,-4.889,-4.889,-4.889,-4.889,-4.889,-4.889,-4.889,-4.889,-4.889,-4.889,-4.889,-4.889,-4.889,-4.889,-4.889,-4.889,-4.889,-4.889,-4.889,-4.889,-4.889,-4.889,-4.889,-4.889,-4.889,-4.889,-4.889,-4.889,-4.889,-4.889,-4.889,-4.889,-4.889,-4.889,-4.889,-4.889,-4.889,0.0,-4.889,-4.889,-4.889,-4.889,-4.889,-4.889,-4.889,-4.889,-4.889,-4.889,0.0,-4.889,-4.889,-4.889,-4.889,-4.889,-4.889,-4.889,-4.889,-4.889,-4.889,-4.889,-4.889,-4.889,-4.889,-4.889,-4.889,-4.889,-4.889,-4.889,-4.889,-4.889,-4.889,-4.889,-4.889,-4.889,-4.889,-4.889,-5.8698,-5.8698,-5.8698,-5.8698,-5.8698,-5.8698,-5.8698,-5.8698,-5.8698,-5.8698,-5.8698,-5.8438,-5.7769,-5.7695,-5.7063,-5.554,-5.5391,-5.528,-5.502,-5.4351,-5.3943,-5.3831,-5.3794,-5.3497,-5.2791,-5.2122,-5.1305,-5.0302,-5.019,-4.9707,-4.889,-4.889,-4.889,-4.889,-4.889,-4.889,-4.889,-4.889,-4.889,-4.889,-4.889,-4.889,-4.889,-4.889,-4.889,-4.889,-4.889,-4.889,-4.889,-4.889,-4.889,-4.889,-4.889,-4.889,-4.889,-4.889,-4.889,-4.889,-4.889,-4.889,-4.889,-4.889,-4.889,-4.889,-4.889,-4.889,-4.889,-4.889,-4.889,-4.889,-4.889,-4.889,-4.889,-4.889,-4.889,-4.889,-4.889,0.0,-4.889,-4.889,-4.889,-4.889,-4.889,-4.889,-4.889,-4.889,-4.889,-4.889,-4.889,-4.889,-4.889,-4.889,-4.889,-4.889,-4.889,-4.889,-4.889,-4.889,-4.889,-4.889,-4.889,-4.889,-4.889,-4.889,-4.889,-4.889,-4.889,-4.889,-4.889,-4.889,-4.889,-4.889,-4.889,-4.889,-4.889,-4.889,-5.8698,-5.8698,-5.8698,-5.8698,-5.8698,-5.8698,-5.8698,-5.8698,-5.8698,-5.8698,-5.8326,-5.7918,-5.7546,-5.71,-5.6357,-5.5131,-5.502,-5.4834,-5.4388,-5.4017,-5.3794,-5.3794,-5.3794,-5.3423,-5.2605,-5.1342,-5.0488,-5.0116,-4.967,-4.9262,-4.889,-4.889,-4.889,-4.889,-4.889,-4.889,-4.889,-4.889,-4.889,-4.889,-4.889,-4.889,-4.889,-4.889,-4.889,-4.889,-4.889,-4.889,-4.889,-4.889,-4.889,-4.889,-4.889,-4.889,-4.889,-4.889,-4.889,-4.889,-4.889,-4.889,-4.889,-4.889,-4.889,-4.889,-4.889,-4.889,-4.889,-4.889,-4.889,-4.889,-4.889,-4.889,-4.889,-4.889,-4.889,0.0,0.0,-4.889,-4.889,-4.889,-4.889,-4.889,-4.889,-4.889,-4.889,-4.889,-4.889,-4.889,-4.889,-4.889,-4.889,-4.889,-4.889,-4.889,-4.889,-4.889,-4.889,-4.889,-4.889,-4.889,-4.889,-4.889,-4.889,-4.889,-4.889,-4.889,-4.889,-4.889,-4.889,-4.889,-4.889,-4.889,-4.889,-4.889,-4.889,-4.889,-5.8698,-5.8698,-5.8698,-5.8698,-5.8698,-5.8698,-5.8698,-5.8698,-5.8698,-5.8698,-5.7992,-5.7435,-5.7249,-5.6506,-5.5652,-5.4797,-5.4723,-5.4463,-5.3831,-5.3794,-5.3794,-5.3794,-5.346,-5.2865,-5.2048,-5.0599,-4.9819,-4.9819,-4.9187,-4.889,-4.889,-4.889,-4.889,-4.889,-4.889,-4.889,-4.889,-4.889,-4.889,-4.889,-4.889,-4.889,-4.889,-4.889,-4.889,-4.889,-4.889,-4.889,-4.889,-4.889,-4.889,-4.889,-4.889,-4.889,-4.889,-4.889,-4.889,-4.889,-4.889,-4.889,-4.889,-4.889,-4.889,-4.889,-4.889,-4.889,-4.889,-4.889,-4.889,-4.889,-4.889,-4.889,-4.889,-4.889,0.0,0.0,0.0,-4.889,-4.889,-4.889,-4.889,-4.889,-4.889,-4.889,-4.889,-4.889,-4.889,-4.889,-4.889,-4.889,-4.889,-4.889,-4.889,-4.889,-4.889,-4.889,-4.889,-4.889,-4.889,-4.889,-4.889,-4.889,-4.889,-4.889,-4.889,-4.889,-4.889,-4.889,-4.889,-4.889,-4.889,-4.889,-4.889,-4.889,-4.889,-4.889,-5.8698,-5.8698,-5.8698,-5.8698,-5.8698,-5.8698,-5.8698,-5.8698,-5.8698,-5.8698,-5.7992,-5.7212,-5.6469,-5.5614,-5.476,-5.398,-5.3905,-5.3868,-5.3794,-5.3794,-5.3794,-5.3794,-5.2382,-5.1156,-5.0302,-4.9447,-4.9002,-4.9002,-4.8927,-4.889,-4.889,-4.889,-4.889,-4.889,-4.889,-4.889,-4.889,-4.889,-4.889,-4.889,-4.889,-4.889,-4.889,-4.889,-4.889,-4.889,-4.889,-4.889,-4.889,-4.889,-4.889,-4.889,-4.889,-4.889,-4.889,-4.889,-4.889,-4.889,-4.889,-4.889,-4.889,-4.889,-4.889,-4.889,-4.889,-4.889,-4.889,-4.889,-4.889,-4.889,-4.889,-4.889,-4.889,-4.889,0.0,0.0,-4.889,-4.889,-4.889,-4.889,-4.889,-4.889,-4.889,-4.889,-4.889,-4.889,-4.889,-4.889,-4.889,-4.889,-4.889,-4.889,-4.889,-4.889,-4.889,-4.889,-4.889,-4.889,-4.889,-4.889,-4.889,-4.889,-4.889,-4.889,-4.889,-4.889,-4.889,-4.889,-4.889,-4.889,-4.889,-4.889,-4.889,-4.889,-4.889,-4.889,-5.8698,-5.8698,-5.8698,-5.8698,-5.8698,-5.8698,-5.8698,-5.8698,-5.8698,-5.8698,-5.7583,-5.6655,-5.632,-5.5094,-5.4128,-5.3831,-5.3794,-5.3794,-5.3794,-5.3794,-5.3794,-5.3794,-5.2271,-5.1268,-5.0896,-4.9596,-4.889,-4.889,-4.889,-4.889,-4.889,-4.889,-4.889,-4.889,-4.889,-4.889,-4.889,-4.889,-4.889,-4.889,-4.889,-4.889,-4.889,-4.889,-4.889,-4.889,-4.889,-4.889,-4.889,-4.889,-4.889,-4.889,-4.889,-4.889,-4.889,-4.889,-4.889,-4.889,-4.889,-4.889,-4.889,-4.889,-4.889,-4.889,-4.889,-4.889,-4.9039,-4.9559,-4.9633,-4.9633,-4.9633,-4.9633,-4.9485,-4.9002,0.0,-4.889,-4.889,-4.889,-4.889,-4.889,-4.889,-4.889,-4.889,-4.889,-4.889,-4.889,-4.889,-4.889,-4.889,-4.889,-4.889,-4.889,-4.889,-4.889,-4.889,-4.889,-4.889,-4.889,-4.889,-4.889,-4.889,-4.889,-4.889,-4.889,-4.889,-4.889,-4.889,-4.889,-4.889,-4.889,-4.889,-4.889,-4.889,-4.889,-4.889,-4.8816,-5.8698,-5.8698,-5.8698,-5.8698,-5.8698,-5.8698,-5.8698,-5.8512,-5.8326,-5.8326,-5.6915,-5.5874,-5.5874,-5.4648,-5.3794,-5.3794,-5.3794,-5.3794,-5.3794,-5.3794,-5.3683,-5.3423,-5.2122,-5.1268,-5.1008,-4.9633,-4.889,-4.889,-4.889,-4.889,-4.889,-4.889,-4.889,-4.889,-4.889,-4.889,-4.889,-4.889,-4.889,-4.889,-4.889,-4.889,-4.889,-4.889,-4.889,-4.889,-4.889,-4.889,-4.889,-4.889,-4.889,-4.889,-4.889,-4.889,-4.889,-4.889,-4.889,-4.889,-4.889,-4.889,-4.889,-4.889,-4.9076,-4.9224,-4.8964,-4.9299,-4.9782,-5.0042,-5.0339,-5.0413,-5.0153,-5.0116,-4.9856,-4.9039,-4.889,-4.889,-4.889,-4.889,-4.889,-4.889,-4.889,-4.889,-4.889,-4.889,-4.889,-4.889,-4.889,-4.889,-4.889,-4.889,-4.889,-4.889,-4.889,-4.889,-4.889,-4.889,-4.889,-4.889,-4.889,-4.889,-4.889,-4.889,-4.889,-4.889,-4.889,-4.889,-4.889,-4.889,-4.889,-4.889,-4.889,-4.889,-4.889,-4.889,-4.889,-4.8779,-5.8698,-5.8698,-5.8698,-5.8698,-5.8698,-5.8698,-5.8698,-5.7992,-5.7509,-5.7509,-5.606,-5.502,-5.502,-5.4277,-5.3794,-5.3794,-5.3794,-5.3794,-5.3794,-5.3794,-5.346,-5.2642,-5.1825,-5.1008,-5.0153,-4.9336,-4.889,-4.889,-4.889,-4.889,-4.889,-4.889,-4.889,-4.889,-4.889,-4.889,-4.889,-4.889,-4.889,-4.889,-4.889,-4.889,-4.889,-4.889,-4.889,-4.889,-4.889,-4.889,-4.889,-4.889,-4.889,-4.889,-4.889,-4.889,-4.889,-4.889,-4.889,-4.889,-4.889,-4.889,-4.8927,-4.8927,-4.9522,-4.9893,-4.9113,-5.019,-5.1156,-5.0302,-5.0822,-5.1156,-5.0265,-5.0116,-4.9856,-4.9039,-4.889,-4.889,-4.889,-4.889,-4.889,-4.889,-4.889,-4.889,-4.889,-4.889,-4.889,-4.889,-4.889,-4.889,-4.889,-4.889,-4.889,-4.889,-4.889,-4.889,-4.889,-4.889,-4.889,-4.889,-4.889,-4.889,-4.889,-4.889,-4.889,-4.889,-4.889,-4.889,-4.889,-4.889,-4.889,-4.889,-4.889,-4.889,-4.889,-4.889,-4.889,-4.8779,-5.8698,-5.8252,-5.7881,-5.7881,-5.7398,-5.7026,-5.7026,-5.6803,-5.6655,-5.6655,-5.5689,-5.502,-5.502,-5.4277,-5.3794,-5.3794,-5.3794,-5.3794,-5.3794,-5.3794,-5.3683,-5.346,-5.2122,-5.1268,-5.1008,-4.9633,-4.889,-4.889,-4.889,-4.889,-4.889,-4.889,-4.889,-4.889,-4.889,-4.889,-4.889,-4.889,-4.889,-4.889,-4.889,-4.889,-4.889,-4.889,-4.889,-4.889,-4.889,-4.889,-4.889,-4.889,-4.889,-4.889,-4.889,-4.889,-4.889,-4.889,-4.889,-4.889,-4.889,-4.9299,-4.9745,-4.9745,-4.9522,-4.9522,-5.045,-5.0562,-5.0748,-5.1676,-5.2048,-5.1974,-5.1156,-5.1008,-5.0562,-4.915,-4.889,-4.889,-4.889,-4.889,-4.889,-4.889,-4.889,-4.889,-4.889,-4.889,-4.889,-4.889,-4.889,-4.889,-4.889,-4.889,-4.889,-4.889,-4.889,-4.889,-4.889,-4.889,-4.889,-4.889,-4.889,-4.889,-4.889,-4.889,-4.889,-4.889,-4.889,-4.889,-4.889,-4.889,-4.889,-4.889,-4.889,-4.889,-4.889,-4.889,-4.8556,-4.7924,-5.8236,-5.7843,-5.7398,-5.71,-5.6617,-5.632,-5.632,-5.6023,-5.58,-5.58,-5.5057,-5.4537,-5.4537,-5.4091,-5.3794,-5.3794,-5.3794,-5.3794,-5.3794,-5.3794,-5.3683,-5.3348,-5.2085,-5.1416,-5.1416,-4.9745,-4.889,-4.889,-4.889,-4.889,-4.889,-4.889,-4.889,-4.889,-4.889,-4.889,-4.889,-4.889,-4.889,-4.889,-4.889,-4.889,-4.889,-4.889,-4.889,-4.889,-4.889,-4.889,-4.889,-4.889,-4.889,-4.889,-4.889,-4.889,-4.889,-4.889,-4.889,-4.889,-4.889,-4.9262,-4.9707,-5.0042,-5.0228,-5.0562,-5.1231,-5.1491,-5.1751,-5.2457,-5.2605,-5.2457,-5.1974,-5.1602,-5.0971,-4.9596,-4.9373,-4.9262,-4.8927,-4.889,-4.889,-4.889,-4.889,-4.889,-4.889,-4.889,-4.889,-4.889,-4.889,-4.889,-4.889,-4.889,-4.889,-4.889,-4.889,-4.889,-4.889,-4.889,-4.889,-4.889,-4.889,-4.889,-4.889,-4.889,-4.889,-4.889,-4.889,-4.889,-4.889,-4.889,-4.889,-4.889,-4.889,-4.889,-4.8853,-4.8556,-4.811,-4.7553,-5.7541,-5.7424,-5.7126,-5.638,-5.6194,-5.61,-5.606,-5.5391,-5.4909,-5.4909,-5.424,-5.3794,-5.3794,-5.3794,-5.3794,-5.3794,-5.3794,-5.3794,-5.3794,-5.372,-5.3385,-5.2642,-5.1825,-5.1342,-5.1305,-4.9707,-4.889,-4.889,-4.889,-4.889,-4.889,-4.889,-4.889,-4.889,-4.889,-4.889,-4.889,-4.889,-4.889,-4.889,-4.889,-4.889,-4.889,-4.889,-4.889,-4.889,-4.889,-4.889,-4.889,-4.889,-4.889,-4.889,-4.889,-4.889,-4.889,-4.889,-4.889,-4.889,-4.889,-4.8964,-4.9187,-4.993,-5.1379,-5.2419,-5.1676,-5.2642,-5.3497,-5.2828,-5.2717,-5.2679,-5.2605,-5.2011,-5.1193,-5.0265,-5.0116,-4.9819,-4.9002,-4.889,-4.889,-4.889,-4.889,-4.889,-4.889,-4.889,-4.889,-4.889,-4.889,-4.889,-4.889,-4.889,-4.889,-4.889,-4.889,-4.889,-4.889,-4.889,-4.889,-4.889,-4.889,-4.889,-4.889,-4.889,-4.889,-4.889,-4.889,-4.889,-4.889,-4.889,-4.889,-4.889,-4.889,-4.8853,-4.8704,-4.7961,-4.7627,-4.7256,-5.7276,-5.6786,-5.6174,-5.5748,-5.5132,-5.4668,-5.439,-5.4203,-5.4054,-5.4054,-5.3905,-5.3794,-5.3794,-5.3794,-5.3794,-5.3794,-5.3794,-5.3794,-5.3794,-5.32,-5.2791,-5.2605,-5.1825,-5.1082,-5.0413,-4.941,-4.889,-4.889,-4.889,-4.889,-4.889,-4.889,-4.889,-4.889,-4.889,-4.889,-4.889,-4.889,-4.889,-4.889,-4.889,-4.889,-4.889,-4.889,-4.889,-4.889,-4.889,-4.889,-4.889,-4.889,-4.889,-4.889,-4.889,-4.889,-4.889,-4.889,-4.889,-4.889,-4.889,-4.941,-4.9968,-5.0079,-5.1379,-5.2568,-5.2382,-5.2605,-5.2977,-5.346,-5.3534,-5.3348,-5.2717,-5.2457,-5.1862,-5.0339,-5.0116,-4.9819,-4.9002,-4.889,-4.889,-4.889,-4.889,-4.889,-4.889,-4.889,-4.889,-4.889,-4.889,-4.889,-4.889,-4.889,-4.889,-4.889,-4.889,-4.889,-4.889,-4.889,-4.889,-4.889,-4.889,-4.889,-4.889,-4.889,-4.889,-4.889,-4.889,-4.889,-4.889,-4.889,-4.889,-4.889,-4.889,-4.8519,-4.7924,-4.7776,-4.6884,-4.5658,-5.6648,-5.6276,-5.5829,-5.5276,-5.4829,-5.443,-5.4089,-5.4035,-5.3963,-5.3813,-5.3794,-5.3794,-5.3794,-5.3794,-5.3794,-5.3794,-5.3794,-5.3794,-5.3794,-5.3051,-5.2419,-5.2048,-5.1231,-5.0376,-4.9559,-4.9113,-4.889,-4.889,-4.889,-4.889,-4.889,-4.889,-4.889,-4.889,-4.889,-4.889,-4.889,-4.889,-4.889,-4.889,-4.889,-4.889,-4.889,-4.889,-4.889,-4.889,-4.889,-4.889,-4.889,-4.889,-4.889,-4.889,-4.889,-4.889,-4.889,-4.889,-4.889,-4.889,-4.889,-4.9224,-4.9559,-4.9559,-5.0785,-5.2122,-5.2531,-5.2902,-5.3311,-5.372,-5.3497,-5.3237,-5.32,-5.2865,-5.2197,-5.0933,-5.0711,-5.0302,-4.9076,-4.889,-4.889,-4.889,-4.889,-4.889,-4.889,-4.889,-4.889,-4.889,-4.889,-4.889,-4.889,-4.889,-4.889,-4.889,-4.889,-4.889,-4.889,-4.889,-4.889,-4.889,-4.889,-4.889,-4.889,-4.889,-4.889,-4.889,-4.889,-4.889,-4.889,-4.889,-4.889,-4.8853,-4.8481,-4.8073,-4.7627,-4.6847,-4.5769,-4.4618,-5.6022,-5.5964,-5.5721,-5.5009,-5.488,-5.4776,-5.443,-5.438,-5.4279,-5.3999,-5.3963,-5.3963,-5.3907,-5.3832,-5.3794,-5.3794,-5.3794,-5.3757,-5.3608,-5.2828,-5.2048,-5.1193,-5.0488,-4.9707,-4.8927,-4.9039,-4.9039,-4.889,-4.889,-4.889,-4.889,-4.889,-4.889,-4.889,-4.889,-4.889,-4.889,-4.889,-4.889,-4.889,-4.889,-4.889,-4.889,-4.889,-4.889,-4.889,-4.889,-4.889,-4.889,-4.889,-4.889,-4.889,-4.889,-4.889,-4.889,-4.889,-4.889,-4.889,-4.889,-4.889,-4.889,-4.889,-5.0042,-5.1379,-5.2197,-5.3125,-5.3794,-5.3794,-5.3274,-5.3014,-5.3683,-5.3237,-5.2494,-5.1565,-5.1416,-5.0822,-4.915,-4.889,-4.889,-4.889,-4.889,-4.889,-4.889,-4.889,-4.889,-4.889,-4.889,-4.889,-4.889,-4.889,-4.889,-4.889,-4.889,-4.889,-4.889,-4.889,-4.889,-4.889,-4.889,-4.889,-4.889,-4.889,-4.889,-4.889,-4.889,-4.889,-4.889,-4.889,-4.8816,-4.863,-4.7961,-4.7516,-4.7107,-4.5621,-4.4618,-4.3986,-5.5769,-5.5719,-5.5612,-5.5288,-5.5236,-5.5105,-5.4791,-5.4731,-5.4716,-5.467,-5.467,-5.456,-5.4245,-5.3963,-5.3794,-5.3794,-5.3794,-5.3497,-5.2828,-5.2011,-5.1193,-5.0302,-5.0153,-4.9707,-4.8927,-4.9596,-4.9596,-4.889,-4.889,-4.889,-4.889,-4.889,-4.889,-4.889,-4.889,-4.889,-4.889,-4.889,-4.889,-4.889,-4.889,-4.889,-4.889,-4.889,-4.889,-4.889,-4.889,-4.889,-4.889,-4.889,-4.889,-4.889,-4.889,-4.889,-4.889,-4.889,-4.889,-4.889,-4.889,-4.889,-4.889,-4.889,-4.9596,-5.0488,-5.1379,-5.2717,-5.3794,-5.3794,-5.372,-5.3683,-5.3794,-5.372,-5.3162,-5.1639,-5.1416,-5.0822,-4.915,-4.889,-4.889,-4.889,-4.889,-4.889,-4.889,-4.889,-4.889,-4.889,-4.889,-4.889,-4.889,-4.889,-4.889,-4.889,-4.889,-4.889,-4.889,-4.889,-4.889,-4.889,-4.889,-4.889,-4.889,-4.889,-4.889,-4.889,-4.889,-4.889,-4.889,-4.889,-4.8481,-4.785,-4.7738,-4.6847,-4.5509,-4.4544,-4.4098,-4.3986,-5.5703,-5.5703,-5.5671,-5.5531,-5.5508,-5.5425,-5.5105,-5.5064,-5.5009,-5.4821,-5.4791,-5.4746,-5.4591,-5.4262,-5.3999,-5.3813,-5.3794,-5.3645,-5.3311,-5.2085,-5.1231,-5.0859,-4.993,-4.9262,-4.8927,-4.9262,-4.9262,-4.889,-4.889,-4.889,-4.889,-4.889,-4.889,-4.889,-4.889,-4.889,-4.889,-4.889,-4.889,-4.889,-4.889,-4.889,-4.889,-4.889,-4.889,-4.889,-4.889,-4.889,-4.889,-4.889,-4.889,-4.889,-4.889,-4.889,-4.889,-4.889,-4.889,-4.889,-4.889,-4.889,-4.889,-4.889,-4.9856,-5.0933,-5.1305,-5.2642,-5.3794,-5.3794,-5.3794,-5.3794,-5.3794,-5.3423,-5.2754,-5.1602,-5.1008,-5.0265,-4.9076,-4.889,-4.889,-4.889,-4.889,-4.889,-4.889,-4.889,-4.889,-4.889,-4.889,-4.889,-4.889,-4.889,-4.889,-4.889,-4.8979,-4.8996,-4.8996,-4.9064,-4.9081,-4.9081,-4.9081,-4.8993,-4.889,-4.889,-4.889,-4.889,-4.889,-4.889,-4.889,-4.8407,-4.8036,-4.7627,-4.6698,-4.5621,-4.4544,-4.4135,-4.3986,-4.3986]},{"header":{"parameterUnit":"m.s-1","parameterCategory":1,"la1":30.6,"la2":28.766,"lo1":-90.7593,"lo2":-88.6598,"dy":0.0162,"dx":0.0183,"nx":116,"ny":114,"refTime":"2023-06-10T18:00:00:Z","depth":0,"parameterNumber":3,"parameterNumberName":"V-component_of_WINDS"},"data":[0.0,0.0,0.0,0.0,0.0,0.0,0.0,0.0,0.0,0.0,0.0,0.0,0.0,0.0,0.0,0.0,0.0,0.0,0.0,0.0,0.0,0.0,0.0,0.0,0.0,0.0,0.0,0.0,0.0,0.0,0.0,0.0,0.0,0.0,0.0,0.0,0.0,0.0,0.0,0.0,0.0,0.0,0.0,0.0,0.0,0.0,0.0,0.0,0.0,0.0,0.0,0.0,0.0,0.0,0.0,0.0,0.0,0.0,0.0,0.0,0.0,0.0,0.0,0.0,0.0,0.0,0.0,0.0,0.0,0.0,0.0,0.0,0.0,0.0,0.0,0.0,0.0,0.0,0.0,0.0,0.0,0.0,0.0,0.0,0.0,0.0,0.0,0.0,0.0,0.0,0.0,0.0,0.0,0.0,0.0,0.0,0.0,0.0,0.0,0.0,0.0,0.0,0.0,0.0,0.0,0.0,0.0,0.0,0.0,0.0,0.0,0.0,0.0,0.0,0.0,0.0,0.0,0.0,0.0,0.0,0.0,0.0,0.0,0.0,0.0,0.0,0.0,0.0,0.0,0.0,0.0,0.0,0.0,0.0,0.0,0.0,0.0,0.0,0.0,0.0,0.0,0.0,0.0,0.0,0.0,0.0,0.0,0.0,0.0,0.0,0.0,0.0,0.0,0.0,0.0,0.0,0.0,0.0,0.0,0.0,0.0,0.0,0.0,0.0,0.0,0.0,0.0,0.0,0.0,0.0,0.0,0.0,0.0,0.0,0.0,0.0,0.0,0.0,0.0,0.0,0.0,0.0,0.0,0.0,0.0,0.0,0.0,0.0,0.0,0.0,0.0,0.0,0.0,0.0,0.0,0.0,0.0,0.0,0.0,0.0,0.0,0.0,0.0,0.0,0.0,0.0,0.0,0.0,0.0,0.0,0.0,0.0,0.0,0.0,0.0,0.0,0.0,0.0,0.0,0.0,0.0,0.0,0.0,0.0,0.0,0.0,0.0,0.0,0.0,0.0,0.0,0.0,0.0,0.0,0.0,0.0,0.0,0.0,0.0,0.0,0.0,0.0,0.0,0.0,0.0,0.0,0.0,0.0,0.0,0.0,0.0,0.0,0.0,0.0,0.0,0.0,0.0,0.0,0.0,0.0,0.0,0.0,0.0,0.0,0.0,0.0,0.0,0.0,0.0,0.0,0.0,0.0,0.0,0.0,0.0,0.0,0.0,0.0,0.0,0.0,0.0,0.0,0.0,0.0,0.0,0.0,0.0,0.0,0.0,0.0,0.0,0.0,0.0,0.0,0.0,0.0,0.0,0.0,0.0,0.0,0.0,0.0,0.0,0.0,0.0,0.0,0.0,0.0,0.0,0.0,0.0,0.0,0.0,0.0,0.0,0.0,0.0,0.0,0.0,0.0,0.0,0.0,0.0,0.0,0.0,0.0,0.0,0.0,0.0,0.0,0.0,0.0,0.0,0.0,0.0,0.0,0.0,0.0,0.0,0.0,0.0,0.0,0.0,0.0,0.0,0.0,0.0,0.0,0.0,0.0,0.0,0.0,0.0,0.0,0.0,0.0,0.0,0.0,0.0,0.0,0.0,0.0,0.0,0.0,0.0,0.0,0.0,0.0,0.0,0.0,0.0,0.0,0.0,0.0,0.0,0.0,0.0,0.0,0.0,0.0,0.0,0.0,0.0,0.0,0.0,0.0,0.0,0.0,0.0,0.0,0.0,0.0,0.0,0.0,0.0,0.0,0.0,0.0,0.0,0.0,0.0,0.0,0.0,0.0,0.0,0.0,0.0,0.0,0.0,0.0,0.0,0.0,0.0,0.0,0.0,0.0,0.0,0.0,0.0,0.0,0.0,0.0,0.0,0.0,0.0,0.0,0.0,0.0,0.0,0.0,0.0,0.0,0.0,0.0,0.0,0.0,0.0,0.0,0.0,0.0,0.0,0.0,0.0,0.0,0.0,0.0,0.0,0.0,0.0,0.0,0.0,0.0,0.0,0.0,0.0,0.0,0.0,0.0,0.0,0.0,0.0,0.0,0.0,0.0,0.0,0.0,0.0,0.0,0.0,0.0,0.0,0.0,0.0,0.0,0.0,0.0,0.0,0.0,0.0,0.0,0.0,0.0,0.0,0.0,0.0,0.0,0.0,0.0,0.0,0.0,0.0,0.0,0.0,0.0,0.0,0.0,0.0,0.0,0.0,0.0,0.0,0.0,0.0,0.0,0.0,0.0,0.0,0.0,0.0,0.0,0.0,0.0,0.0,0.0,0.0,0.0,0.0,0.0,0.0,0.0,0.0,0.0,0.0,0.0,0.0,0.0,0.0,0.0,0.0,0.0,0.0,0.0,0.0,0.0,0.0,0.0,0.0,0.0,0.0,0.0,0.0,0.0,0.0,0.0,0.0,0.0,0.0,0.0,0.0,0.0,0.0,0.0,0.0,0.0,0.0,0.0,0.0,0.0,0.0,0.0,0.0,0.0,0.0,0.0,0.0,0.0,0.0,0.0,0.0,0.0,0.0,0.0,0.0,0.0,0.0,0.0,0.0,0.0,0.0,0.0,0.0,0.0,0.0,0.0,0.0,0.0,0.0,0.0,0.0,0.0,0.0,0.0,0.0,0.0,0.0,0.0,0.0,0.0,0.0,0.0,0.0,0.0,0.0,0.0,0.0,0.0,0.0,0.0,0.0,0.0,0.0,0.0,0.0,0.0,0.0,0.0,0.0,0.0,0.0,0.0,0.0,0.0,0.0,0.0,0.0,0.0,0.0,0.0,0.0,0.0,0.0,0.0,0.0,0.0,0.0,0.0,0.0,0.0,0.0,0.0,0.0,0.0,0.0,0.0,0.0,0.0,0.0,0.0,0.0,0.0,0.0,0.0,0.0,0.0,0.0,0.0,0.0,0.0,0.0,0.0,0.0,0.0,0.0,0.0,0.0,0.0,0.0,0.0,0.0,0.0,0.0,0.0,0.0,0.0,0.0,0.0,0.0,0.0,0.0,0.0,0.0,0.0,0.0,0.0,0.0,0.0,0.0,0.0,0.0,0.0,0.0,0.0,0.0,0.0,0.0,0.0,0.0,0.0,0.0,0.0,0.0,0.0,0.0,0.0,0.0,0.0,0.0,0.0,0.0,0.0,0.0,0.0,0.0,0.0,0.0,0.0,0.0,0.0,0.0,0.0,0.0,0.0,0.0,0.0,0.0,0.0,0.0,0.0,0.0,0.0,0.0,0.0,0.0,0.0,0.0,0.0,0.0,0.0,0.0,0.0,0.0,0.0,0.0,0.0,0.0,0.0,0.0,0.0,0.0,0.0,0.0,0.0,0.0,0.0,0.0,0.0,0.0,0.0,0.0,0.0,0.0,0.0,0.0,0.0,0.0,0.0,0.0,0.0,0.0,0.0,0.0,0.0,0.0,0.0,0.0,0.0,0.0,0.0,0.0,0.0,0.0,0.0,0.0,0.0,0.0,0.0,0.0,0.0,0.0,0.0,0.0,0.0,0.0,0.0,0.0,0.0,0.0,0.0,0.0,0.0,0.0,0.0,0.0,0.0,0.0,0.0,0.0,0.0,0.0,0.0,0.0,0.0,0.0,0.0,0.0,0.0,0.0,0.0,0.0,0.0,0.0,0.0,0.0,0.0,0.0,0.0,0.0,0.0,0.0,0.0,0.0,0.0,0.0,0.0,0.0,0.0,0.0,0.0,0.0,0.0,0.0,0.0,0.0,0.0,0.0,0.0,0.0,0.0,0.0,0.0,0.0,0.0,0.0,0.0,0.0,0.0,0.0,0.0,0.0,0.0,0.0,0.0,0.0,0.0,0.0,0.0,0.0,0.0,0.0,0.0,0.0,0.0,0.0,0.0,0.0,0.0,0.0,0.0,0.0,0.0,0.0,0.0,0.0,0.0,0.0,0.0,0.0,0.0,0.0,0.0,0.0,0.0,0.0,0.0,0.0,0.0,0.0,0.0,0.0,0.0,0.0,0.0,0.0,0.0,0.0,0.0,0.0,0.0,0.0,0.0,0.0,0.0,0.0,0.0,0.0,0.0,0.0,0.0,0.0,0.0,0.0,0.0,0.0,0.0,0.0,0.0,0.0,0.0,0.0,0.0,0.0,0.0,0.0,0.0,0.0,0.0,0.0,0.0,0.0,0.0,0.0,0.0,0.0,0.0,0.0,0.0,0.0,0.0,0.0,0.0,0.0,0.0,0.0,0.0,0.0,0.0,0.0,0.0,0.0,0.0,0.0,0.0,0.0,0.0,0.0,0.0,0.0,0.0,0.0,0.0,0.0,0.0,0.0,0.0,0.0,0.0,0.0,0.0,0.0,0.0,0.0,0.0,0.0,0.0,0.0,0.0,0.0,0.0,0.0,0.0,0.0,0.0,0.0,0.0,0.0,0.0,0.0,0.0,0.0,0.0,0.0,0.0,0.0,0.0,0.0,0.0,0.0,0.0,0.0,0.0,0.0,0.0,0.0,0.0,0.0,0.0,0.0,0.0,0.0,0.0,0.0,0.0,0.0,0.0,0.0,0.0,0.0,0.0,0.0,0.0,0.0,0.0,0.0,0.0,0.0,0.0,0.0,0.0,0.0,0.0,0.0,0.0,0.0,0.0,0.0,0.0,0.0,0.0,0.0,0.0,0.0,0.0,0.0,0.0,0.0,0.0,0.0,0.0,0.0,0.0,0.0,0.0,0.0,0.0,0.0,0.0,0.0,0.0,0.0,0.0,0.0,0.0,0.0,0.0,0.0,0.0,0.0,0.0,0.0,0.0,0.0,0.0,0.0,0.0,0.0,0.0,0.0,0.0,0.0,0.0,0.0,0.0,0.0,0.0,0.0,0.0,0.0,0.0,0.0,0.0,0.0,0.0,0.0,0.0,0.0,0.0,0.0,0.0,0.0,0.0,0.0,0.0,0.0,0.0,0.0,0.0,0.0,0.0,0.0,0.0,0.0,0.0,0.0,0.0,0.0,0.0,0.0,0.0,0.0,0.0,0.0,0.0,0.0,0.0,0.0,0.0,0.0,0.0,0.0,0.0,0.0,0.0,0.0,0.0,0.0,0.0,0.0,0.0,0.0,0.0,0.0,0.0,0.0,0.0,0.0,0.0,0.0,0.0,0.0,0.0,0.0,0.0,0.0,0.0,0.0,0.0,0.0,0.0,0.0,0.0,0.0,0.0,0.0,0.0,0.0,0.0,0.0,0.0,0.0,0.0,0.0,0.0,0.0,0.0,0.0,0.0,0.0,0.0,0.0,0.0,0.0,0.0,0.0,0.0,0.0,0.0,0.0,0.0,0.0,0.0,0.0,0.0,0.0,0.0,0.0,0.0,0.0,0.0,0.0,0.0,0.0,0.0,0.0,0.0,0.0,0.0,0.0,0.0,0.0,0.0,0.0,0.0,0.0,0.0,0.0,0.0,0.0,0.0,0.0,0.0,0.0,0.0,0.0,0.0,0.0,0.0,0.0,0.0,0.0,0.0,0.0,0.0,0.0,0.0,0.0,0.0,0.0,0.0,0.0,0.0,0.0,0.0,0.0,0.0,0.0,0.0,0.0,0.0,0.0,0.0,0.0,0.0,0.0,0.0,0.0,0.0,0.0,0.0,0.0,0.0,0.0,0.0,0.0,0.0,0.0,0.0,0.0,0.0,0.0,0.0,0.0,0.0,0.0,0.0,0.0,0.0,0.0,0.0,0.0,0.0,0.0,0.0,0.0,0.0,0.0,0.0,0.0,0.0,0.0,0.0,0.0,0.0,0.0,0.0,0.0,0.0,0.0,0.0,0.0,0.0,0.0,0.0,0.0,0.0,0.0,0.0,0.0,0.0,0.0,0.0,0.0,0.0,0.0,0.0,0.0,0.0,0.0,0.0,0.0,0.0,0.0,0.0,0.0,0.0,0.0,0.0,0.0,0.0,0.0,0.0,0.0,0.0,0.0,0.0,0.0,0.0,0.0,0.0,0.0,0.0,0.0,0.0,0.0,0.0,0.0,0.0,0.0,0.0,0.0,0.0,0.0,0.0,0.0,0.0,0.0,0.0,0.0,0.0,0.0,0.0,0.0,0.0,0.0,0.0,0.0,0.0,0.0,0.0,0.0,0.0,-2.0903,0.0,0.0,0.0,0.0,0.0,0.0,0.0,0.0,0.0,0.0,0.0,0.0,0.0,0.0,0.0,0.0,0.0,0.0,0.0,0.0,0.0,0.0,0.0,0.0,0.0,0.0,0.0,0.0,0.0,0.0,0.0,0.0,0.0,0.0,0.0,0.0,0.0,0.0,0.0,0.0,0.0,0.0,0.0,0.0,0.0,0.0,0.0,0.0,0.0,0.0,0.0,0.0,0.0,0.0,0.0,0.0,0.0,0.0,0.0,0.0,0.0,0.0,0.0,0.0,0.0,0.0,0.0,0.0,0.0,0.0,0.0,0.0,0.0,0.0,0.0,0.0,0.0,0.0,0.0,0.0,0.0,0.0,0.0,0.0,0.0,0.0,0.0,0.0,0.0,0.0,0.0,0.0,0.0,0.0,0.0,0.0,0.0,0.0,0.0,0.0,0.0,0.0,0.0,0.0,0.0,0.0,0.0,0.0,0.0,0.0,0.0,0.0,0.0,0.0,0.0,0.0,-2.128,0.0,0.0,0.0,0.0,0.0,0.0,0.0,0.0,0.0,0.0,0.0,0.0,0.0,0.0,0.0,0.0,0.0,0.0,0.0,0.0,0.0,0.0,0.0,0.0,0.0,0.0,0.0,0.0,0.0,0.0,0.0,0.0,0.0,0.0,0.0,0.0,0.0,0.0,0.0,0.0,0.0,0.0,0.0,0.0,0.0,0.0,0.0,0.0,0.0,0.0,0.0,0.0,0.0,0.0,0.0,0.0,0.0,0.0,0.0,0.0,0.0,0.0,0.0,0.0,0.0,0.0,0.0,0.0,0.0,0.0,0.0,0.0,0.0,0.0,0.0,0.0,0.0,0.0,0.0,0.0,0.0,0.0,0.0,0.0,0.0,0.0,0.0,0.0,0.0,0.0,0.0,0.0,0.0,0.0,0.0,0.0,0.0,0.0,0.0,0.0,0.0,0.0,0.0,0.0,0.0,0.0,0.0,0.0,-1.7398,-1.9133,-2.2309,-2.2006,-2.2696,-2.395,-2.209,-2.1726,-2.2552,0.0,0.0,0.0,0.0,0.0,0.0,0.0,0.0,0.0,0.0,0.0,0.0,0.0,0.0,0.0,0.0,0.0,0.0,0.0,0.0,0.0,0.0,0.0,0.0,0.0,0.0,0.0,0.0,0.0,0.0,0.0,0.0,0.0,0.0,0.0,0.0,0.0,0.0,0.0,-2.128,-1.9981,-1.9328,-1.9024,-1.4371,0.0,0.0,0.0,0.0,0.0,0.0,0.0,0.0,0.0,0.0,0.0,0.0,0.0,0.0,0.0,0.0,0.0,0.0,0.0,0.0,0.0,0.0,0.0,0.0,0.0,0.0,0.0,0.0,0.0,0.0,0.0,0.0,0.0,0.0,0.0,0.0,0.0,0.0,0.0,0.0,0.0,0.0,0.0,-1.2686,-1.2645,0.0,0.0,0.0,0.0,0.0,0.0,0.0,0.0,0.0,0.0,0.0,0.0,0.0,-1.4164,-1.4359,-1.616,-1.7817,-1.9138,-1.9832,-2.1731,-2.4605,-2.3229,-2.3581,-2.5264,-2.4741,0.0,-2.3207,-2.3166,0.0,0.0,0.0,0.0,0.0,0.0,0.0,0.0,0.0,0.0,0.0,0.0,0.0,0.0,0.0,0.0,0.0,0.0,0.0,0.0,0.0,0.0,0.0,0.0,0.0,0.0,0.0,0.0,0.0,0.0,0.0,0.0,0.0,0.0,0.0,0.0,-2.0863,-2.1776,-2.2671,-2.1182,-2.0569,-2.061,-1.7364,-1.5766,-1.56,-1.5626,0.0,0.0,0.0,0.0,0.0,0.0,0.0,0.0,0.0,0.0,0.0,0.0,0.0,0.0,0.0,0.0,0.0,0.0,0.0,0.0,0.0,0.0,0.0,0.0,0.0,0.0,0.0,0.0,0.0,0.0,0.0,0.0,0.0,0.0,0.0,0.0,0.0,0.0,0.0,-1.2645,-1.2913,-1.2735,-1.2873,-1.2881,0.0,0.0,0.0,0.0,0.0,0.0,0.0,0.0,0.0,-1.4351,-1.4627,-1.4862,-1.5041,-1.7184,-1.9124,-2.0719,-2.193,-2.3866,-2.6306,-2.5413,-2.557,-2.648,-2.6186,-2.5678,-2.4997,-2.4329,-2.3741,-2.3166,0.0,0.0,0.0,0.0,-2.2044,-2.2111,0.0,0.0,0.0,0.0,0.0,0.0,0.0,0.0,0.0,0.0,0.0,0.0,0.0,0.0,0.0,-2.7727,0.0,0.0,0.0,0.0,0.0,0.0,0.0,0.0,0.0,0.0,0.0,-2.1949,-2.2767,-2.3287,-2.359,-2.2339,-2.1882,-2.2131,-2.0781,-1.9437,-1.8193,-1.8314,-1.7009,0.0,0.0,0.0,0.0,0.0,0.0,0.0,0.0,0.0,0.0,0.0,0.0,0.0,0.0,0.0,0.0,0.0,0.0,0.0,0.0,0.0,0.0,0.0,0.0,0.0,0.0,0.0,0.0,0.0,0.0,0.0,0.0,0.0,0.0,0.0,0.0,0.0,0.0,-1.2873,-1.3149,-1.2929,-1.3181,-1.3262,0.0,0.0,0.0,0.0,0.0,0.0,-1.4367,-1.4546,-1.4765,-1.5041,-1.5814,-1.6313,-1.6508,-1.9043,-2.1,-2.2486,-2.4106,-2.5686,-2.7255,-2.7041,-2.7054,-2.7255,-2.7028,-2.6814,-2.652,-2.5344,-2.4649,-2.4235,-2.35,-2.3153,-2.3073,-2.2926,-2.2873,-2.2953,0.0,0.0,0.0,0.0,0.0,0.0,0.0,0.0,0.0,0.0,0.0,0.0,0.0,0.0,-2.98,-3.0526,-2.9588,-2.8381,0.0,0.0,0.0,0.0,0.0,0.0,0.0,0.0,0.0,-2.2792,-2.342,-2.4022,-2.4496,-2.4482,-2.4555,-2.4895,-2.4454,-2.2422,-1.9155,-1.8353,-1.7266,-1.5961,0.0,0.0,0.0,0.0,0.0,0.0,0.0,0.0,0.0,0.0,0.0,0.0,0.0,0.0,0.0,0.0,0.0,0.0,0.0,0.0,0.0,0.0,0.0,0.0,0.0,0.0,0.0,0.0,0.0,0.0,0.0,0.0,0.0,0.0,0.0,0.0,0.0,0.0,0.0,-1.3124,-1.3701,0.0,0.0,0.0,0.0,-1.414,-1.4302,-1.4554,-1.4911,-1.5098,-1.5439,-1.5885,-1.7863,-1.8976,-1.9109,-2.2627,-2.4494,-2.4589,-2.6315,-2.7146,-2.7268,-2.7255,-2.7255,-2.7268,-2.7255,-2.7241,-2.7134,-2.5959,-2.513,-2.4583,-2.4262,-2.3968,-2.3754,-2.4022,-2.4115,-2.4155,0.0,0.0,0.0,0.0,0.0,0.0,0.0,0.0,0.0,0.0,0.0,0.0,0.0,-2.9855,-3.0956,-3.1524,-3.1878,-3.0711,-2.7533,0.0,0.0,0.0,0.0,0.0,0.0,0.0,-2.2632,-2.3447,-2.4035,-2.4529,-2.4917,-2.4917,-2.5077,-2.5358,-2.5251,-2.4462,-2.3229,-2.2563,-2.1207,-1.9413,-1.8642,-1.6602,0.0,0.0,0.0,0.0,0.0,0.0,0.0,0.0,0.0,0.0,0.0,0.0,0.0,0.0,0.0,0.0,0.0,0.0,0.0,0.0,0.0,0.0,0.0,0.0,0.0,0.0,0.0,0.0,0.0,0.0,0.0,0.0,0.0,0.0,0.0,0.0,0.0,-1.3628,-1.4148,0.0,-1.4083,-1.4432,-1.4732,-1.4854,-1.5236,-1.5626,-1.5983,-1.6064,-1.6292,-1.6714,-1.8659,-1.9723,-1.9932,-2.381,-2.5713,-2.5713,-2.7356,-2.823,-2.8404,-2.8217,-2.8123,-2.8123,-2.7923,-2.7722,-2.7495,-2.6894,-2.652,-2.6279,-2.5798,-2.5545,-2.5424,-2.5144,-2.505,-2.5037,0.0,0.0,0.0,0.0,0.0,0.0,0.0,0.0,0.0,0.0,0.0,-2.848,-2.9305,-3.0956,-3.2166,-3.2588,-3.3468,-3.2503,-2.8938,0.0,0.0,0.0,0.0,0.0,0.0,-2.2565,-2.3313,-2.3915,-2.4502,-2.489,-2.5077,-2.5184,-2.5384,-2.5651,-2.5558,-2.5625,-2.5772,-2.5184,-2.3728,-2.1736,-2.1041,-1.9049,-1.6328,0.0,0.0,0.0,0.0,0.0,0.0,0.0,0.0,0.0,0.0,0.0,0.0,0.0,0.0,0.0,0.0,0.0,0.0,0.0,0.0,0.0,0.0,0.0,0.0,0.0,0.0,0.0,0.0,0.0,0.0,0.0,0.0,0.0,0.0,0.0,-1.4123,-1.4245,-1.4741,-1.5017,-1.4895,-1.526,-1.5585,-1.5772,-1.617,-1.6535,-1.6836,-1.6852,-1.7331,-1.8248,-2.0081,-2.1467,-2.2314,-2.5571,-2.7172,-2.726,-2.8225,-2.8858,-2.9032,-2.8845,-2.8751,-2.8738,-2.843,-2.819,-2.7976,-2.7682,-2.7562,-2.7509,-2.6921,-2.6627,-2.6493,-2.6106,-2.5892,-2.5758,0.0,0.0,0.0,0.0,0.0,0.0,0.0,0.0,0.0,0.0,0.0,-2.9305,-3.013,-3.2038,-3.3395,-3.378,-3.4165,-3.3551,-3.1491,-2.8378,0.0,0.0,0.0,0.0,-2.2017,-2.2913,-2.3647,-2.4235,-2.481,-2.5104,-2.5117,-2.5398,-2.5692,-2.6037,-2.5665,-2.5852,-2.6346,-2.5785,-2.4441,-2.2657,-2.182,-2.0627,-1.91,0.0,0.0,0.0,0.0,0.0,0.0,0.0,0.0,0.0,0.0,0.0,0.0,0.0,0.0,0.0,0.0,0.0,0.0,0.0,0.0,0.0,0.0,0.0,0.0,0.0,0.0,0.0,0.0,0.0,0.0,0.0,0.0,0.0,-1.376,-1.4123,-1.4594,-1.4952,-1.5472,-1.5804,-1.5804,-1.6292,-1.6682,-1.6766,-1.7039,-1.7218,-1.7396,-1.7494,-1.8463,-2.0615,-2.2474,-2.4341,-2.633,-2.8098,-2.9072,-2.9072,-2.9072,-2.9072,-2.9072,-2.9058,-2.9045,-2.9032,-2.8738,-2.8604,-2.8564,-2.827,-2.8221,-2.8167,-2.7509,-2.7094,-2.6827,-2.6827,-2.6627,-2.6293,0.0,0.0,0.0,0.0,0.0,0.0,0.0,0.0,0.0,0.0,-2.848,-2.9727,-3.0534,-3.2441,-3.3688,-3.3798,-3.3908,-3.2594,-2.9408,0.0,0.0,0.0,0.0,0.0,-2.326,-2.3928,-2.4462,-2.4836,-2.5211,-2.5504,-2.5718,-2.5798,-2.5985,-2.6266,-2.6186,-2.6239,-2.6373,-2.6213,-2.5818,-2.5256,-2.4184,-2.2683,-2.0983,0.0,0.0,0.0,0.0,0.0,0.0,0.0,0.0,0.0,0.0,0.0,0.0,0.0,0.0,0.0,0.0,0.0,0.0,0.0,0.0,0.0,0.0,0.0,0.0,0.0,0.0,0.0,0.0,0.0,0.0,0.0,0.0,-1.5658,-1.4036,-1.4635,-1.5301,-1.552,-1.6146,-1.656,-1.656,-1.6925,-1.7185,-1.7234,-1.7526,-1.7721,-1.777,-1.9109,-2.0344,-2.1251,-2.4236,-2.6205,-2.713,-2.877,-2.9673,-2.9673,-2.9673,-2.9673,-2.9673,-2.9459,-2.9245,-2.9032,-2.8738,-2.8484,-2.827,-2.8261,-2.8221,-2.8194,-2.7722,-2.7402,-2.7121,-2.6907,-2.6507,-2.6026,0.0,0.0,0.0,0.0,0.0,0.0,0.0,0.0,0.0,0.0,-2.8828,-3.0149,-3.0956,-3.2551,-3.3633,-3.3798,-3.3358,-3.1876,-2.9008,0.0,0.0,0.0,0.0,-2.334,-2.3941,-2.4529,-2.497,-2.5264,-2.5558,-2.5785,-2.6037,-2.6079,-2.6226,-2.6386,-2.6386,-2.6386,-2.6386,-2.6386,-2.6386,-2.6333,-2.5638,-2.4704,-2.3589,-2.1811,-2.0467,-1.9495,-1.8005,-1.7796,-1.7961,-1.6592,0.0,0.0,0.0,0.0,0.0,0.0,0.0,0.0,0.0,0.0,0.0,0.0,0.0,0.0,0.0,0.0,0.0,0.0,0.0,0.0,0.0,0.0,0.0,0.0,-1.8201,-1.8539,-1.7113,-1.6832,-1.7008,-1.7517,-1.7287,-1.7425,-1.8529,-1.8042,-1.7778,-1.7932,-1.8964,-1.9541,-1.9541,-2.1296,-2.2964,-2.4165,-2.6028,-2.7578,-2.8837,-2.969,-3.01,-3.01,-2.998,-2.9913,-2.99,-2.9619,-2.9392,0.0,-2.8791,-2.8497,-2.8323,-2.8274,-2.8221,0.0,0.0,0.0,0.0,0.0,-2.6426,-2.6092,0.0,0.0,0.0,0.0,0.0,0.0,0.0,0.0,0.0,0.0,0.0,-3.0424,-3.1231,-3.2368,-3.3266,-3.3707,-3.2643,-3.1157,0.0,0.0,0.0,-2.1815,-2.2832,-2.3701,-2.4289,-2.4877,-2.5304,-2.5558,-2.5865,-2.609,-2.609,-2.6266,-2.6386,-2.6386,-2.6386,-2.6386,-2.6386,-2.6386,-2.6386,-2.6386,-2.6386,-2.6373,-2.6081,-2.3362,-2.2371,-2.2213,-1.976,-1.8891,-1.8834,-1.8351,0.0,0.0,0.0,0.0,0.0,0.0,0.0,0.0,0.0,0.0,0.0,0.0,0.0,0.0,0.0,0.0,0.0,0.0,0.0,0.0,0.0,0.0,0.0,0.0,-2.1137,-2.2348,-2.1625,-2.0262,-1.9561,-1.9962,-1.8708,-1.8617,-2.088,-1.9555,-1.8792,-1.9358,-2.1087,-2.2125,-2.2125,0.0,0.0,0.0,0.0,-2.8758,-3.0835,-3.0555,-3.0394,-3.0354,-3.006,-2.99,-2.986,-2.9539,-2.9379,-2.9352,-2.8791,-2.8551,-2.8537,-2.8341,-2.8181,-2.81,-2.7749,-2.7468,-2.7148,-2.66,-2.6386,-2.6346,0.0,0.0,0.0,0.0,0.0,0.0,0.0,0.0,0.0,-2.8132,-2.9104,-3.0002,-3.0809,-3.1708,-3.2533,-3.3266,-3.2203,-3.0337,0.0,0.0,-2.2551,-2.2953,-2.3661,-2.4315,-2.4903,-2.5491,-2.5812,-2.5865,-2.6159,-2.6306,-2.6306,-2.636,-2.6386,-2.6386,-2.6386,-2.6386,-2.6386,-2.6386,-2.6386,-2.6386,-2.6386,-2.6253,-2.5972,-2.5156,-2.453,-2.3996,-2.3047,-2.3002,-2.3083,-2.1209,-2.058,-2.0309,-1.8462,0.0,0.0,0.0,0.0,0.0,0.0,0.0,0.0,0.0,0.0,0.0,0.0,0.0,0.0,0.0,0.0,0.0,0.0,0.0,0.0,-2.1807,-2.2879,-2.3581,-2.3843,-2.4112,-2.3245,-2.0308,-2.0088,-2.0435,-2.1194,-2.0844,-2.1384,-2.3496,-2.3999,-2.4282,-2.4282,-2.6311,-2.7652,-2.8171,-2.9432,-3.0465,-3.1142,-3.0849,-3.0595,-3.0354,0.0,0.0,-2.9553,-2.9018,-2.8778,-2.8751,-2.839,-2.8315,-2.823,-2.8248,-2.7953,-2.7428,-2.7375,-2.7175,-2.6867,-2.652,-2.6386,-2.6346,0.0,0.0,0.0,0.0,0.0,0.0,0.0,0.0,0.0,0.0,-2.8902,-2.9599,-3.0406,-3.0864,-3.1341,-3.1946,-2.9877,0.0,0.0,-2.3757,-2.2832,-2.3728,-2.4329,-2.4917,-2.5504,-2.5889,-2.6104,-2.6172,-2.6319,-2.6386,-2.6386,-2.6386,-2.6386,-2.6386,-2.6386,-2.6386,-2.6386,-2.6386,-2.6386,-2.6386,-2.6386,-2.6306,-2.6146,-2.5852,-2.5464,-2.5024,-2.4583,-2.4516,-2.4422,-2.3173,-2.2341,-2.1581,-2.0309,-1.8891,-1.7304,0.0,0.0,0.0,0.0,0.0,0.0,0.0,0.0,0.0,0.0,0.0,0.0,0.0,0.0,-1.7659,0.0,0.0,-2.1626,-2.41,-2.4879,-2.5545,-2.6223,-2.6834,-2.6142,-2.3436,-2.2803,-2.3128,-2.4387,-2.3666,-2.3685,-2.5087,-2.6158,-2.6728,-2.674,-2.8646,-2.9759,-2.9993,-3.0675,-3.1076,-3.1223,-3.0942,-3.0568,-3.014,-2.9833,-2.9553,-2.9245,-2.8804,-2.8604,-2.8591,-2.8283,-2.8221,-2.8221,-2.8221,-2.7792,-2.7054,-2.7201,-2.6987,-2.6587,-2.644,-2.6306,-2.6146,0.0,0.0,0.0,0.0,0.0,0.0,0.0,0.0,0.0,0.0,0.0,-2.9232,-2.9892,-2.9965,-3.0057,0.0,0.0,0.0,0.0,-2.4089,-2.35,-2.4342,-2.4943,-2.5464,-2.6023,-2.609,-2.6159,-2.6386,-2.6386,-2.6386,-2.6386,-2.6386,-2.6386,-2.6386,-2.6386,-2.6386,-2.6386,-2.6386,-2.6386,-2.6386,-2.6386,-2.6386,-2.636,-2.6132,-2.5825,-2.5478,-2.5251,-2.4903,-2.4529,-2.4342,-2.3352,-2.2122,-2.1886,-2.0563,-1.8688,-1.6527,-1.5712,0.0,0.0,0.0,0.0,0.0,0.0,0.0,0.0,0.0,-1.6532,-1.8596,-1.9309,-2.0189,-2.2298,-2.3129,-2.4074,-2.5936,-2.66,-2.7201,-2.8114,-2.8457,-2.8273,-2.7046,-2.5785,-2.5751,-2.7553,-2.6487,-2.5956,-2.6698,-2.8224,-2.9085,-2.9243,-3.0574,-3.1423,-3.1664,-3.1383,-3.1223,-3.1223,-3.0942,-3.0501,-2.9913,-2.9619,-2.9299,-2.8951,-2.8644,-2.8524,-2.8497,-2.8243,-2.8194,-2.814,-2.8087,-2.7549,-2.6921,-2.7108,-2.6894,-2.6466,-2.6346,-2.6159,-2.6023,0.0,0.0,0.0,0.0,0.0,0.0,0.0,0.0,0.0,0.0,0.0,0.0,0.0,0.0,0.0,0.0,0.0,0.0,0.0,-2.5002,-2.4329,-2.4957,-2.5545,-2.597,-2.6037,-2.6213,-2.636,-2.6386,-2.6386,-2.6386,-2.6386,-2.6386,-2.6386,-2.6386,-2.6386,-2.6386,-2.6386,-2.6386,-2.6386,-2.6386,-2.6386,-2.6386,-2.6386,-2.636,-2.5999,-2.5504,-2.5478,-2.4943,-2.4289,-2.4516,-2.4249,-2.3925,-2.3885,-2.3562,-2.2518,-1.9217,0.0,-1.6689,-1.3785,-1.3879,0.0,-1.6421,-1.7033,-1.7862,0.0,0.0,-1.9375,-2.1483,-2.1993,-2.2719,-2.5085,-2.5341,-2.567,-2.6934,-2.7175,-2.7428,-2.814,-2.8631,-2.9011,-2.9128,-2.7733,-2.7025,-2.7808,-2.7477,-2.8229,-3.0825,-3.0939,-3.1006,-3.1365,-3.1542,-3.1637,-3.1664,-3.1383,-3.1223,-3.1223,-3.0942,-3.0501,-2.9913,-2.9619,-2.9192,-2.8644,-2.8337,-2.8274,-2.8274,-2.8248,-2.7989,-2.7722,-2.7468,-2.7308,-2.7188,-2.6961,-2.6827,-2.6707,-2.6199,-2.6063,-2.5996,0.0,0.0,0.0,0.0,0.0,0.0,0.0,0.0,0.0,0.0,0.0,0.0,0.0,0.0,0.0,0.0,0.0,0.0,-2.5065,-2.454,-2.4543,-2.5304,-2.5732,-2.6039,-2.6199,-2.6333,-2.6386,-2.6386,-2.6386,-2.6386,-2.6386,-2.6386,-2.6386,-2.6386,-2.6386,-2.6386,-2.6386,-2.6386,-2.6386,-2.6386,-2.6386,-2.6293,-2.6132,-2.6132,-2.5665,-2.5024,-2.5197,-2.4703,0.0,0.0,-2.3941,-2.3728,-2.3901,-2.3621,-2.2623,-1.9505,-1.8226,0.0,-1.4354,0.0,0.0,0.0,-1.7909,-1.9293,-2.1354,-2.1473,-2.175,-2.3769,-2.4482,-2.5049,-2.6054,-2.6253,-2.644,0.0,-2.7295,-2.7722,-2.8323,-2.8778,-2.9152,-2.9446,-2.8713,-2.8514,-2.9246,-2.9502,-3.0158,-3.1289,-3.145,-3.1543,-3.1664,-3.1664,-3.1597,-3.1423,-3.1289,-3.1062,-3.0728,-3.0434,-2.9993,-2.9406,-2.9112,-2.8751,-2.8337,-2.8288,-2.8221,-2.8221,-2.7963,-2.7722,-2.7455,-2.7495,-2.7321,-2.7028,-2.7241,-2.7121,-2.6774,-2.636,-2.5999,-2.5651,0.0,0.0,0.0,0.0,0.0,0.0,0.0,0.0,0.0,0.0,0.0,0.0,0.0,0.0,0.0,0.0,0.0,0.0,0.0,-2.4066,-2.4596,-2.5478,-2.5798,0.0,-2.6386,-2.6386,-2.6386,-2.6386,-2.6386,-2.6386,-2.6386,-2.6386,-2.6386,-2.6386,-2.6386,-2.6386,-2.6386,-2.6386,-2.6386,-2.6386,-2.6386,-2.6213,-2.6023,-2.5865,-2.5291,-2.4529,-2.4676,-2.4155,0.0,0.0,-2.314,-2.3006,-2.33,-2.2879,-2.1726,-1.9366,-1.8036,-1.6956,-1.4999,0.0,0.0,-1.8092,-1.962,-2.1299,-2.2695,-2.3329,-2.4099,-2.554,-2.6213,-2.6533,-2.6613,-2.6667,-2.6787,-2.7028,-2.7415,-2.7936,-2.8631,-2.8911,-2.9152,-2.9446,-2.9219,-2.9299,-2.994,-3.0528,-3.0929,-3.1089,-3.1383,-3.1583,-3.1664,-3.1597,-3.145,-3.1236,-3.1076,-3.0742,-3.0247,-2.994,-2.9499,-2.8911,-2.8711,-2.8444,-2.8221,-2.814,-2.8016,-2.8003,-2.7789,-2.7535,-2.7281,-2.7575,-2.7402,-2.6987,-2.7415,-2.7268,-2.6787,-2.6493,-2.6012,-2.5464,0.0,0.0,0.0,0.0,0.0,0.0,0.0,0.0,0.0,0.0,0.0,0.0,0.0,0.0,0.0,0.0,0.0,0.0,0.0,-2.4066,-2.4596,-2.5478,-2.5798,-2.6092,-2.6386,-2.6386,-2.6386,-2.6386,-2.6386,-2.6386,-2.6386,-2.6386,-2.6386,-2.6386,-2.6386,-2.6386,-2.6386,-2.6386,-2.6386,-2.6386,-2.6386,-2.6213,-2.5919,-2.5638,-2.4983,-2.4182,-2.3915,0.0,0.0,0.0,-2.2031,-2.2071,-2.2365,-2.1555,0.0,-1.91,-1.744,-1.6056,0.0,0.0,-2.1076,-2.1628,-2.3344,-2.5042,-2.5335,-2.5841,-2.6413,-2.672,-2.68,-2.6894,-2.7188,-2.6774,-2.668,-2.7535,-2.7682,-2.8016,-2.8898,-2.9032,-2.9152,-2.9446,-2.9219,-2.9045,0.0,-2.9606,-3.0194,-3.0768,-3.1076,-3.137,-3.165,-3.1396,-3.1236,-3.1223,-3.0675,-3.0234,-2.9927,-2.9646,-2.9205,-2.8617,-2.8604,-2.8444,-2.8221,-2.7843,-2.7709,-2.7709,-2.7696,-2.7535,-2.7281,-2.7575,-2.7522,-2.7255,-2.7268,-2.7094,-2.6787,-2.6493,-2.6012,-2.5464,0.0,0.0,0.0,0.0,0.0,0.0,0.0,0.0,0.0,0.0,0.0,0.0,0.0,0.0,0.0,0.0,0.0,0.0,0.0,-2.2997,-2.3928,-2.4609,-2.5491,-2.5999,-2.6106,-2.6293,-2.6386,-2.6386,-2.6386,-2.6386,-2.6386,-2.6386,-2.6386,-2.6386,-2.6386,-2.6386,-2.6386,-2.6386,-2.6386,-2.6373,-2.6186,-2.5919,-2.5651,-2.5545,-2.4596,-2.3273,0.0,0.0,0.0,0.0,0.0,0.0,-2.1456,-2.1095,0.0,-1.922,-1.8233,-1.7609,0.0,0.0,-2.2227,-2.2743,-2.4418,-2.6026,-2.6319,-2.668,-2.7001,-2.7094,-2.7268,-2.7375,-2.7281,-2.7255,-2.7228,-2.7134,-2.7789,-2.827,-2.8163,-2.8657,-2.9005,-2.8911,-2.8631,0.0,0.0,0.0,0.0,-3.0181,-3.0488,-3.0782,-3.1076,-3.0996,-3.0849,-3.0662,-3.0274,-2.9927,-2.9633,-2.9152,-2.8804,-2.8604,-2.839,-2.8136,-2.7843,-2.7749,-2.7696,-2.7682,-2.7495,-2.7362,-2.7268,-2.7375,-2.7241,-2.6987,-2.7188,-2.6961,-2.652,-2.6426,-2.5892,-2.5211,0.0,0.0,0.0,0.0,0.0,0.0,0.0,0.0,0.0,0.0,0.0,0.0,0.0,0.0,0.0,0.0,0.0,0.0,0.0,0.0,-2.2886,-2.3688,-2.4342,-2.4796,-2.501,-2.509,-2.5291,-2.5611,-2.5611,-2.5772,-2.6079,-2.6186,-2.6239,-2.6239,-2.6346,-2.6386,-2.6386,-2.6386,-2.6213,-2.5905,-2.5718,-2.5211,-2.4556,-2.4449,-2.35,0.0,0.0,0.0,0.0,0.0,0.0,0.0,-2.0708,-2.0506,-2.0017,-1.8865,-1.8867,-1.9352,-2.0104,-2.1895,-2.3681,-2.4351,-2.5543,-2.6627,-2.6921,-2.7134,-2.7268,-2.7268,-2.7241,-2.7175,-2.6987,-2.6854,-2.6774,-2.6814,-2.7562,-2.8136,-2.8177,-2.8671,-2.8965,-2.8778,-2.8497,0.0,0.0,0.0,0.0,-2.9579,-2.998,-3.0327,-3.0621,-3.0635,-3.0501,-3.0207,-2.9913,-2.9566,-2.9179,-2.8791,-2.8551,-2.8444,-2.8243,-2.8127,-2.7856,-2.7749,-2.7696,-2.7682,-2.7388,-2.7268,-2.7268,-2.7268,-2.7094,-2.6827,-2.6921,-2.6653,-2.6226,-2.6119,-2.5718,-2.5224,0.0,0.0,0.0,0.0,0.0,0.0,0.0,0.0,0.0,0.0,0.0,0.0,0.0,0.0,0.0,0.0,0.0,0.0,0.0,0.0,0.0,-2.2794,-2.2539,-2.2699,-2.3287,-2.3033,-2.3313,-2.4182,-2.4182,-2.4609,-2.5424,-2.5718,-2.5916,-2.5929,-2.6132,-2.6253,-2.6253,-2.6253,-2.5772,-2.4983,-2.497,-2.4115,-2.2806,-2.2525,0.0,0.0,0.0,0.0,0.0,0.0,0.0,0.0,0.0,-1.9852,-1.9256,-1.8463,-1.9437,-2.1108,-2.2644,-2.4123,-2.5438,-2.6547,-2.6841,-2.6934,-2.7201,-2.7281,-2.7281,-2.7255,-2.6774,-2.6373,0.0,0.0,-2.5504,-2.66,-2.7094,-2.7709,-2.8791,-2.9005,-2.9032,0.0,0.0,0.0,0.0,0.0,0.0,-2.8978,0.0,-2.998,-3.0274,-3.0301,-3.0167,-2.9873,-2.9593,-2.9165,-2.8617,-2.8591,-2.843,-2.8221,-2.8221,-2.8221,-2.8194,-2.7816,-2.7682,-2.7655,-2.7375,-2.7241,-2.7241,-2.7228,-2.7041,-2.6747,-2.6453,-2.6172,-2.5956,-2.5598,-2.5478,-2.5424,0.0,0.0,0.0,0.0,0.0,0.0,0.0,0.0,0.0,0.0,0.0,0.0,0.0,0.0,0.0,0.0,0.0,0.0,0.0,0.0,0.0,0.0,0.0,0.0,0.0,0.0,0.0,0.0,0.0,-2.3995,-2.4222,-2.4289,-2.4329,0.0,-2.4409,-2.4436,-2.4436,-2.4436,-2.4182,-2.3754,0.0,-2.3073,-2.2525,0.0,0.0,0.0,0.0,0.0,0.0,0.0,0.0,0.0,0.0,-2.108,-2.1371,-2.1594,-2.244,-2.3458,-2.4328,-2.5474,-2.6453,-2.6747,-2.7148,-2.7442,-2.7295,-2.7428,-2.7468,-2.7028,-2.648,-2.6066,0.0,0.0,0.0,-2.6159,-2.7348,0.0,-2.7762,-2.8484,0.0,-2.8751,0.0,-2.8818,-2.8524,-2.8564,0.0,0.0,-2.8724,-2.9072,-2.9366,-2.9379,-2.9339,-2.9272,-2.8978,-2.8751,-2.8604,-2.8377,-2.8301,-2.8221,-2.8221,-2.8114,-2.7802,-2.7509,-2.7375,-2.7362,-2.7068,-2.6934,-2.6921,-2.6707,-2.644,-2.6146,-2.5852,-2.5558,-2.5291,-2.5224,-2.505,-2.4823,0.0,0.0,0.0,0.0,0.0,0.0,0.0,0.0,0.0,0.0,0.0,0.0,0.0,0.0,0.0,0.0,0.0,0.0,0.0,0.0,0.0,0.0,0.0,0.0,0.0,0.0,0.0,0.0,0.0,0.0,0.0,-2.318,-2.318,-2.318,-2.3313,-2.3437,-2.3437,0.0,0.0,0.0,0.0,0.0,0.0,0.0,0.0,0.0,0.0,0.0,0.0,0.0,0.0,-2.151,-2.1643,-2.2191,-2.2913,-2.3621,0.0,-2.493,-2.5651,-2.6413,-2.7041,-2.7175,-2.7362,-2.7468,-2.7308,-2.7094,-2.6774,-2.6186,-2.5491,0.0,0.0,0.0,0.0,0.0,0.0,0.0,-2.8043,-2.8724,-2.9179,0.0,-2.9138,0.0,-2.8644,-2.8724,-2.8617,0.0,-2.843,-2.8684,-2.8845,-2.8965,-2.8978,-2.8858,-2.8698,-2.8537,-2.8404,-2.8315,-2.8221,-2.8221,-2.8003,-2.7923,-2.7883,-2.7455,-2.7335,-2.7428,0.0,-2.6747,-2.6613,-2.6319,-2.6026,-2.5732,-2.5438,-2.5224,-2.505,-2.4796,-2.4596,-2.4409,0.0,0.0,0.0,0.0,0.0,0.0,0.0,0.0,0.0,0.0,0.0,0.0,0.0,0.0,0.0,0.0,0.0,0.0,0.0,0.0,0.0,0.0,0.0,0.0,0.0,0.0,0.0,0.0,0.0,0.0,0.0,0.0,0.0,0.0,0.0,0.0,0.0,0.0,0.0,0.0,0.0,0.0,0.0,0.0,0.0,0.0,0.0,0.0,0.0,0.0,-2.1884,-2.2285,-2.2605,-2.33,-2.4155,-2.4957,-2.5398,-2.5798,-2.66,-2.7068,-2.7388,-2.7642,-2.7509,-2.7308,-2.7228,-2.6533,-2.5718,-2.509,0.0,-2.3514,-2.326,0.0,-2.4128,-2.5224,0.0,-2.7655,-2.8764,-2.9205,-2.9419,-2.9419,-2.9499,-2.9299,-2.8671,-2.8871,-2.8791,-2.8274,-2.839,-2.8551,-2.8551,-2.8791,-2.8804,-2.8551,-2.8551,-2.8417,-2.8234,-2.8181,-2.8167,-2.8167,-2.7816,-2.7816,-2.8087,-2.7495,-2.7375,-2.7549,0.0,0.0,-2.6306,-2.6012,-2.5718,-2.5424,-2.513,-2.5024,-2.4957,-2.4409,-2.4209,-2.4155,0.0,0.0,0.0,0.0,0.0,0.0,0.0,0.0,0.0,0.0,-2.5078,-2.4334,0.0,0.0,0.0,0.0,0.0,0.0,0.0,0.0,0.0,0.0,0.0,0.0,0.0,0.0,0.0,0.0,0.0,0.0,0.0,0.0,0.0,0.0,0.0,0.0,0.0,0.0,0.0,0.0,0.0,0.0,0.0,0.0,0.0,0.0,0.0,0.0,0.0,0.0,-2.2605,-2.3554,-2.4088,-2.469,-2.5291,-2.5692,-2.6012,-2.6319,-2.672,-2.7215,-2.7642,-2.7682,-2.7669,-2.7495,-2.7014,-2.6213,0.0,0.0,0.0,-2.2632,-2.2592,-2.3233,0.0,-2.4676,0.0,0.0,0.0,0.0,-2.9112,0.0,0.0,0.0,0.0,0.0,0.0,0.0,0.0,0.0,-2.8315,-2.827,-2.8355,-2.8315,-2.8315,-2.8274,-2.8221,-2.7896,-2.7776,-2.7776,-2.7722,-2.7602,-2.7415,-2.7308,-2.7161,-2.6947,-2.6613,0.0,-2.6012,-2.5718,-2.5411,-2.513,-2.4823,-2.4716,-2.4676,-2.4329,-2.4209,-2.4128,0.0,0.0,0.0,0.0,0.0,0.0,0.0,-2.6619,-2.6105,-2.5857,-2.4626,-2.3364,-2.2145,-2.0629,0.0,0.0,0.0,0.0,0.0,0.0,0.0,0.0,0.0,0.0,0.0,0.0,0.0,0.0,0.0,0.0,0.0,0.0,0.0,0.0,0.0,0.0,0.0,0.0,0.0,0.0,0.0,0.0,0.0,0.0,0.0,0.0,0.0,0.0,0.0,0.0,-2.2752,-2.4128,-2.4863,-2.5491,-2.5999,-2.6146,-2.66,-2.7068,-2.7054,-2.7709,-2.8283,-2.7816,-2.7696,-2.7428,-2.6373,0.0,0.0,0.0,-2.2579,-2.1924,-2.1764,0.0,0.0,0.0,0.0,0.0,0.0,0.0,0.0,0.0,0.0,0.0,0.0,0.0,0.0,0.0,0.0,0.0,-2.8221,-2.8221,-2.8221,-2.8221,-2.7989,-2.7909,-2.7909,-2.7762,-2.7696,-2.7696,-2.7549,-2.7482,-2.7468,-2.7014,-2.6814,-2.6814,-2.652,0.0,-2.5718,-2.5571,-2.5251,-2.4823,-2.4529,-2.4409,-2.4356,-2.3915,-2.3741,-2.3688,0.0,0.0,0.0,0.0,0.0,0.0,0.0,-2.6408,-2.5625,-2.6201,-2.4409,-2.251,-2.1142,-1.9668,-1.8736,0.0,0.0,0.0,0.0,0.0,0.0,0.0,0.0,0.0,0.0,0.0,0.0,0.0,0.0,0.0,0.0,0.0,0.0,0.0,0.0,0.0,0.0,0.0,0.0,0.0,0.0,0.0,0.0,0.0,0.0,0.0,0.0,0.0,0.0,0.0,-2.2605,-2.4075,-2.4957,-2.5758,-2.6373,-2.6319,-2.6921,-2.7549,-2.7321,-2.8043,-2.8671,-2.7896,-2.7655,-2.7228,-2.5758,-2.4743,0.0,0.0,-2.1857,-2.139,-2.1149,0.0,0.0,0.0,0.0,0.0,0.0,0.0,0.0,0.0,0.0,0.0,0.0,0.0,0.0,0.0,0.0,0.0,-2.8221,-2.8167,-2.8127,-2.8127,-2.7762,-2.7642,-2.7696,-2.7575,-2.7535,-2.7602,-2.7308,-2.7255,-2.7388,-2.6707,-2.648,-2.6613,-2.6333,0.0,0.0,-2.5424,-2.5077,-2.4516,-2.4289,-2.4168,-2.4048,-2.3527,-2.3327,-2.3287,0.0,0.0,0.0,0.0,0.0,0.0,0.0,-2.6615,-2.6054,-2.5945,-2.4505,-2.2742,-2.0866,-2.0299,-1.9742,0.0,0.0,0.0,0.0,0.0,0.0,0.0,0.0,0.0,0.0,0.0,0.0,0.0,0.0,0.0,0.0,0.0,0.0,0.0,0.0,0.0,0.0,0.0,0.0,0.0,0.0,0.0,0.0,0.0,0.0,0.0,0.0,0.0,0.0,0.0,0.0,-2.314,-2.4035,-2.5277,-2.6333,-2.6079,0.0,0.0,-2.7268,-2.7819,-2.8136,-2.7789,-2.7495,-2.6921,-2.5451,0.0,0.0,-2.2271,-2.1563,-2.1149,-2.1109,-2.1617,0.0,0.0,0.0,0.0,0.0,0.0,0.0,0.0,0.0,0.0,0.0,0.0,0.0,0.0,0.0,0.0,0.0,-2.7883,-2.7736,-2.7736,-2.7455,-2.7428,-2.7696,-2.7175,-2.7041,-2.7308,-2.7001,-2.6734,-2.6507,-2.6426,-2.6266,-2.6026,-2.5718,0.0,0.0,-2.5117,-2.477,-2.4235,-2.4209,-2.4035,-2.3768,-2.3447,-2.3327,-2.3287,0.0,0.0,0.0,0.0,0.0,0.0,-2.7276,-2.5578,-2.4556,-2.5507,-2.3766,-2.207,-2.108,-2.0733,-2.0016,-1.8483,0.0,0.0,0.0,0.0,0.0,0.0,0.0,0.0,0.0,0.0,0.0,0.0,0.0,0.0,0.0,0.0,0.0,0.0,0.0,0.0,0.0,0.0,0.0,0.0,0.0,0.0,0.0,0.0,0.0,0.0,0.0,0.0,0.0,0.0,0.0,0.0,-2.2806,-2.3768,0.0,0.0,-2.644,-2.7268,-2.7268,-2.7963,-2.8524,-2.7856,-2.7482,-2.6881,-2.5411,0.0,0.0,-2.2191,-2.1523,-2.1109,-2.1109,-2.1296,-2.163,0.0,0.0,0.0,0.0,0.0,0.0,0.0,0.0,0.0,0.0,0.0,0.0,0.0,0.0,0.0,0.0,-2.7856,-2.7776,-2.7963,-2.7682,-2.7495,-2.7442,-2.7201,-2.7054,-2.7001,-2.6881,-2.6667,-2.6386,-2.6213,-2.5972,-2.5678,-2.5558,0.0,0.0,-2.481,-2.4476,-2.3928,-2.3741,-2.3607,-2.3474,-2.3166,-2.3046,-2.3033,0.0,0.0,0.0,0.0,0.0,-2.581,-2.6539,-2.4601,-2.3428,-2.4645,-2.2929,-2.148,-2.1285,-2.0803,-2.0017,-1.8611,-1.845,0.0,0.0,0.0,0.0,0.0,0.0,0.0,0.0,0.0,-1.943,-1.943,-1.9452,0.0,0.0,0.0,0.0,0.0,0.0,0.0,0.0,0.0,0.0,0.0,0.0,0.0,0.0,0.0,0.0,0.0,0.0,0.0,0.0,0.0,0.0,0.0,0.0,0.0,0.0,0.0,-2.5892,-2.68,-2.7068,-2.7869,-2.8497,-2.7856,-2.7482,-2.6841,0.0,0.0,0.0,-2.1964,-2.1403,-2.1109,-2.1109,-2.1109,-2.1203,0.0,0.0,0.0,0.0,0.0,0.0,0.0,0.0,0.0,0.0,0.0,0.0,0.0,0.0,0.0,0.0,-2.7522,-2.7482,-2.7953,-2.7589,-2.7335,-2.7134,-2.7054,-2.6947,-2.6814,-2.6653,-2.6453,-2.6253,-2.5865,-2.5531,-2.5251,0.0,0.0,0.0,-2.4382,-2.4088,-2.3621,-2.3407,-2.3273,-2.3166,-2.2939,-2.2928,-2.2928,0.0,0.0,0.0,0.0,0.0,0.0,-2.4713,-2.3876,-2.3224,-2.312,-2.1912,-2.1047,-2.1314,-2.0348,-1.9674,-1.9612,-1.8851,0.0,0.0,0.0,0.0,0.0,0.0,0.0,0.0,0.0,-1.943,-1.943,-1.9653,-1.9653,-1.943,-1.943,0.0,0.0,0.0,0.0,0.0,0.0,0.0,0.0,0.0,0.0,0.0,0.0,0.0,0.0,0.0,0.0,0.0,0.0,0.0,0.0,0.0,0.0,0.0,0.0,-2.4836,-2.5718,-2.6587,-2.7255,-2.7709,-2.7696,-2.7482,-2.6734,0.0,0.0,-2.326,-2.1483,-2.1109,-2.1109,-2.1109,-2.1109,-2.1203,-2.1574,0.0,0.0,0.0,0.0,0.0,0.0,0.0,0.0,0.0,0.0,0.0,0.0,0.0,0.0,0.0,-2.672,-2.6667,-2.7255,-2.6987,-2.6827,-2.6827,-2.6547,-2.6547,-2.6814,-2.6239,-2.6037,-2.5945,-2.5358,-2.493,0.0,0.0,0.0,0.0,-2.3781,-2.3607,-2.3327,-2.3327,-2.314,-2.2928,-2.2928,-2.2928,-2.2928,0.0,0.0,0.0,0.0,0.0,0.0,0.0,-2.2157,-2.1064,-2.1674,-2.0541,-1.9899,-2.0288,-1.972,-1.9237,-1.8999,-1.8611,0.0,0.0,0.0,0.0,0.0,0.0,0.0,0.0,0.0,-1.9466,-1.9666,-1.976,-1.9853,-1.9947,-1.9546,-1.9466,-1.9639,0.0,0.0,0.0,0.0,0.0,0.0,0.0,0.0,0.0,0.0,0.0,0.0,0.0,0.0,0.0,0.0,0.0,0.0,0.0,0.0,0.0,0.0,0.0,0.0,-2.5251,-2.5905,-2.6413,-2.6012,-2.5692,-2.5197,-2.4142,0.0,-2.2579,-2.1617,-2.1256,-2.1109,-2.1109,-2.1109,-2.1336,-2.2031,0.0,0.0,0.0,0.0,0.0,0.0,0.0,0.0,0.0,0.0,0.0,0.0,0.0,0.0,0.0,-2.7947,-2.7435,-2.6947,-2.668,-2.6426,-2.6239,-2.6146,-2.6039,-2.5919,-2.5745,-2.5545,-2.5344,-2.517,0.0,0.0,0.0,0.0,0.0,-2.3474,-2.3287,-2.3006,-2.3006,-2.2953,-2.2928,-2.2928,-2.2928,-2.2928,0.0,0.0,0.0,0.0,0.0,0.0,0.0,-2.0679,-1.978,-1.9892,-1.9175,-1.8867,-1.9507,-1.8959,-1.8594,-1.8837,-1.8551,0.0,0.0,0.0,0.0,0.0,0.0,0.0,-1.901,-1.9127,-1.9317,-1.9608,-1.9953,-2.016,-2.0227,-1.9973,-1.984,-1.9773,-1.9305,0.0,0.0,0.0,0.0,0.0,0.0,0.0,-1.943,0.0,0.0,0.0,0.0,0.0,0.0,0.0,0.0,0.0,0.0,0.0,0.0,0.0,-2.2205,0.0,0.0,-2.4877,-2.5398,-2.5144,-2.4863,0.0,0.0,0.0,-2.2218,-2.1523,-2.1243,-2.1109,-2.1109,-2.1109,-2.1283,-2.183,0.0,0.0,0.0,0.0,0.0,0.0,0.0,0.0,0.0,0.0,0.0,0.0,0.0,0.0,0.0,0.0,-2.8487,-2.7897,-2.7346,-2.669,-2.5785,-2.5785,-2.5692,-2.5504,-2.5291,-2.509,-2.4903,-2.469,0.0,0.0,0.0,0.0,0.0,-2.3153,-2.3033,-2.2928,-2.2928,-2.2928,-2.2928,-2.2928,-2.2928,-2.2928,0.0,0.0,0.0,0.0,0.0,0.0,0.0,-1.9429,-1.914,-1.802,-1.7841,-1.8131,-1.8879,-1.8082,-1.79,-1.8889,0.0,0.0,0.0,0.0,0.0,0.0,0.0,0.0,-1.8415,-1.8706,-1.9024,-1.9337,-2.0252,-2.0521,-2.0294,-2.0535,-2.0347,-1.9813,-1.9506,-1.943,0.0,0.0,0.0,0.0,0.0,-1.9613,0.0,0.0,0.0,0.0,0.0,0.0,0.0,0.0,0.0,0.0,0.0,0.0,0.0,0.0,0.0,0.0,0.0,0.0,0.0,0.0,0.0,0.0,0.0,0.0,0.0,-2.1283,-2.1082,-2.1069,-2.1122,-2.1109,-2.1109,0.0,0.0,0.0,0.0,0.0,0.0,0.0,0.0,0.0,0.0,0.0,0.0,0.0,0.0,0.0,0.0,0.0,-2.984,-2.984,-2.8897,-2.7502,-2.5604,-2.5501,-2.5424,-2.5411,-2.485,-2.4569,-2.4556,-2.4022,0.0,0.0,0.0,0.0,0.0,-2.2928,-2.2928,-2.2928,-2.2928,-2.2928,-2.2928,-2.2928,-2.2928,-2.2928,0.0,0.0,0.0,0.0,0.0,0.0,0.0,0.0,0.0,0.0,-1.7575,-1.7648,-1.7841,-1.7636,-1.761,0.0,0.0,0.0,0.0,0.0,0.0,0.0,0.0,0.0,-1.8415,-1.8706,-1.9129,-1.965,-2.0085,-2.0535,-2.0895,-2.0521,-2.0146,-1.9819,-1.9541,-1.943,0.0,0.0,0.0,0.0,-1.9439,-1.9484,0.0,0.0,0.0,0.0,-1.9693,-1.9987,0.0,0.0,0.0,0.0,0.0,0.0,0.0,0.0,-2.0227,-2.0388,-2.1189,0.0,-2.2565,-2.2418,-2.2498,0.0,0.0,0.0,-2.1363,-2.1149,0.0,-2.0641,-2.1323,0.0,0.0,0.0,0.0,0.0,0.0,0.0,0.0,0.0,0.0,0.0,0.0,0.0,0.0,0.0,0.0,0.0,0.0,0.0,-3.1061,-3.1061,-3.0534,-2.9066,-2.6586,-2.5198,-2.4516,-2.4502,-2.4142,-2.3968,-2.3968,-2.3834,0.0,0.0,0.0,0.0,-2.2928,-2.2928,-2.2928,-2.2928,-2.2928,-2.2928,-2.2928,-2.2928,-2.2928,-2.2928,0.0,0.0,0.0,0.0,0.0,0.0,0.0,0.0,0.0,0.0,0.0,0.0,0.0,0.0,0.0,0.0,0.0,0.0,0.0,0.0,0.0,0.0,0.0,-1.7843,-1.7948,-1.8311,-1.8813,-1.9572,-2.0007,-2.0482,-2.1109,-2.0922,-2.0566,-1.9971,-1.9567,-1.943,-1.943,-1.9506,-1.9492,-1.943,-1.9506,0.0,0.0,0.0,0.0,0.0,-1.9546,-1.9867,0.0,-2.0575,-2.0962,-2.1243,0.0,0.0,0.0,0.0,-1.9907,-2.0067,-2.0388,-2.1122,-2.1777,-2.1764,-2.1764,-2.175,0.0,0.0,0.0,0.0,0.0,0.0,0.0,0.0,0.0,0.0,0.0,0.0,0.0,0.0,0.0,0.0,0.0,0.0,0.0,0.0,0.0,0.0,0.0,0.0,0.0,0.0,-3.2578,-3.2578,-3.1496,-2.986,-2.7712,-2.5898,-2.4971,-2.4971,-2.4056,-2.3567,-2.3567,-2.342,-2.3273,0.0,0.0,0.0,-2.2928,-2.2928,-2.2928,-2.2928,-2.2928,-2.2928,-2.2928,-2.2928,-2.2928,-2.2928,0.0,0.0,0.0,0.0,0.0,0.0,0.0,0.0,0.0,0.0,0.0,0.0,0.0,0.0,0.0,0.0,0.0,0.0,0.0,0.0,0.0,0.0,0.0,-1.7503,-1.7539,-1.7867,-1.8411,-1.9315,-1.9879,-2.0477,-2.1109,-2.1363,-2.1042,-2.0153,-1.9601,-1.9394,-1.9386,-1.9626,-1.9586,-1.9444,-1.9639,0.0,0.0,0.0,0.0,0.0,0.0,0.0,0.0,-2.0454,-2.0935,-2.1387,-2.0775,0.0,0.0,0.0,0.0,0.0,-2.0321,-2.0949,-2.1668,-2.1804,-2.1737,-2.1655,-2.1574,0.0,0.0,0.0,0.0,0.0,0.0,0.0,0.0,0.0,0.0,0.0,0.0,0.0,0.0,0.0,0.0,0.0,0.0,0.0,0.0,0.0,0.0,0.0,0.0,0.0,0.0,-3.3725,-3.1996,-3.0427,-2.9093,-2.7137,-2.604,-2.5816,-2.4275,-2.3456,-2.3247,-2.2979,-2.2928,0.0,0.0,0.0,-2.2928,-2.2928,-2.2928,-2.2928,-2.2928,-2.2928,-2.2928,-2.2928,-2.2928,-2.2928,0.0,0.0,0.0,0.0,0.0,0.0,0.0,0.0,0.0,0.0,0.0,0.0,0.0,0.0,0.0,0.0,0.0,0.0,0.0,0.0,0.0,0.0,-1.7667,-1.7587,-1.7805,-1.7966,-1.8411,-1.9315,-1.9685,-2.0279,-2.1109,-2.1162,-2.0842,-2.0167,-1.9529,-1.9278,-1.943,-1.9412,-1.947,-1.943,-1.9412,0.0,0.0,0.0,0.0,0.0,0.0,0.0,0.0,-1.992,-2.0321,-2.0748,-2.0414,0.0,0.0,0.0,0.0,0.0,-2.0708,-2.1256,-2.1574,-2.1296,-2.159,-2.179,0.0,0.0,0.0,0.0,0.0,0.0,0.0,0.0,0.0,0.0,0.0,0.0,0.0,0.0,0.0,0.0,0.0,0.0,0.0,0.0,0.0,0.0,0.0,0.0,0.0,0.0,0.0,-3.3321,-3.2302,-3.1721,-3.1504,-2.8738,-2.6733,-2.548,-2.4969,-2.4076,-2.2939,-2.2954,-2.2928,0.0,0.0,-2.2928,-2.2928,-2.2928,-2.2928,-2.2928,-2.2928,-2.2928,-2.2928,-2.2928,-2.2928,-2.2928,0.0,0.0,0.0,0.0,0.0,0.0,0.0,0.0,0.0,0.0,0.0,0.0,0.0,0.0,0.0,0.0,0.0,0.0,0.0,0.0,0.0,-1.7933,-1.7815,-1.7876,-1.8177,-1.8185,-1.8832,-2.0024,-2.0149,-2.07,-2.1577,-2.0906,-2.0394,-1.9911,-1.9296,-1.9188,-1.943,-1.943,-1.943,-1.943,0.0,0.0,0.0,0.0,0.0,0.0,0.0,0.0,0.0,0.0,-2.0428,-2.0828,-2.0374,0.0,0.0,0.0,0.0,0.0,-2.0254,-2.0962,-2.1547,-2.1189,-2.167,-2.2111,0.0,0.0,0.0,0.0,0.0,0.0,0.0,0.0,0.0,0.0,0.0,0.0,0.0,0.0,0.0,0.0,0.0,0.0,0.0,0.0,0.0,0.0,0.0,0.0,0.0,0.0,0.0,-3.2881,-3.2313,-3.2001,-3.2001,-3.0434,-2.8511,-2.6283,-2.5404,-2.4278,-2.2928,-2.2928,-2.2928,-2.2928,0.0,-2.2928,-2.2928,-2.2928,-2.2928,-2.2928,-2.2928,-2.2928,-2.2928,-2.2928,-2.2928,-2.2928,0.0,0.0,0.0,0.0,0.0,0.0,0.0,0.0,0.0,0.0,0.0,0.0,0.0,0.0,0.0,0.0,0.0,0.0,0.0,0.0,-1.7575,-1.7768,-1.7841,-1.8058,-1.8434,-1.8567,-1.9235,-2.0579,-2.0643,-2.1057,-2.1739,-2.0821,-2.0159,-1.9668,-1.9285,-1.9187,-1.943,-1.943,-1.943,-1.943,0.0,0.0,0.0,0.0,0.0,0.0,0.0,0.0,0.0,0.0,0.0,0.0,0.0,0.0,0.0,-1.976,-1.9679,-1.984,-2.0054,-2.0762,-2.1416,-2.1256,0.0,0.0,0.0,0.0,0.0,0.0,0.0,0.0,0.0,0.0,0.0,0.0,0.0,0.0,0.0,0.0,0.0,0.0,0.0,0.0,0.0,0.0,0.0,0.0,0.0,0.0,0.0,0.0,-3.2459,-3.2459,-3.2074,-3.1854,-3.1854,-3.1543,-2.9965,-2.7121,-2.6002,-2.4602,-2.2928,-2.2928,-2.2928,-2.2928,-2.2928,-2.2928,-2.2928,-2.2928,-2.2928,-2.2928,-2.2928,-2.2928,-2.2928,-2.2928,-2.2928,-2.2928,0.0,0.0,0.0,0.0,0.0,0.0,0.0,0.0,0.0,0.0,0.0,0.0,0.0,0.0,0.0,0.0,0.0,0.0,0.0,0.0,-1.7491,-1.7503,-1.7744,-1.8106,-1.8676,-1.9,-1.9587,-2.0488,-2.0877,-2.1097,-2.1058,-2.0993,-2.0474,-1.9694,-1.9642,-1.9582,-1.943,-1.943,-1.943,-1.943,-1.943,0.0,0.0,0.0,0.0,0.0,0.0,0.0,0.0,0.0,0.0,0.0,0.0,0.0,-2.0193,-2.0187,-2.0,-1.9973,-2.0788,-2.1082,-2.1203,-2.1521,-2.1777,0.0,-2.2338,-2.1937,0.0,-2.1844,0.0,0.0,0.0,0.0,0.0,0.0,0.0,0.0,0.0,0.0,0.0,0.0,0.0,0.0,0.0,0.0,0.0,0.0,0.0,0.0,0.0,0.0,0.0,-3.2056,-3.1634,-3.1414,-3.1414,-3.1396,-2.9965,-2.7105,-2.6988,-2.5517,-2.2928,-2.2928,-2.2928,-2.2928,-2.2928,-2.2928,-2.2928,-2.2928,-2.2928,-2.2928,-2.2928,-2.2928,-2.2928,-2.2928,-2.2928,-2.2928,0.0,0.0,0.0,0.0,0.0,0.0,0.0,0.0,0.0,0.0,0.0,0.0,0.0,0.0,0.0,0.0,0.0,0.0,0.0,0.0,-1.7551,-1.772,-1.7986,-1.8349,-1.8667,-1.9625,-2.0653,-2.1842,-2.1932,-2.1458,-2.0636,-2.0182,-1.9745,-1.9351,-1.8885,-1.9024,-1.9626,-1.9264,-1.9291,-1.9626,-1.9497,-1.943,0.0,0.0,0.0,0.0,0.0,0.0,0.0,0.0,-1.9773,-2.0027,0.0,0.0,-2.0441,-2.0067,-1.988,-1.9867,-2.0201,-2.0561,-2.0869,-2.0975,-2.1427,0.0,0.0,-2.2392,-2.2781,-2.4001,-2.4274,0.0,0.0,0.0,0.0,0.0,0.0,0.0,0.0,0.0,0.0,0.0,0.0,0.0,0.0,0.0,0.0,0.0,0.0,0.0,0.0,0.0,0.0,-3.1616,-3.1231,-3.1011,-3.1011,-3.0772,-2.9786,-2.8062,-2.7406,-2.6054,-2.4196,-2.3066,-2.2579,-2.2579,-2.2392,-2.2311,-2.2338,-2.2512,-2.2579,-2.2605,-2.2792,-2.2752,-2.2579,-2.2579,-2.2579,-2.2579,0.0,0.0,0.0,0.0,0.0,0.0,0.0,0.0,0.0,0.0,0.0,0.0,0.0,0.0,0.0,0.0,0.0,0.0,-1.7479,-1.7479,-1.7527,-1.7624,-1.8009,-1.8349,-1.8704,-1.9903,-2.1078,-2.2143,-2.2108,-2.1437,-2.026,-1.9788,-1.9527,-1.9351,-1.8893,-1.9148,-1.992,-1.9377,-1.9436,-1.9786,-1.9586,-1.9506,0.0,0.0,0.0,0.0,0.0,0.0,0.0,0.0,-1.9706,0.0,0.0,0.0,0.0,0.0,-2.008,-2.0174,-2.0484,-2.0818,-2.1135,-2.1135,0.0,0.0,-2.2976,-2.3308,-2.4088,-2.6205,-2.6269,0.0,0.0,0.0,0.0,0.0,0.0,0.0,0.0,0.0,0.0,0.0,0.0,0.0,0.0,0.0,0.0,0.0,0.0,0.0,0.0,0.0,0.0,0.0,-3.0919,-3.0736,-3.0607,-3.0332,-2.9833,-2.9119,-2.7539,-2.6125,-2.4847,-2.3543,-2.2671,-2.2271,-2.2071,-2.1991,-2.2004,-2.2298,-2.2418,-2.2432,-2.2539,-2.2458,-2.2285,-2.2285,-2.2285,-2.2298,0.0,0.0,0.0,0.0,0.0,0.0,0.0,0.0,0.0,0.0,0.0,0.0,0.0,0.0,0.0,0.0,0.0,0.0,-1.7479,-1.7479,-1.737,-1.7105,-1.7649,-1.8148,-1.868,-1.9877,-2.0653,-2.0867,-2.1213,-2.092,-2.0106,-2.019,-2.0028,-1.9694,-2.0045,-2.0167,-2.0214,-1.992,-1.98,-1.9813,-1.98,-1.98,-1.98,0.0,0.0,0.0,0.0,0.0,0.0,0.0,-1.9599,-1.9519,0.0,0.0,0.0,0.0,-2.0668,-2.091,-2.1913,-2.2111,-2.2006,0.0,0.0,0.0,-2.4437,-2.4723,-2.5479,-2.8269,0.0,0.0,0.0,0.0,0.0,0.0,0.0,0.0,0.0,0.0,0.0,0.0,0.0,0.0,0.0,0.0,0.0,0.0,0.0,0.0,0.0,0.0,0.0,0.0,-3.0772,-3.0589,-3.0204,-3.0185,-3.0185,-3.0124,-2.7424,-2.5569,-2.4591,-2.4138,-2.3224,-2.1977,-2.1977,-2.1977,-2.2004,-2.2298,-2.2405,-2.2392,-2.2098,-2.1991,-2.1977,-2.1977,-2.1977,-2.2017,0.0,0.0,0.0,0.0,0.0,0.0,0.0,0.0,0.0,0.0,0.0,0.0,0.0,0.0,0.0,0.0,0.0,0.0,-1.7479,-1.7479,-1.7443,-1.737,-1.7742,-1.7995,-1.8208,-1.8876,-1.9774,-2.0901,-2.0977,-2.0598,-1.9763,-1.9394,-1.9498,-2.0041,-1.9443,-1.9724,-2.0508,-1.976,-1.9847,-2.0388,-1.9973,-1.992,-2.0107,0.0,0.0,0.0,0.0,0.0,0.0,0.0,0.0,0.0,0.0,0.0,0.0,-2.0454,-2.0508,-2.0684,-2.0534,-2.1251,0.0,0.0,0.0,0.0,0.0,0.0,0.0,0.0,0.0,0.0,0.0,0.0,0.0,0.0,0.0,0.0,0.0,0.0,0.0,0.0,0.0,0.0,0.0,0.0,0.0,0.0,0.0,0.0,0.0,0.0,0.0,0.0,-3.0094,-2.9874,-2.9764,-2.9489,-2.9489,-2.9745,-2.7729,-2.6365,-2.5603,-2.335,-2.2073,-2.1735,-2.1456,-2.1363,-2.139,-2.1683,-2.1937,-2.2111,-2.2017,-2.1857,-2.1748,-2.1748,-2.1748,-2.1789,0.0,0.0,0.0,0.0,0.0,0.0,0.0,0.0,0.0,0.0,-1.7479,0.0,0.0,0.0,0.0,0.0,0.0,0.0,0.0,-1.7479,-1.7479,-1.7479,-1.7754,-1.8042,-1.8282,-1.8643,-1.9211,-2.0005,-2.0025,-1.9726,-1.9112,-1.9254,-1.9662,-2.0185,-2.0227,-2.0467,-2.0828,-2.0403,-2.0376,-2.0655,-2.0414,-2.0428,-2.0575,0.0,0.0,0.0,0.0,0.0,0.0,0.0,0.0,0.0,0.0,0.0,0.0,-2.0414,-2.0808,-2.1371,-2.1775,0.0,0.0,0.0,0.0,0.0,0.0,0.0,0.0,0.0,0.0,0.0,0.0,0.0,0.0,0.0,0.0,0.0,0.0,0.0,0.0,0.0,0.0,0.0,0.0,0.0,0.0,0.0,0.0,0.0,0.0,0.0,0.0,0.0,-2.9709,-2.9489,-2.9342,-2.9104,-2.9104,-2.9342,-2.7245,-2.6019,-2.5612,-2.3281,-2.1938,-2.1363,-2.1189,-2.1176,-2.1296,-2.1349,-2.155,-2.1804,-2.1683,-2.1537,-2.1376,-2.1376,-2.1376,-2.1416,0.0,0.0,0.0,0.0,0.0,0.0,0.0,0.0,0.0,0.0,-1.7479,-1.7479,0.0,0.0,0.0,0.0,0.0,0.0,0.0,0.0,-1.7491,-1.7515,-1.7787,-1.8151,-1.8631,-1.8852,-1.8902,-1.863,-1.868,-1.8613,-1.8478,-1.9611,-2.0211,-2.0315,-2.1674,-2.1832,-2.1162,-2.1349,-2.1136,-2.0695,-2.0935,-2.1082,-2.1149,-2.1122,0.0,0.0,0.0,0.0,0.0,0.0,0.0,0.0,-1.972,0.0,-1.9618,-2.0544,-2.1437,-2.2602,0.0,0.0,0.0,0.0,0.0,0.0,0.0,0.0,0.0,0.0,0.0,0.0,0.0,0.0,0.0,0.0,0.0,0.0,0.0,0.0,0.0,0.0,0.0,0.0,0.0,0.0,0.0,0.0,0.0,0.0,0.0,0.0,0.0,0.0,-2.9586,-2.9342,-2.8993,-2.8975,-2.8975,0.0,-2.6277,-2.4994,-2.4933,-2.3574,-2.2278,-2.1109,-2.1109,-2.1256,-2.1561,-2.1216,-2.1269,-2.1547,-2.1216,-2.1109,-2.1109,-2.1109,-2.1109,-2.1149,0.0,0.0,0.0,0.0,0.0,0.0,0.0,0.0,0.0,0.0,0.0,0.0,0.0,0.0,0.0,0.0,0.0,0.0,0.0,0.0,-1.7575,-1.7781,-1.8058,-1.8301,-1.841,-1.8252,-1.8154,-1.8074,-1.8494,-1.8713,-1.8818,-1.9504,-2.0231,-2.0927,-2.1176,-2.1371,-2.148,-2.0788,-2.0575,-2.0655,-2.0494,-2.0842,-2.143,-2.1203,-2.1069,0.0,0.0,0.0,0.0,0.0,0.0,0.0,-1.9786,-1.976,-1.991,-2.1095,-2.1801,-2.2498,0.0,0.0,0.0,0.0,0.0,0.0,0.0,0.0,0.0,0.0,0.0,0.0,0.0,0.0,0.0,0.0,0.0,0.0,0.0,0.0,0.0,0.0,0.0,0.0,0.0,0.0,0.0,0.0,0.0,0.0,0.0,0.0,0.0,-2.9104,-2.9104,-2.9067,-2.8975,-2.8975,-2.8975,0.0,-2.6277,-2.4994,-2.4933,-2.2591,-2.1348,-2.1109,-2.1109,-2.1149,-2.1203,-2.1136,-2.1149,-2.1203,-2.1136,-2.1109,-2.1109,-2.1109,-2.1109,-2.1149,0.0,0.0,0.0,0.0,0.0,0.0,0.0,0.0,0.0,0.0,0.0,0.0,0.0,0.0,0.0,0.0,0.0,0.0,0.0,0.0,0.0,-1.8058,-1.8456,-1.8553,-1.83,-1.8143,-1.8069,-1.796,-1.8066,-1.8307,-1.8657,-1.9399,-2.0229,-2.111,-2.1371,-2.133,-2.1172,-2.0788,-2.0575,-2.0481,-2.0601,-2.1015,-2.1588,-2.1229,-2.1029,-2.0869,-2.0575,0.0,0.0,0.0,0.0,0.0,0.0,0.0,-1.9555,-2.0472,-2.1701,-2.3003,0.0,0.0,0.0,0.0,0.0,0.0,0.0,0.0,0.0,0.0,0.0,0.0,0.0,0.0,0.0,0.0,0.0,0.0,0.0,0.0,0.0,0.0,0.0,0.0,0.0,0.0,0.0,0.0,0.0,0.0,0.0,-2.9085,-2.8902,-2.87,-2.87,-2.8608,-2.8407,-2.8407,-2.8407,-2.8407,-2.5927,-2.4147,-2.3076,-2.1727,-2.1109,-2.1109,-2.1109,-2.1109,-2.1109,-2.1109,-2.1109,-2.1109,-2.1109,-2.1109,-2.1109,-2.1109,-2.1109,-2.1136,0.0,0.0,0.0,0.0,0.0,0.0,0.0,0.0,0.0,0.0,0.0,0.0,0.0,0.0,0.0,0.0,0.0,0.0,0.0,0.0,0.0,0.0,-1.871,-1.8758,-1.8372,-1.8263,-1.8131,-1.7975,-1.7691,-1.7846,-1.8585,-1.9309,-2.0201,-2.111,-2.1555,-2.1339,-2.0681,-2.0775,-2.0494,-1.9993,-2.0588,-2.1015,-2.1296,-2.1056,-2.0802,-2.0575,-2.0321,-2.0201,-2.016,-2.0153,0.0,0.0,0.0,0.0,-1.9149,-2.0041,-2.171,-2.361,0.0,0.0,0.0,0.0,0.0,0.0,0.0,0.0,0.0,0.0,0.0,0.0,0.0,0.0,0.0,0.0,0.0,0.0,0.0,0.0,0.0,0.0,0.0,0.0,0.0,0.0,0.0,0.0,0.0,0.0,-2.8993,-2.892,-2.8737,-2.8407,-2.8333,-2.8113,-2.7822,-2.7822,-2.7822,-2.7765,-2.5418,-2.3125,-2.0962,-2.0962,-2.1015,-2.1109,-2.1109,-2.1109,-2.1109,-2.1109,-2.1109,-2.1109,-2.1109,-2.1109,-2.1109,-2.1109,-2.1109,-2.1109,0.0,0.0,0.0,0.0,0.0,0.0,0.0,0.0,0.0,0.0,0.0,0.0,0.0,0.0,0.0,0.0,0.0,0.0,0.0,0.0,0.0,-1.8275,-1.836,-1.8469,-1.8625,-1.8167,-1.7949,-1.7889,-1.7659,-1.808,0.0,-1.9212,-1.9941,-2.1097,-2.0875,-2.0777,-2.0628,-1.9907,-1.9399,-1.9132,-1.9466,-1.992,-2.0401,-2.0361,-2.0321,-2.0294,-2.0254,-2.0067,-1.9893,-2.0147,-2.0167,0.0,0.0,0.0,-1.971,-2.1816,-2.2765,-2.3624,0.0,0.0,0.0,0.0,0.0,0.0,0.0,0.0,0.0,0.0,0.0,0.0,0.0,0.0,0.0,0.0,0.0,0.0,0.0,0.0,0.0,0.0,0.0,0.0,0.0,0.0,0.0,0.0,0.0,0.0,-2.8993,-2.8663,-2.8443,-2.8388,-2.804,-2.782,-2.7822,-2.7822,-2.7822,-2.7765,-2.5286,-2.2737,-2.0347,-2.0347,-2.0628,-2.1109,-2.1109,-2.1109,-2.1109,-2.1109,-2.1109,-2.1109,-2.1109,-2.1109,-2.1109,-2.1109,-2.1109,-2.1109,0.0,0.0,0.0,0.0,0.0,0.0,0.0,0.0,0.0,0.0,0.0,0.0,0.0,0.0,0.0,0.0,0.0,0.0,0.0,0.0,0.0,-1.8046,-1.8215,-1.8275,-1.8227,-1.7853,-1.766,-1.766,0.0,0.0,0.0,-1.9623,-2.0372,-2.1555,-2.1069,-2.0823,-2.0615,-1.9792,-1.9199,-1.8931,-1.9065,-1.976,-2.0628,-1.9813,-1.9907,-2.0374,-1.9546,-1.9279,-1.9359,-1.9653,-1.9853,-1.9987,-1.9987,0.0,0.0,0.0,-2.2016,0.0,0.0,0.0,0.0,0.0,0.0,0.0,0.0,0.0,0.0,0.0,0.0,0.0,0.0,0.0,0.0,0.0,0.0,0.0,0.0,0.0,0.0,0.0,0.0,0.0,0.0,0.0,0.0,0.0,0.0,-2.8645,-2.8645,-2.826,-2.7948,-2.771,-2.7526,-2.7325,-2.7105,-2.7105,-2.6524,-2.5337,-2.4169,-2.2467,-2.0167,-2.0167,-2.0313,-2.0615,-2.0615,-2.0615,-2.0615,-2.0615,-2.0615,-2.0628,-2.0802,-2.0869,-2.0882,-2.1042,-2.1109,-2.1109,0.0,0.0,0.0,0.0,0.0,0.0,0.0,0.0,0.0,0.0,0.0,0.0,0.0,0.0,0.0,0.0,0.0,0.0,0.0,0.0,0.0,-1.7865,-1.801,-1.8022,-1.7877,-1.7551,-1.7418,0.0,0.0,0.0,-1.9665,-2.0198,-2.1069,0.0,-2.1648,-2.1246,-2.0904,-1.988,-1.9345,-1.9132,-1.8985,-1.9573,-2.0468,-1.9666,-1.9867,-2.0414,-1.9239,-1.8918,-1.9078,-1.9292,-1.9506,-1.972,-1.9867,-1.9653,0.0,0.0,0.0,0.0,0.0,0.0,0.0,0.0,0.0,0.0,0.0,0.0,0.0,0.0,0.0,0.0,0.0,0.0,0.0,0.0,0.0,0.0,0.0,0.0,0.0,0.0,0.0,0.0,0.0,0.0,0.0,0.0,0.0,-2.8352,-2.8242,-2.7838,-2.7546,-2.7196,-2.7086,-2.6885,-2.6591,-2.63,-2.5193,-2.3298,-2.3012,-2.1817,-1.9893,-1.9893,-1.982,-1.9773,-2.004,-2.0167,-2.0167,-2.0119,-2.022,-2.03,-2.0403,-2.0535,-2.069,-2.0777,-2.0856,-2.0856,0.0,0.0,0.0,0.0,0.0,0.0,0.0,0.0,0.0,0.0,0.0,0.0,-1.7479,-1.7479,-1.7382,-1.7129,-1.7117,0.0,0.0,0.0,0.0,-1.7865,-1.7648,0.0,-1.7865,-1.737,-1.7237,0.0,0.0,0.0,-1.9911,-2.0919,-2.19,-2.2769,-2.246,-2.2044,-2.1494,0.0,0.0,0.0,-1.9145,-1.8971,-1.9145,-2.0187,-2.0454,-2.0153,-1.9853,-1.9559,-1.9403,-1.9359,-1.943,-1.9492,-2.004,-1.9826,-1.9809,0.0,0.0,0.0,0.0,0.0,0.0,0.0,0.0,0.0,0.0,0.0,0.0,0.0,0.0,0.0,0.0,0.0,0.0,0.0,0.0,0.0,0.0,0.0,0.0,0.0,0.0,0.0,0.0,0.0,0.0,0.0,0.0,-2.8223,-2.7877,-2.7416,-2.7196,-2.7178,-2.6811,-2.6609,-2.6591,-2.5459,-2.4278,-2.3006,-2.1873,-2.0515,-1.8978,-1.8978,-1.8803,-1.855,-1.9687,-2.0167,-2.0167,-1.9937,-2.0169,-2.0593,-1.9972,-2.009,-2.0589,-2.0297,-2.017,-2.017,0.0,0.0,0.0,0.0,0.0,0.0,0.0,0.0,0.0,0.0,0.0,0.0,0.0,-1.7479,-1.7382,-1.7117,-1.7092,0.0,0.0,0.0,0.0,-1.7624,-1.7696,-1.7696,-1.7624,-1.7274,0.0,0.0,0.0,-1.7708,-1.9132,-2.0583,-2.1407,-2.1777,-2.2423,-2.2321,-2.1634,-2.0345,0.0,0.0,0.0,-1.9265,-1.9773,-1.9813,-2.0241,0.0,0.0,0.0,0.0,-1.9296,-1.9118,-1.8878,-1.9265,-1.9252,-1.9453,-2.127,-2.2911,0.0,0.0,0.0,0.0,0.0,0.0,0.0,0.0,0.0,0.0,0.0,0.0,0.0,0.0,0.0,0.0,0.0,0.0,0.0,0.0,0.0,0.0,0.0,0.0,0.0,0.0,0.0,0.0,0.0,0.0,0.0,-2.7398,-2.7013,-2.6793,-2.6793,-2.6664,-2.6245,-2.5459,-2.4816,-2.3463,-2.1544,-2.0859,-1.9839,-1.859,-1.859,-1.8532,-1.8428,-1.8867,-1.9016,-1.9016,-1.8957,-1.9022,-1.9244,-1.9184,-1.9325,-1.9514,-1.9762,-1.9827,-1.9852,0.0,0.0,0.0,0.0,0.0,0.0,0.0,0.0,0.0,-1.7479,0.0,0.0,0.0,0.0,-1.7346,-1.6996,-1.696,-1.696,-1.696,-1.7201,-1.7394,-1.7479,-1.7732,-1.7744,-1.7491,0.0,0.0,0.0,0.0,0.0,0.0,-2.0113,-2.0919,-2.1192,-2.1846,-2.2185,0.0,0.0,0.0,-1.992,0.0,0.0,-2.0094,0.0,0.0,0.0,0.0,0.0,0.0,0.0,0.0,0.0,-1.9011,-1.9215,-1.9528,-2.0378,-2.2071,0.0,-2.4934,0.0,0.0,0.0,0.0,0.0,0.0,0.0,0.0,0.0,0.0,0.0,0.0,0.0,0.0,0.0,0.0,0.0,0.0,0.0,0.0,0.0,0.0,0.0,0.0,0.0,0.0,0.0,0.0,0.0,-2.6995,-2.6738,-2.6591,-2.6591,-2.6118,-2.5441,-2.465,-2.3503,-2.2138,-2.0515,-1.9883,-1.9158,-1.8252,-1.8252,-1.8194,-1.8123,-1.8123,-1.8181,-1.8415,-1.8311,-1.8361,-1.858,-1.8592,-1.8718,-1.8905,-1.9148,-1.9224,-1.9249,0.0,0.0,0.0,0.0,0.0,0.0,0.0,0.0,-1.7479,-1.7479,0.0,0.0,0.0,0.0,0.0,-1.6767,-1.673,-1.673,-1.6718,-1.696,-1.7213,-1.7479,0.0,0.0,0.0,0.0,0.0,0.0,0.0,0.0,0.0,0.0,-2.0392,-2.1026,-2.0718,-2.1533,-2.304,0.0,-2.1911,-2.1844,0.0,-2.004,-1.9973,0.0,0.0,0.0,-2.0681,-2.0481,0.0,-1.9586,0.0,0.0,0.0,0.0,-2.0116,-1.9418,-2.1301,0.0,0.0,0.0,0.0,0.0,0.0,0.0,0.0,0.0,0.0,0.0,0.0,0.0,0.0,0.0,0.0,0.0,0.0,0.0,0.0,0.0,0.0,0.0,0.0,0.0,0.0,0.0,0.0,0.0,0.0,-2.6995,-2.6609,-2.6591,-2.6591,-2.6591,-2.5093,-2.4283,-2.4228,-2.1514,-2.0171,-2.0113,-1.8926,-1.8252,-1.7972,-1.7972,-1.7784,-1.7479,-1.7479,-1.783,-1.8357,-1.8077,-1.8357,-1.8762,-1.8165,-1.8264,-1.8692,-1.8398,-1.8275,-1.8287,0.0,0.0,0.0,0.0,0.0,0.0,-1.7479,-1.7479,-1.7479,0.0,0.0,0.0,-1.7479,-1.7648,-1.7624,-1.7298,-1.7443,-1.7382,-1.7008,-1.7225,-1.7406,-1.7479,-1.7732,-1.7744,-1.7491,0.0,0.0,0.0,0.0,0.0,0.0,0.0,0.0,0.0,-2.0291,-2.0746,-2.0914,-1.9872,0.0,0.0,-1.976,-1.9746,0.0,0.0,0.0,0.0,0.0,-2.0347,-1.996,0.0,-1.9893,-1.9292,0.0,0.0,0.0,0.0,0.0,0.0,-2.252,0.0,0.0,0.0,0.0,0.0,0.0,0.0,0.0,0.0,0.0,0.0,0.0,0.0,0.0,0.0,0.0,0.0,0.0,0.0,0.0,0.0,0.0,0.0,0.0,0.0,0.0,0.0,-2.6408,-2.6244,-2.5971,-2.5971,-2.5971,-2.5971,-2.4723,-2.3575,-2.2733,-2.0859,-1.9492,-1.859,-1.8006,-1.7726,-1.7667,-1.7667,-1.7608,-1.7479,-1.7479,-1.7596,-1.7713,-1.7667,-1.7762,-1.7882,-1.7705,-1.7695,-1.7851,-1.7973,-1.7986,-1.8022,0.0,0.0,0.0,0.0,0.0,-1.7612,-1.7503,-1.7479,-1.7479,0.0,0.0,0.0,-1.7624,-1.7986,-1.8022,-1.7527,-1.7527,-1.737,-1.696,-1.7068,-1.7201,-1.731,-1.7793,-1.7925,-1.7648,0.0,0.0,0.0,0.0,0.0,0.0,0.0,0.0,0.0,0.0,0.0,0.0,0.0,0.0,0.0,-2.0147,0.0,0.0,-2.0708,-2.0615,0.0,0.0,0.0,-2.0027,-2.0374,-2.0067,0.0,0.0,0.0,0.0,0.0,0.0,0.0,-2.2171,0.0,0.0,0.0,0.0,0.0,0.0,-2.6683,0.0,0.0,0.0,0.0,0.0,0.0,0.0,0.0,0.0,0.0,0.0,0.0,0.0,0.0,0.0,0.0,0.0,0.0,0.0,-2.5971,-2.5898,-2.5844,-2.5679,-2.5789,-2.5789,-2.5679,-2.439,-2.3087,-2.1885,-2.0357,-1.8984,-1.7784,-1.7608,-1.7418,-1.7322,-1.743,-1.7418,-1.7322,-1.743,-1.7479,-1.7479,-1.7479,-1.7479,-1.7479,-1.7479,-1.7479,-1.7503,-1.766,-1.7708,-1.7732,0.0,0.0,-1.7491,-1.7527,-1.772,-1.7805,-1.7599,-1.7551,-1.7539,0.0,-1.737,-1.7418,-1.7913,-1.8396,-1.8396,-1.7684,-1.7346,-1.7068,-1.6803,-1.673,-1.6815,-1.708,-1.7805,-1.8082,-1.7829,-1.836,0.0,0.0,0.0,0.0,0.0,0.0,0.0,0.0,0.0,0.0,0.0,0.0,0.0,-2.01,-2.0949,-2.1042,0.0,0.0,-2.1162,-2.0321,-2.0575,-2.0481,-2.0227,-2.0201,-2.004,0.0,0.0,0.0,0.0,0.0,-2.0237,0.0,0.0,-2.4115,-2.6628,0.0,0.0,0.0,-2.7197,-2.6719,0.0,0.0,0.0,0.0,0.0,0.0,0.0,0.0,0.0,0.0,0.0,0.0,0.0,0.0,0.0,0.0,0.0,0.0,-2.5882,-2.5609,-2.559,-2.5626,-2.5571,-2.5826,-2.5898,-2.5624,-2.3983,-2.262,-2.1529,-1.994,-1.8577,-1.7479,-1.7479,-1.7358,-1.7141,-1.737,-1.7358,-1.7153,-1.7382,-1.7467,-1.7443,-1.7467,-1.7479,-1.7479,-1.7479,-1.7479,-1.7479,-1.7479,-1.7479,-1.7479,0.0,0.0,-1.7551,-1.7756,-1.7841,-1.7937,-1.8106,-1.795,-1.7877,-1.8106,-1.8094,-1.8179,-1.8493,-1.8625,-1.8625,-1.8469,-1.7998,-1.7612,-1.7346,-1.6936,-1.6815,-1.708,-1.7443,-1.7612,-1.7563,-1.8094,-1.8082,0.0,0.0,0.0,0.0,0.0,0.0,0.0,0.0,0.0,0.0,0.0,0.0,-1.884,-1.901,0.0,-2.0989,-2.0695,-2.0575,-2.0601,-2.0655,-2.0481,-2.0201,-1.996,-2.0,-2.0,0.0,0.0,0.0,0.0,0.0,0.0,0.0,0.0,0.0,0.0,0.0,0.0,-2.5582,-2.5727,0.0,0.0,0.0,0.0,0.0,0.0,0.0,0.0,0.0,0.0,0.0,0.0,0.0,0.0,0.0,0.0,0.0,0.0,-2.539,-2.5056,-2.5148,-2.5002,-2.4513,-2.5064,-2.5238,-2.4979,-2.2733,-2.1415,-2.1187,-1.8971,-1.7713,-1.7479,-1.7479,-1.7455,-1.7406,-1.7455,-1.7455,-1.7406,-1.7455,-1.7358,-1.7177,-1.7394,-1.7479,-1.7479,-1.7479,-1.7479,-1.7479,-1.7479,-1.7479,-1.7479,-1.7503,-1.7587,-1.772,-1.7853,-1.7986,-1.8131,-1.8275,-1.8179,-1.8131,-1.8275,-1.8517,-1.8638,-1.8505,-1.8722,-1.8662,-1.8131,-1.772,-1.731,-1.6911,-1.6646,-1.6561,-1.6682,-1.7201,-1.7539,-1.7672,-1.795,-1.8022,-1.7889,0.0,0.0,0.0,0.0,0.0,0.0,0.0,0.0,0.0,0.0,-1.7353,-1.8112,-1.9129,0.0,-2.1096,-2.0949,-2.0802,-2.0655,-2.0508,-2.0361,-2.0227,-2.0241,-2.0241,0.0,0.0,-1.9559,-1.9744,0.0,-2.1275,-2.3349,0.0,0.0,0.0,-2.6627,0.0,0.0,0.0,-2.5527,0.0,0.0,0.0,0.0,0.0,0.0,0.0,0.0,0.0,0.0,0.0,0.0,0.0,0.0,0.0,0.0,0.0,0.0,-2.5003,-2.4368,-2.4667,-2.468,-2.423,-2.4691,-2.4576,-2.3751,-2.2426,-2.1178,-2.0004,-1.8963,-1.8123,-1.7479,-1.7479,-1.7346,-1.7092,-1.7225,-1.7141,-1.6887,-1.7032,-1.702,-1.6911,-1.7177,-1.7213,-1.7117,-1.7382,-1.7479,-1.7479,-1.7479,-1.7479,-1.7479,-1.7515,-1.7648,-1.7793,-1.7793,-1.807,-1.83,-1.83,-1.83,-1.83,-1.83,-1.871,-1.8855,-1.8481,-1.8734,-1.8662,-1.7998,-1.7418,-1.6972,-1.6682,-1.6441,-1.6344,-1.6429,-1.7056,-1.7551,-1.7865,-1.7877,-1.7937,-1.8058,0.0,0.0,0.0,0.0,0.0,0.0,0.0,0.0,0.0,0.0,0.0,-1.7905,0.0,-2.0299,-2.0735,-2.1266,-2.1015,-2.0481,-2.0241,-2.0227,-2.0334,-2.0401,0.0,-2.0254,-1.984,-1.996,0.0,0.0,0.0,0.0,0.0,0.0,0.0,0.0,0.0,-2.6078,0.0,0.0,0.0,0.0,0.0,0.0,0.0,0.0,0.0,0.0,0.0,0.0,0.0,0.0,0.0,0.0,0.0,0.0,0.0,0.0,-2.4509,-2.3634,-2.4191,-2.44,-2.4025,-2.4201,-2.3766,-2.2631,-2.1993,-2.0859,-1.8971,-1.8981,-1.846,-1.7479,-1.7479,-1.7261,-1.6863,-1.7068,-1.6923,-1.6525,-1.6694,-1.6742,-1.6718,-1.6923,-1.6863,-1.6682,-1.7261,-1.7455,-1.7418,-1.7467,-1.7479,-1.7479,-1.7443,-1.7503,-1.7527,-1.7527,-1.795,-1.83,-1.83,-1.83,-1.83,-1.83,-1.8553,-1.8794,-1.8963,-1.8625,0.0,-1.9543,0.0,0.0,-1.8022,0.0,-1.6501,-1.6984,-1.7092,-1.737,-1.7865,-1.7877,-1.766,-1.7225,0.0,0.0,0.0,0.0,0.0,0.0,-1.6573,0.0,0.0,0.0,-1.7261,0.0,-1.8323,-1.8628,0.0,-2.0361,-2.0414,-1.9893,-1.9867,-2.0187,-2.0508,0.0,-2.0013,-2.0481,0.0,-1.9786,-2.0334,0.0,0.0,0.0,0.0,0.0,0.0,0.0,-2.7618,0.0,0.0,0.0,0.0,0.0,0.0,0.0,0.0,0.0,0.0,0.0,0.0,0.0,0.0,0.0,0.0,0.0,0.0,0.0,0.0,0.0,-2.3752,-2.3112,-2.3699,-2.3825,-2.3237,-2.2895,-2.2673,-2.2434,-2.0383,-1.9296,-1.9279,-1.8215,-1.7655,-1.7479,-1.7479,-1.7455,-1.7394,-1.7418,-1.7406,-1.7334,-1.7129,-1.6911,-1.6706,-1.673,-1.6585,-1.6404,-1.7177,-1.7334,-1.7165,-1.7394,-1.7479,-1.7479,-1.6972,-1.7274,-1.743,-1.7286,-1.7575,-1.7877,-1.8022,-1.8312,-1.8517,-1.8517,-1.8613,0.0,0.0,0.0,0.0,0.0,0.0,-1.7491,0.0,0.0,-1.6622,-1.6851,-1.6863,-1.7117,-1.7636,-1.7503,-1.731,-1.7092,-1.6779,0.0,0.0,0.0,0.0,0.0,-1.6718,0.0,-1.7477,0.0,0.0,0.0,0.0,0.0,0.0,-1.9741,-2.004,-1.98,-1.98,-1.996,-2.0107,0.0,-1.9867,0.0,0.0,0.0,0.0,0.0,0.0,0.0,0.0,0.0,0.0,0.0,0.0,0.0,-2.5617,0.0,-2.4955,0.0,0.0,0.0,0.0,0.0,0.0,0.0,0.0,0.0,0.0,0.0,0.0,0.0,0.0,0.0,0.0,0.0,0.0,0.0,0.0,-2.3117,-2.2218,-2.1982,-2.1315,-1.9928,-1.892,-1.8197,-1.7805,-1.7465,-1.7334,-1.7479,-1.7334,-1.7177,-1.702,-1.6863,-1.6706,-1.6549,-1.6441,-1.6332,-1.6247,-1.6392,-1.6296,-1.6115,-1.6779,-1.7056,-1.7129,-1.7382,-1.7382,-1.7249,-1.6537,-1.696,-1.7213,0.0,0.0,0.0,0.0,0.0,0.0,0.0,0.0,0.0,-1.877,-1.8553,0.0,0.0,-1.83,-1.7913,0.0,0.0,-1.6911,0.0,0.0,0.0,0.0,-1.7189,-1.6948,-1.6863,-1.6404,0.0,0.0,0.0,0.0,0.0,0.0,-1.7244,-1.7991,0.0,0.0,-1.8193,-1.766,-1.7631,-1.8121,-1.9187,-1.9622,-1.9679,-1.9679,-1.9733,-1.9786,-1.9706,-1.9733,0.0,-1.9706,0.0,0.0,0.0,0.0,0.0,-2.5341,0.0,0.0,0.0,0.0,0.0,0.0,0.0,0.0,0.0,0.0,0.0,0.0,0.0,0.0,0.0,0.0,0.0,0.0,0.0,0.0,0.0,0.0,0.0,0.0,0.0,0.0,0.0,-2.2963,-2.2638,-2.1862,-2.1222,-2.0152,-1.8574,-1.7927,-1.7317,-1.6694,-1.696,-1.7153,-1.7274,-1.708,-1.6887,-1.6694,-1.6489,-1.6296,-1.6103,-1.603,-1.5994,-1.6006,-1.6127,-1.6066,-1.5934,-1.6404,-1.6706,-1.6899,-1.7165,-1.7189,-1.708,-1.6272,-1.6537,0.0,0.0,0.0,0.0,0.0,0.0,0.0,0.0,0.0,0.0,0.0,0.0,0.0,0.0,0.0,-1.8867,-1.9415,0.0,-1.743,0.0,0.0,-1.7068,0.0,0.0,-1.6585,-1.6308,0.0,0.0,0.0,0.0,0.0,0.0,0.0,-1.7092,-1.7129,-1.7416,-1.7973,-1.8591,-1.755,-1.7481,-1.8039,0.0,-1.9145,-1.9386,-1.9386,0.0,0.0,-1.9479,-1.9573,0.0,0.0,0.0,0.0,0.0,0.0,0.0,0.0,0.0,0.0,-2.6046,0.0,0.0,0.0,0.0,-2.5855,0.0,0.0,0.0,0.0,0.0,0.0,-2.5612,0.0,0.0,0.0,0.0,0.0,0.0,0.0,0.0,0.0,0.0,0.0,-2.2637,-2.262,-2.262,-2.2569,-2.0483,-1.9389,-1.9536,-1.7741,-1.675,-1.6706,-1.696,-1.6972,-1.673,-1.6718,-1.6706,-1.6706,-1.6694,-1.6682,-1.6658,-1.6392,-1.6272,-1.6247,-1.6006,-1.5897,-1.5922,-1.6187,-1.6296,-1.6344,-1.6622,-1.6875,-1.7056,0.0,-1.6513,0.0,0.0,0.0,0.0,0.0,-1.7648,0.0,0.0,0.0,0.0,0.0,-1.9096,-1.912,0.0,0.0,-1.8867,-1.8698,-1.801,0.0,0.0,0.0,-1.7418,0.0,0.0,0.0,0.0,0.0,0.0,0.0,0.0,0.0,0.0,0.0,-1.7402,0.0,0.0,0.0,0.0,0.0,-1.7616,-1.8046,0.0,0.0,-1.9078,-1.9078,-1.9265,0.0,-1.9172,-1.9265,-1.9492,-1.9457,-1.9938,-2.0673,-2.106,-2.169,0.0,0.0,0.0,-2.4569,-2.4474,0.0,0.0,0.0,0.0,0.0,0.0,0.0,0.0,0.0,0.0,-2.5505,-2.4986,-2.5057,0.0,0.0,0.0,0.0,0.0,0.0,0.0,0.0,0.0,0.0,-2.2929,-2.274,-2.2283,0.0,-2.0004,-1.8921,-1.8298,-1.6911,-1.6247,-1.6416,-1.6513,-1.661,-1.6694,-1.6513,-1.6429,-1.6416,-1.6247,-1.6163,-1.6163,-1.6066,-1.6018,-1.6018,-1.5922,-1.5885,-1.5897,-1.5982,-1.6018,-1.6079,-1.6537,-1.6646,-1.6549,-1.6549,0.0,0.0,0.0,0.0,0.0,0.0,0.0,0.0,0.0,-1.8734,0.0,-1.941,0.0,-1.9157,0.0,-1.9277,-1.9036,-1.8601,-1.8227,0.0,-1.842,-1.7913,0.0,0.0,0.0,0.0,0.0,0.0,-1.6839,0.0,0.0,0.0,0.0,0.0,0.0,0.0,0.0,-1.8507,0.0,0.0,-1.7648,0.0,0.0,-1.8911,-1.8624,0.0,-1.8891,-1.9038,-1.8958,-1.8985,-1.9078,-1.9057,-1.9658,-2.0387,-2.0273,-2.0802,-2.1493,-2.2,-2.2452,0.0,-2.2994,-2.3424,0.0,-2.3804,0.0,0.0,0.0,0.0,0.0,0.0,0.0,0.0,-2.4862,-2.4752,-2.4328,0.0,-2.3165,0.0,0.0,0.0,0.0,0.0,0.0,-2.3066,-2.31,-2.2401,-2.1658,0.0,0.0,-1.8304,-1.7635,-1.6571,-1.6066,-1.6139,-1.6235,-1.632,-1.6404,-1.6223,-1.6139,-1.6139,-1.597,-1.5885,-1.5885,-1.5885,-1.5885,-1.5885,-1.5885,-1.5885,-1.5885,-1.5885,-1.5885,-1.5934,-1.6284,-1.6296,-1.6151,0.0,0.0,0.0,0.0,-1.7129,0.0,0.0,0.0,-1.8565,0.0,-1.8565,-1.8915,-1.941,-1.9241,-1.9301,-1.9808,-1.9603,0.0,-1.9096,-1.8601,0.0,0.0,-1.8191,-1.8034,-1.8312,0.0,0.0,0.0,0.0,0.0,0.0,0.0,0.0,0.0,-1.7201,0.0,-1.7515,-1.8046,-1.8408,-1.8615,-1.8114,-1.7439,-1.6812,-1.7669,-1.7989,-1.7955,-1.8302,-1.8477,-1.8475,-1.8728,-1.8648,-1.8488,-1.8472,-1.8621,-1.8805,-1.8551,-1.8622,-1.9055,-2.0254,-2.0559,-2.0699,-2.1478,0.0,0.0,0.0,0.0,-2.4986,0.0,0.0,0.0,0.0,0.0,0.0,-2.5241,-2.4343,-2.3496,-2.3077,0.0,0.0,0.0,0.0,0.0,0.0,-2.339,-2.301,-2.3014,-2.1753,-2.0944,0.0,0.0,-1.7635,-1.7582,-1.6721,-1.6139,-1.5897,-1.6139,-1.6139,-1.5885,-1.5885,-1.5885,-1.5885,-1.5885,-1.5885,-1.5885,-1.5885,-1.5885,-1.5885,-1.5885,-1.5885,-1.5885,-1.5885,-1.5885,-1.5885,-1.5885,-1.5885,-1.5922,-1.6791,-1.6839,-1.6911,0.0,-1.7105,-1.7298,0.0,0.0,0.0,0.0,-1.9096,-1.9378,-1.9446,-1.941,-1.9338,-1.9289,-1.9217,0.0,0.0,0.0,0.0,-1.8963,-1.865,-1.8505,-1.8589,-1.8324,0.0,-1.7986,0.0,0.0,-1.8155,0.0,0.0,0.0,0.0,0.0,-1.7503,-1.7841,-1.7913,-1.772,-1.7037,-1.6741,0.0,0.0,-1.6861,-1.7103,-1.7657,-1.7851,-1.7798,-1.7699,-1.7695,-1.7837,-1.7845,-1.8012,-1.8197,-1.7935,-1.8352,-1.8843,-1.8725,-1.8941,-1.9395,-2.0087,-2.0916,-2.1601,0.0,0.0,0.0,0.0,0.0,0.0,0.0,0.0,0.0,0.0,0.0,0.0,0.0,0.0,0.0,-2.3049,0.0,0.0,0.0,-2.3014,-2.2621,-2.155,-2.1927,-2.1404,0.0,0.0,0.0,-1.7635,-1.6533,-1.5958,-1.5885,-1.5958,-1.5958,-1.5885,-1.5885,-1.5885,-1.5885,-1.5885,-1.5885,-1.5885,-1.5885,-1.5885,-1.5885,-1.5885,-1.5885,-1.5885,-1.5885,-1.5885,-1.5885,-1.5885,-1.5885,-1.5897,-1.6851,0.0,0.0,-1.7599,0.0,0.0,-1.7853,0.0,0.0,-1.8843,-1.9132,0.0,-1.9132,-1.9229,-1.9229,-1.9084,-1.9072,0.0,-1.8746,0.0,0.0,-1.8734,-1.8698,-1.8734,-1.8855,-1.871,0.0,-1.8469,0.0,0.0,-1.8082,0.0,0.0,0.0,0.0,-1.7008,0.0,-1.7418,-1.7382,-1.7092,-1.6513,0.0,0.0,-1.6332,-1.6324,-1.6389,-1.6873,-1.708,-1.7207,-1.7223,-1.7181,-1.719,-1.7262,-1.7456,-1.7601,-1.7338,-1.766,-1.8089,-1.7765,-1.7938,-1.8309,-1.8682,-1.9404,-2.0082,-2.0357,-2.1362,-2.2372,0.0,0.0,0.0,0.0,0.0,0.0,0.0,0.0,0.0,0.0,0.0,0.0,0.0,0.0,0.0,0.0,-2.2316,-2.2057,-2.1905,-2.1383,0.0,0.0,0.0,0.0,-1.6895,-1.6205,-1.5885,-1.5885,-1.5885,-1.5885,-1.5885,-1.5885,-1.5885,-1.5885,-1.5885,-1.5885,-1.5885,-1.5885,-1.5885,-1.5885,-1.5885,-1.5885,-1.5885,-1.5885,-1.5885,-1.5885,-1.5885,-1.5885,-1.5885,0.0,0.0,0.0,0.0,0.0,0.0,0.0,-1.8408,0.0,-1.8734,0.0,-1.9084,-1.8819,-1.9024,-1.9181,-1.9181,0.0,-1.8927,-1.8481,-1.8601,-1.8601,-1.8408,-1.8577,-1.8807,-1.9072,-1.9048,0.0,0.0,0.0,0.0,-1.7744,0.0,0.0,0.0,0.0,0.0,0.0,-1.6948,-1.6887,0.0,-1.6344,-1.6091,-1.5939,-1.6164,-1.6111,-1.5939,-1.6164,-1.6418,-1.6668,-1.6908,-1.6832,-1.6615,-1.6651,-1.6859,-1.7034,-1.6738,-1.6906,-1.7129,-1.7092,-1.7236,-1.7382,-1.7382,-1.7851,-1.8493,-1.9181,-1.9439,-1.988,-2.1104,-2.067,-2.0509,0.0,0.0,0.0,0.0,0.0,0.0,0.0,0.0,0.0,0.0,0.0,0.0,0.0,0.0,0.0,-2.2757,-2.0845,0.0,0.0,0.0,0.0,-1.5939,-1.5885,0.0,-1.5885,0.0,-1.5885,-1.5885,-1.5885,-1.5885,-1.5885,-1.5885,-1.5885,-1.5885,-1.5885,-1.5885,-1.5885,-1.5885,-1.5885,-1.5885,-1.5885,-1.5885,-1.5885,-1.5885,-1.5885,-1.5885,0.0,0.0,0.0,0.0,0.0,-1.8348,-1.8517,-1.8807,-1.9012,-1.9012,-1.9434,-1.9639,-1.9362,-1.9579,-1.9748,-1.9748,-1.9531,0.0,0.0,0.0,0.0,-1.8927,-1.877,-1.8807,-1.9072,-1.8867,-1.8625,0.0,-1.7817,-1.7443,-1.7213,0.0,0.0,0.0,0.0,0.0,-1.6706,-1.6754,0.0,-1.6332,-1.6066,-1.5934,-1.5885,-1.5951,-1.5939,-1.5885,-1.5951,-1.5992,-1.6057,-1.6106,-1.6082,-1.6057,-1.6053,-1.6211,-1.6399,-1.6138,-1.6417,-1.6758,-1.6527,-1.6641,-1.6839,-1.6839,-1.7679,-1.8225,-1.7409,-1.8339,-1.9381,-1.9535,-1.8887,-1.8855,-2.0629,0.0,0.0,0.0,0.0,0.0,0.0,0.0,0.0,0.0,0.0,0.0,0.0,0.0,0.0,0.0,0.0,0.0,0.0,0.0,0.0,0.0,-1.5885,0.0,0.0,0.0,-1.5885,-1.5885,-1.5885,-1.5885,-1.5885,-1.5885,-1.5885,-1.5885,-1.5885,-1.5885,-1.5885,-1.5885,-1.5885,-1.5885,-1.5885,-1.5885,-1.5885,-1.5885,-1.5885,-1.5885,0.0,0.0,0.0,0.0,0.0,0.0,0.0,-1.9326,0.0,-1.9108,-1.9301,-1.941,-1.9342,-1.9639,-1.9881,-1.9881,-1.9627,-1.941,-1.9265,-1.8903,-1.8746,-1.8867,-1.8758,0.0,-1.9072,-1.8951,-1.8686,-1.83,-1.7744,-1.7274,-1.6875,0.0,0.0,0.0,0.0,-1.6356,0.0,0.0,0.0,-1.6066,-1.5946,-1.5885,-1.5885,-1.5885,-1.5885,-1.5885,-1.5885,-1.5885,-1.5885,-1.5885,-1.5885,-1.5885,-1.5885,-1.5982,-1.6054,-1.5922,-1.6079,-1.6247,-1.6115,-1.6272,-1.6489,-1.6489,-1.7018,-1.7408,-1.6806,-1.734,-1.7944,-1.7861,-1.7538,-1.7753,-1.925,-1.9659,0.0,0.0,0.0,0.0,0.0,0.0,0.0,0.0,0.0,0.0,0.0,0.0,0.0,0.0,0.0,0.0,0.0,0.0,0.0,0.0,0.0,0.0,0.0,0.0,0.0,-1.5885,-1.5885,-1.5885,-1.5885,-1.5885,-1.5885,-1.5885,-1.5885,-1.5885,-1.5885,-1.5885,-1.5885,-1.5885,-1.5885,-1.5885,-1.5885,-1.5885,-1.5885,-1.5885,0.0,-1.8239,0.0,0.0,-1.8819,0.0,-1.9475,-1.97,-1.9748,-1.9386,-1.9338,-1.9338,-1.9338,-1.976,-2.0026,-1.9977,-1.9712,-1.9446,-1.9181,-1.8855,-1.871,-1.877,-1.8662,-1.8746,-1.9072,-1.9024,-1.8734,0.0,-1.772,-1.7213,0.0,0.0,0.0,0.0,0.0,0.0,0.0,0.0,-1.5885,-1.5885,-1.5885,-1.5885,-1.5885,-1.5885,-1.5885,-1.5885,-1.5885,-1.5885,-1.5885,-1.5885,-1.5885,-1.5885,-1.5885,-1.5885,-1.5885,-1.5885,-1.5885,-1.5885,-1.5885,-1.6042,-1.6199,-1.6199,-1.6368,-1.6525,-1.6525,-1.6573,-1.6598,-1.6537,-1.6573,-1.6932,-1.8081,-1.87,0.0,0.0,0.0,0.0,0.0,0.0,0.0,0.0,0.0,0.0,0.0,0.0,0.0,0.0,0.0,-2.0004,-1.8042,-1.8513,0.0,0.0,0.0,-1.5885,-1.5885,0.0,-1.5885,0.0,-1.5885,-1.5885,-1.5885,-1.5885,-1.5885,-1.5885,-1.5885,-1.5885,-1.5885,-1.5885,-1.5885,-1.5885,-1.5885,-1.5885,-1.5885,-1.5885,-1.5885,-1.5885,0.0,0.0,0.0,0.0,0.0,0.0,0.0,-1.97,-1.9953,-2.0146,-2.0158,-2.0158,-2.0158,-2.0424,-2.0496,-2.0255,-2.0002,-1.9724,-1.9512,-1.8963,-1.8794,-1.9024,-1.8589,-1.8565,-1.906,-1.8843,-1.8456,0.0,0.0,-1.7213,0.0,0.0,0.0,0.0,0.0,0.0,0.0,-1.5897,-1.5885,-1.5885,-1.5885,-1.5885,-1.5885,-1.5885,-1.5885,-1.5885,-1.5885,-1.5885,-1.5885,-1.5885,-1.5885,-1.5885,-1.5885,-1.5885,-1.5885,-1.5885,-1.5885,-1.5885,-1.5885,-1.591,-1.5922,-1.5922,-1.5946,-1.597,-1.597,-1.6151,-1.6247,-1.6018,-1.6151,-1.6703,-1.7833,-1.744,-1.724,0.0,0.0,0.0,0.0,0.0,0.0,0.0,0.0,0.0,0.0,0.0,0.0,0.0,0.0,-2.0364,-1.9124,-1.8199,-1.716,-1.5939,0.0,-1.5885,-1.5885,-1.5885,-1.5885,-1.5885,-1.5885,-1.5885,-1.5885,-1.5885,-1.5885,-1.5885,-1.5885,-1.5885,-1.5885,-1.5885,-1.5885,-1.5885,-1.5885,-1.5885,-1.5885,-1.5885,-1.5885,-1.5885,0.0,0.0,0.0,0.0,0.0,0.0,0.0,-1.9917,-1.9977,-2.0243,-2.0146,-2.0098,-2.0255,-2.0231,-2.0158,-2.005,-1.9796,-1.9591,-1.9536,-1.912,-1.8891,-1.8843,-1.8638,-1.8625,-1.8843,-1.8734,-1.842,0.0,0.0,0.0,0.0,0.0,0.0,0.0,0.0,-1.5885,-1.5885,-1.5885,-1.5885,-1.5885,-1.5885,-1.5885,-1.5885,-1.5885,-1.5885,-1.5885,-1.5885,-1.5885,-1.5885,-1.5885,-1.5885,-1.5885,-1.5885,-1.5885,-1.5885,-1.5885,-1.5885,-1.5885,-1.5885,-1.5885,-1.5885,-1.5885,-1.5885,-1.5885,-1.5885,-1.597,-1.6018,-1.591,-1.597,-1.6253,-1.6846,-1.7105,-1.7265,0.0,0.0,0.0,0.0,0.0,0.0,0.0,0.0,0.0,0.0,0.0,0.0,0.0,0.0,0.0,-1.8356,-1.7845,0.0,-1.5939,0.0,-1.5885,-1.5885,-1.5885,-1.5885,-1.5885,-1.5885,-1.5885,-1.5885,-1.5885,-1.5885,-1.5885,-1.5885,-1.5885,-1.5885,-1.5885,-1.5885,-1.5885,-1.5885,-1.5885,-1.5885,-1.5885,-1.5885,-1.5885,-1.9555,0.0,-1.912,0.0,-1.9495,-1.941,-2.0062,-2.0002,-1.9953,-2.0134,-1.9929,-1.9869,-2.0134,-2.0002,-1.9857,-1.9772,-1.9579,-1.9499,-1.9427,-1.9181,-1.8963,-1.8698,-1.8613,0.0,-1.8565,-1.8493,-1.8263,-1.7877,-1.7612,0.0,0.0,0.0,0.0,0.0,-1.6006,-1.5958,-1.5885,-1.5885,-1.5885,-1.5885,-1.5885,-1.5885,-1.5885,-1.5885,-1.5885,-1.5885,-1.5885,-1.5885,-1.5885,-1.5885,-1.5885,-1.5885,-1.5885,-1.5885,-1.5885,-1.5885,-1.5885,-1.5885,-1.5885,-1.5885,-1.5885,-1.5885,-1.5885,-1.5885,-1.5885,-1.5885,-1.5885,-1.5885,-1.5885,-1.5946,-1.6127,-1.6703,-1.697,-1.6515,0.0,0.0,0.0,0.0,0.0,0.0,-1.6316,-1.6577,-1.7054,0.0,0.0,0.0,0.0,0.0,0.0,0.0,0.0,0.0,0.0,0.0,0.0,-1.5885,-1.5885,-1.5885,-1.5885,-1.5885,-1.5885,-1.5885,-1.5885,-1.5885,-1.5885,-1.5885,-1.5885,-1.5885,-1.5885,-1.5885,-1.5885,-1.5885,-1.5885,-1.5885,-1.5885,-1.5885,-1.9881,-1.9652,-1.9543,-1.9833,-1.9652,-1.9555,-1.9845,-1.9893,-1.9881,-1.9893,-1.9652,-1.9579,-1.9857,-1.9893,-1.9772,-1.956,-1.947,-1.9427,-1.9096,-1.9084,-1.8963,0.0,0.0,-1.83,-1.83,-1.8022,-1.7877,-1.7877,0.0,0.0,-1.708,0.0,-1.6549,-1.6308,-1.6284,-1.6127,-1.5885,-1.5885,-1.5885,-1.5885,-1.5885,-1.5885,-1.5885,-1.5885,-1.5885,-1.5885,-1.5885,-1.5885,-1.5885,-1.5885,-1.5885,-1.5885,-1.5885,-1.5885,-1.5885,-1.5885,-1.5885,-1.5885,-1.5885,-1.5885,-1.5885,-1.5885,-1.5885,-1.5885,-1.5885,-1.5885,-1.5885,-1.5885,-1.5885,-1.5885,-1.5897,-1.5885,-1.5951,-1.5897,0.0,0.0,0.0,0.0,0.0,0.0,-1.6895,-1.716,-1.6045,0.0,0.0,0.0,0.0,0.0,0.0,0.0,0.0,-1.5885,-1.5885,0.0,-1.5885,-1.5885,-1.5885,-1.5885,-1.5885,-1.5885,-1.5885,-1.5885,-1.5885,-1.5885,-1.5885,-1.5885,-1.5885,-1.5885,-1.5885,-1.5885,-1.5885,-1.5885,-1.5885,-1.5885,-1.5885,-1.5885,-1.9567,-1.9531,-1.9555,-1.9833,-1.9808,-1.9784,-1.9869,-1.9724,-1.9603,-1.9603,-1.9362,-1.9229,-1.9326,-1.9338,-1.9301,0.0,-1.9205,-1.9169,0.0,-1.8915,-1.8686,-1.8432,-1.8155,-1.801,-1.801,-1.7913,-1.7877,-1.7877,0.0,0.0,0.0,-1.6272,-1.6103,-1.6018,-1.6018,-1.597,-1.5885,-1.5885,-1.5885,-1.5885,-1.5885,-1.5885,-1.5885,-1.5885,-1.5885,-1.5885,-1.5885,-1.5885,-1.5885,-1.5885,-1.5885,-1.5885,-1.5885,-1.5885,-1.5885,-1.5885,-1.5885,-1.5885,-1.5885,-1.5885,-1.5885,-1.5885,-1.5885,-1.5885,-1.5885,-1.5885,-1.5885,-1.5885,-1.5885,-1.5885,-1.5885,-1.5885,-1.5885,-1.5885,-1.5885,0.0,0.0,0.0,0.0,0.0,0.0,-1.6311,0.0,-1.6205,0.0,0.0,0.0,0.0,0.0,0.0,0.0,0.0,-1.5885,0.0,-1.5885,-1.5885,-1.5885,-1.5885,-1.5885,-1.5885,-1.5885,-1.5885,-1.5885,-1.5885,-1.5885,-1.5885,-1.5885,-1.5885,-1.5885,-1.5885,-1.5885,-1.5885,-1.5885,-1.5885,-1.5885,-1.5885,-1.9591,-1.9543,-1.9519,-1.97,-1.9652,-1.9579,-1.9579,-1.9434,-1.9326,-1.9326,-1.9181,-1.9072,-1.9072,-1.9072,0.0,-1.9072,-1.9072,-1.9036,-1.8939,-1.877,-1.8517,-1.8155,-1.7962,-1.7829,-1.7732,0.0,0.0,-1.7732,-1.737,-1.6936,-1.6429,-1.6163,-1.603,-1.603,-1.603,-1.5982,-1.5885,-1.5885,-1.5885,-1.5885,-1.5885,-1.5885,-1.5885,-1.5885,-1.5885,-1.5885,-1.5885,-1.5885,-1.5885,-1.5885,-1.5885,-1.5885,-1.5885,-1.5885,-1.5885,-1.5885,-1.5885,-1.5885,-1.5885,-1.5885,-1.5885,-1.5885,-1.5885,-1.5885,-1.5885,-1.5885,-1.5885,-1.5885,-1.5885,-1.5885,-1.5885,-1.5885,-1.5885,-1.5885,-1.5885,-1.5885,-1.5885,0.0,0.0,0.0,0.0,0.0,0.0,-1.5885,0.0,0.0,0.0,0.0,0.0,0.0,0.0,-1.5885,-1.5885,0.0,-1.5885,-1.5885,-1.5885,-1.5885,-1.5885,-1.5885,-1.5885,-1.5885,-1.5885,-1.5885,-1.5885,-1.5885,-1.5885,-1.5885,-1.5885,-1.5885,-1.5885,-1.5885,-1.5885,-1.5885,-1.5885,-1.5885,-1.9833,-1.9615,0.0,0.0,-1.9241,0.0,-1.9072,-1.9072,-1.9072,-1.9072,-1.9072,-1.9072,-1.9072,-1.9072,-1.9072,-1.9048,0.0,0.0,0.0,-1.865,-1.8396,-1.7901,-1.7853,-1.7732,-1.7491,-1.7479,-1.7479,-1.7455,-1.6948,-1.6694,-1.667,-1.638,-1.626,-1.626,-1.626,-1.6115,-1.5885,-1.5885,-1.5885,-1.5885,-1.5885,-1.5885,-1.5885,-1.5885,-1.5885,-1.5885,-1.5885,-1.5885,-1.5885,-1.5885,-1.5885,-1.5885,-1.5885,-1.5885,-1.5885,-1.5885,-1.5885,-1.5885,-1.5885,-1.5885,-1.5885,-1.5885,-1.5885,-1.5885,-1.5885,-1.5885,-1.5885,-1.5885,-1.5885,-1.5885,-1.5885,-1.5885,-1.5885,-1.5885,-1.5885,-1.5885,-1.5885,0.0,0.0,0.0,0.0,0.0,0.0,-1.5885,-1.5885,0.0,0.0,0.0,0.0,0.0,-1.5885,-1.5885,-1.5885,-1.5885,-1.5885,-1.5885,-1.5885,-1.5885,-1.5885,-1.5885,-1.5885,-1.5885,-1.5885,-1.5885,-1.5885,-1.5885,-1.5885,-1.5885,-1.5885,-1.5885,-1.5885,-1.5885,-1.5885,-1.5885,-1.5885,-1.5885,0.0,0.0,-1.9169,-1.9169,-1.912,-1.9072,-1.9072,-1.9072,-1.9072,-1.9072,-1.9072,-1.9072,-1.9072,-1.9072,-1.9,-1.8794,-1.877,-1.8746,-1.8686,-1.83,-1.801,-1.7877,-1.7684,-1.7539,-1.7479,-1.7479,-1.7382,-1.7177,-1.6863,-1.6585,-1.638,-1.6103,-1.5982,-1.5982,-1.5982,-1.5946,-1.5885,-1.5885,-1.5885,-1.5885,-1.5885,-1.5885,-1.5885,-1.5885,-1.5885,-1.5885,-1.5885,-1.5885,-1.5885,-1.5885,-1.5885,-1.5885,-1.5885,-1.5885,-1.5885,-1.5885,-1.5885,-1.5885,-1.5885,-1.5885,-1.5885,-1.5885,-1.5885,-1.5885,-1.5885,-1.5885,-1.5885,-1.5885,-1.5885,-1.5885,-1.5885,-1.5885,-1.5885,-1.5885,-1.5885,-1.5885,-1.5885,-1.5885,-1.5885,0.0,-1.5885,-1.5885,-1.5885,-1.5885,-1.5885,0.0,0.0,0.0,0.0,-1.5885,-1.5885,-1.5885,-1.5885,-1.5885,-1.5885,-1.5885,-1.5885,-1.5885,-1.5885,-1.5885,-1.5885,-1.5885,-1.5885,-1.5885,-1.5885,-1.5885,-1.5885,-1.5885,-1.5885,-1.5885,-1.5885,-1.5885,-1.5885,-1.5885,-1.5885,-1.5885,-1.9072,-1.9072,-1.9072,-1.9072,-1.9072,-1.9072,-1.9072,-1.9072,-1.9072,-1.9072,-1.9072,-1.9072,-1.9072,-1.9072,-1.8976,-1.871,-1.8686,-1.8577,-1.8336,-1.8034,-1.7817,-1.7696,-1.7563,-1.7479,-1.7479,-1.7479,-1.7298,-1.6911,-1.6646,-1.6368,-1.6103,-1.5958,-1.5885,-1.5885,-1.5885,-1.5885,-1.5885,-1.5885,-1.5885,-1.5885,-1.5885,-1.5885,-1.5885,-1.5885,-1.5885,-1.5885,-1.5885,-1.5885,-1.5885,-1.5885,-1.5885,-1.5885,-1.5885,-1.5885,-1.5885,-1.5885,-1.5885,-1.5885,-1.5885,-1.5885,-1.5885,-1.5885,-1.5885,-1.5885,-1.5885,-1.5885,-1.5885,-1.5885,-1.5885,-1.5885,-1.5885,-1.5885,-1.5885,-1.5885,-1.5885,-1.5885,-1.5885,-1.5885,-1.5885,-1.5885,-1.5885,-1.5885,-1.5885,-1.5885,-1.5885,-1.5885,0.0,0.0,-1.5885,-1.5885,-1.5885,-1.5885,-1.5885,-1.5885,-1.5885,-1.5885,-1.5885,-1.5885,-1.5885,-1.5885,-1.5885,-1.5885,-1.5885,-1.5885,-1.5885,-1.5885,-1.5885,-1.5885,-1.5885,-1.5885,-1.5885,-1.5885,-1.5885,-1.5885,-1.5885,-1.5885,-1.9072,-1.9072,-1.9072,-1.9072,-1.9072,-1.9072,-1.9072,-1.9072,-1.9072,-1.9072,-1.9072,-1.906,-1.9024,-1.9012,-1.8891,-1.8589,-1.8565,-1.8372,-1.7901,-1.7841,-1.7708,-1.7491,-1.7479,-1.7467,-1.7418,-1.7382,-1.7129,-1.6634,-1.6392,-1.6151,-1.5885,-1.5885,-1.5885,-1.5885,-1.5885,-1.5885,-1.5885,-1.5885,-1.5885,-1.5885,-1.5885,-1.5885,-1.5885,-1.5885,-1.5885,-1.5885,-1.5885,-1.5885,-1.5885,-1.5885,-1.5885,-1.5885,-1.5885,-1.5885,-1.5885,-1.5885,-1.5885,-1.5885,-1.5885,-1.5885,-1.5885,-1.5885,-1.5885,-1.5885,-1.5885,-1.5885,-1.5885,-1.5885,-1.5885,-1.5885,-1.5885,-1.5885,-1.5885,-1.5885,-1.5885,-1.5885,-1.5885,0.0,-1.5885,-1.5885,-1.5885,-1.5885,-1.5885,-1.5885,-1.5885,-1.5885,-1.5885,-1.5885,0.0,-1.5885,-1.5885,-1.5885,-1.5885,-1.5885,-1.5885,-1.5885,-1.5885,-1.5885,-1.5885,-1.5885,-1.5885,-1.5885,-1.5885,-1.5885,-1.5885,-1.5885,-1.5885,-1.5885,-1.5885,-1.5885,-1.5885,-1.5885,-1.5885,-1.5885,-1.5885,-1.5885,-1.9072,-1.9072,-1.9072,-1.9072,-1.9072,-1.9072,-1.9072,-1.9072,-1.9072,-1.9072,-1.9072,-1.8988,-1.877,-1.8746,-1.8541,-1.8046,-1.7998,-1.7962,-1.7877,-1.766,-1.7527,-1.7491,-1.7479,-1.7382,-1.7153,-1.6936,-1.667,-1.6344,-1.6308,-1.6151,-1.5885,-1.5885,-1.5885,-1.5885,-1.5885,-1.5885,-1.5885,-1.5885,-1.5885,-1.5885,-1.5885,-1.5885,-1.5885,-1.5885,-1.5885,-1.5885,-1.5885,-1.5885,-1.5885,-1.5885,-1.5885,-1.5885,-1.5885,-1.5885,-1.5885,-1.5885,-1.5885,-1.5885,-1.5885,-1.5885,-1.5885,-1.5885,-1.5885,-1.5885,-1.5885,-1.5885,-1.5885,-1.5885,-1.5885,-1.5885,-1.5885,-1.5885,-1.5885,-1.5885,-1.5885,-1.5885,-1.5885,0.0,-1.5885,-1.5885,-1.5885,-1.5885,-1.5885,-1.5885,-1.5885,-1.5885,-1.5885,-1.5885,-1.5885,-1.5885,-1.5885,-1.5885,-1.5885,-1.5885,-1.5885,-1.5885,-1.5885,-1.5885,-1.5885,-1.5885,-1.5885,-1.5885,-1.5885,-1.5885,-1.5885,-1.5885,-1.5885,-1.5885,-1.5885,-1.5885,-1.5885,-1.5885,-1.5885,-1.5885,-1.5885,-1.5885,-1.9072,-1.9072,-1.9072,-1.9072,-1.9072,-1.9072,-1.9072,-1.9072,-1.9072,-1.9072,-1.8951,-1.8819,-1.8698,-1.8553,-1.8312,-1.7913,-1.7877,-1.7817,-1.7672,-1.7551,-1.7479,-1.7479,-1.7479,-1.7358,-1.7092,-1.6682,-1.6404,-1.6284,-1.6139,-1.6006,-1.5885,-1.5885,-1.5885,-1.5885,-1.5885,-1.5885,-1.5885,-1.5885,-1.5885,-1.5885,-1.5885,-1.5885,-1.5885,-1.5885,-1.5885,-1.5885,-1.5885,-1.5885,-1.5885,-1.5885,-1.5885,-1.5885,-1.5885,-1.5885,-1.5885,-1.5885,-1.5885,-1.5885,-1.5885,-1.5885,-1.5885,-1.5885,-1.5885,-1.5885,-1.5885,-1.5885,-1.5885,-1.5885,-1.5885,-1.5885,-1.5885,-1.5885,-1.5885,-1.5885,-1.5885,0.0,0.0,-1.5885,-1.5885,-1.5885,-1.5885,-1.5885,-1.5885,-1.5885,-1.5885,-1.5885,-1.5885,-1.5885,-1.5885,-1.5885,-1.5885,-1.5885,-1.5885,-1.5885,-1.5885,-1.5885,-1.5885,-1.5885,-1.5885,-1.5885,-1.5885,-1.5885,-1.5885,-1.5885,-1.5885,-1.5885,-1.5885,-1.5885,-1.5885,-1.5885,-1.5885,-1.5885,-1.5885,-1.5885,-1.5885,-1.5885,-1.9072,-1.9072,-1.9072,-1.9072,-1.9072,-1.9072,-1.9072,-1.9072,-1.9072,-1.9072,-1.8843,-1.8662,-1.8601,-1.836,-1.8082,-1.7805,-1.7781,-1.7696,-1.7491,-1.7479,-1.7479,-1.7479,-1.737,-1.7177,-1.6911,-1.6441,-1.6187,-1.6187,-1.5982,-1.5885,-1.5885,-1.5885,-1.5885,-1.5885,-1.5885,-1.5885,-1.5885,-1.5885,-1.5885,-1.5885,-1.5885,-1.5885,-1.5885,-1.5885,-1.5885,-1.5885,-1.5885,-1.5885,-1.5885,-1.5885,-1.5885,-1.5885,-1.5885,-1.5885,-1.5885,-1.5885,-1.5885,-1.5885,-1.5885,-1.5885,-1.5885,-1.5885,-1.5885,-1.5885,-1.5885,-1.5885,-1.5885,-1.5885,-1.5885,-1.5885,-1.5885,-1.5885,-1.5885,-1.5885,0.0,0.0,0.0,-1.5885,-1.5885,-1.5885,-1.5885,-1.5885,-1.5885,-1.5885,-1.5885,-1.5885,-1.5885,-1.5885,-1.5885,-1.5885,-1.5885,-1.5885,-1.5885,-1.5885,-1.5885,-1.5885,-1.5885,-1.5885,-1.5885,-1.5885,-1.5885,-1.5885,-1.5885,-1.5885,-1.5885,-1.5885,-1.5885,-1.5885,-1.5885,-1.5885,-1.5885,-1.5885,-1.5885,-1.5885,-1.5885,-1.5885,-1.9072,-1.9072,-1.9072,-1.9072,-1.9072,-1.9072,-1.9072,-1.9072,-1.9072,-1.9072,-1.8843,-1.8589,-1.8348,-1.807,-1.7793,-1.7539,-1.7515,-1.7503,-1.7479,-1.7479,-1.7479,-1.7479,-1.702,-1.6622,-1.6344,-1.6066,-1.5922,-1.5922,-1.5897,-1.5885,-1.5885,-1.5885,-1.5885,-1.5885,-1.5885,-1.5885,-1.5885,-1.5885,-1.5885,-1.5885,-1.5885,-1.5885,-1.5885,-1.5885,-1.5885,-1.5885,-1.5885,-1.5885,-1.5885,-1.5885,-1.5885,-1.5885,-1.5885,-1.5885,-1.5885,-1.5885,-1.5885,-1.5885,-1.5885,-1.5885,-1.5885,-1.5885,-1.5885,-1.5885,-1.5885,-1.5885,-1.5885,-1.5885,-1.5885,-1.5885,-1.5885,-1.5885,-1.5885,-1.5885,0.0,0.0,-1.5885,-1.5885,-1.5885,-1.5885,-1.5885,-1.5885,-1.5885,-1.5885,-1.5885,-1.5885,-1.5885,-1.5885,-1.5885,-1.5885,-1.5885,-1.5885,-1.5885,-1.5885,-1.5885,-1.5885,-1.5885,-1.5885,-1.5885,-1.5885,-1.5885,-1.5885,-1.5885,-1.5885,-1.5885,-1.5885,-1.5885,-1.5885,-1.5885,-1.5885,-1.5885,-1.5885,-1.5885,-1.5885,-1.5885,-1.5885,-1.9072,-1.9072,-1.9072,-1.9072,-1.9072,-1.9072,-1.9072,-1.9072,-1.9072,-1.9072,-1.871,-1.8408,-1.83,-1.7901,-1.7587,-1.7491,-1.7479,-1.7479,-1.7479,-1.7479,-1.7479,-1.7479,-1.6984,-1.6658,-1.6537,-1.6115,-1.5885,-1.5885,-1.5885,-1.5885,-1.5885,-1.5885,-1.5885,-1.5885,-1.5885,-1.5885,-1.5885,-1.5885,-1.5885,-1.5885,-1.5885,-1.5885,-1.5885,-1.5885,-1.5885,-1.5885,-1.5885,-1.5885,-1.5885,-1.5885,-1.5885,-1.5885,-1.5885,-1.5885,-1.5885,-1.5885,-1.5885,-1.5885,-1.5885,-1.5885,-1.5885,-1.5885,-1.5885,-1.5885,-1.5885,-1.5885,-1.5934,-1.6103,-1.6127,-1.6127,-1.6127,-1.6127,-1.6079,-1.5922,0.0,-1.5885,-1.5885,-1.5885,-1.5885,-1.5885,-1.5885,-1.5885,-1.5885,-1.5885,-1.5885,-1.5885,-1.5885,-1.5885,-1.5885,-1.5885,-1.5885,-1.5885,-1.5885,-1.5885,-1.5885,-1.5885,-1.5885,-1.5885,-1.5885,-1.5885,-1.5885,-1.5885,-1.5885,-1.5885,-1.5885,-1.5885,-1.5885,-1.5885,-1.5885,-1.5885,-1.5885,-1.5885,-1.5885,-1.5885,-1.5885,-1.5861,-1.9072,-1.9072,-1.9072,-1.9072,-1.9072,-1.9072,-1.9072,-1.9012,-1.8951,-1.8951,-1.8493,-1.8155,-1.8155,-1.7756,-1.7479,-1.7479,-1.7479,-1.7479,-1.7479,-1.7479,-1.7443,-1.7358,-1.6936,-1.6658,-1.6573,-1.6127,-1.5885,-1.5885,-1.5885,-1.5885,-1.5885,-1.5885,-1.5885,-1.5885,-1.5885,-1.5885,-1.5885,-1.5885,-1.5885,-1.5885,-1.5885,-1.5885,-1.5885,-1.5885,-1.5885,-1.5885,-1.5885,-1.5885,-1.5885,-1.5885,-1.5885,-1.5885,-1.5885,-1.5885,-1.5885,-1.5885,-1.5885,-1.5885,-1.5885,-1.5885,-1.5885,-1.5885,-1.5946,-1.5994,-1.591,-1.6018,-1.6175,-1.626,-1.6356,-1.638,-1.6296,-1.6284,-1.6199,-1.5934,-1.5885,-1.5885,-1.5885,-1.5885,-1.5885,-1.5885,-1.5885,-1.5885,-1.5885,-1.5885,-1.5885,-1.5885,-1.5885,-1.5885,-1.5885,-1.5885,-1.5885,-1.5885,-1.5885,-1.5885,-1.5885,-1.5885,-1.5885,-1.5885,-1.5885,-1.5885,-1.5885,-1.5885,-1.5885,-1.5885,-1.5885,-1.5885,-1.5885,-1.5885,-1.5885,-1.5885,-1.5885,-1.5885,-1.5885,-1.5885,-1.5885,-1.5849,-1.9072,-1.9072,-1.9072,-1.9072,-1.9072,-1.9072,-1.9072,-1.8843,-1.8686,-1.8686,-1.8215,-1.7877,-1.7877,-1.7636,-1.7479,-1.7479,-1.7479,-1.7479,-1.7479,-1.7479,-1.737,-1.7105,-1.6839,-1.6573,-1.6296,-1.603,-1.5885,-1.5885,-1.5885,-1.5885,-1.5885,-1.5885,-1.5885,-1.5885,-1.5885,-1.5885,-1.5885,-1.5885,-1.5885,-1.5885,-1.5885,-1.5885,-1.5885,-1.5885,-1.5885,-1.5885,-1.5885,-1.5885,-1.5885,-1.5885,-1.5885,-1.5885,-1.5885,-1.5885,-1.5885,-1.5885,-1.5885,-1.5885,-1.5885,-1.5885,-1.5897,-1.5897,-1.6091,-1.6211,-1.5958,-1.6308,-1.6622,-1.6344,-1.6513,-1.6622,-1.6332,-1.6284,-1.6199,-1.5934,-1.5885,-1.5885,-1.5885,-1.5885,-1.5885,-1.5885,-1.5885,-1.5885,-1.5885,-1.5885,-1.5885,-1.5885,-1.5885,-1.5885,-1.5885,-1.5885,-1.5885,-1.5885,-1.5885,-1.5885,-1.5885,-1.5885,-1.5885,-1.5885,-1.5885,-1.5885,-1.5885,-1.5885,-1.5885,-1.5885,-1.5885,-1.5885,-1.5885,-1.5885,-1.5885,-1.5885,-1.5885,-1.5885,-1.5885,-1.5885,-1.5885,-1.5849,-1.9072,-1.8927,-1.8807,-1.8807,-1.865,-1.8529,-1.8529,-1.8456,-1.8408,-1.8408,-1.8094,-1.7877,-1.7877,-1.7636,-1.7479,-1.7479,-1.7479,-1.7479,-1.7479,-1.7479,-1.7443,-1.737,-1.6936,-1.6658,-1.6573,-1.6127,-1.5885,-1.5885,-1.5885,-1.5885,-1.5885,-1.5885,-1.5885,-1.5885,-1.5885,-1.5885,-1.5885,-1.5885,-1.5885,-1.5885,-1.5885,-1.5885,-1.5885,-1.5885,-1.5885,-1.5885,-1.5885,-1.5885,-1.5885,-1.5885,-1.5885,-1.5885,-1.5885,-1.5885,-1.5885,-1.5885,-1.5885,-1.5885,-1.5885,-1.6018,-1.6163,-1.6163,-1.6091,-1.6091,-1.6392,-1.6429,-1.6489,-1.6791,-1.6911,-1.6887,-1.6622,-1.6573,-1.6429,-1.597,-1.5885,-1.5885,-1.5885,-1.5885,-1.5885,-1.5885,-1.5885,-1.5885,-1.5885,-1.5885,-1.5885,-1.5885,-1.5885,-1.5885,-1.5885,-1.5885,-1.5885,-1.5885,-1.5885,-1.5885,-1.5885,-1.5885,-1.5885,-1.5885,-1.5885,-1.5885,-1.5885,-1.5885,-1.5885,-1.5885,-1.5885,-1.5885,-1.5885,-1.5885,-1.5885,-1.5885,-1.5885,-1.5885,-1.5885,-1.5885,-1.5777,-1.5572,-1.8852,-1.8794,-1.865,-1.8553,-1.8396,-1.83,-1.83,-1.8203,-1.8131,-1.8131,-1.7889,-1.772,-1.772,-1.7575,-1.7479,-1.7479,-1.7479,-1.7479,-1.7479,-1.7479,-1.7443,-1.7334,-1.6923,-1.6706,-1.6706,-1.6163,-1.5885,-1.5885,-1.5885,-1.5885,-1.5885,-1.5885,-1.5885,-1.5885,-1.5885,-1.5885,-1.5885,-1.5885,-1.5885,-1.5885,-1.5885,-1.5885,-1.5885,-1.5885,-1.5885,-1.5885,-1.5885,-1.5885,-1.5885,-1.5885,-1.5885,-1.5885,-1.5885,-1.5885,-1.5885,-1.5885,-1.5885,-1.5885,-1.5885,-1.6006,-1.6151,-1.626,-1.632,-1.6429,-1.6646,-1.673,-1.6815,-1.7044,-1.7092,-1.7044,-1.6887,-1.6767,-1.6561,-1.6115,-1.6042,-1.6006,-1.5897,-1.5885,-1.5885,-1.5885,-1.5885,-1.5885,-1.5885,-1.5885,-1.5885,-1.5885,-1.5885,-1.5885,-1.5885,-1.5885,-1.5885,-1.5885,-1.5885,-1.5885,-1.5885,-1.5885,-1.5885,-1.5885,-1.5885,-1.5885,-1.5885,-1.5885,-1.5885,-1.5885,-1.5885,-1.5885,-1.5885,-1.5885,-1.5885,-1.5885,-1.5885,-1.5885,-1.5873,-1.5777,-1.5632,-1.5451,-1.8074,-1.8313,-1.8218,-1.8115,-1.8055,-1.8093,-1.8215,-1.7998,-1.7841,-1.7841,-1.7624,-1.7479,-1.7479,-1.7479,-1.7479,-1.7479,-1.7479,-1.7479,-1.7479,-1.7455,-1.7346,-1.7105,-1.6839,-1.6682,-1.667,-1.6151,-1.5885,-1.5885,-1.5885,-1.5885,-1.5885,-1.5885,-1.5885,-1.5885,-1.5885,-1.5885,-1.5885,-1.5885,-1.5885,-1.5885,-1.5885,-1.5885,-1.5885,-1.5885,-1.5885,-1.5885,-1.5885,-1.5885,-1.5885,-1.5885,-1.5885,-1.5885,-1.5885,-1.5885,-1.5885,-1.5885,-1.5885,-1.5885,-1.5885,-1.591,-1.5982,-1.6223,-1.6694,-1.7032,-1.6791,-1.7105,-1.7382,-1.7165,-1.7129,-1.7117,-1.7092,-1.6899,-1.6634,-1.6332,-1.6284,-1.6187,-1.5922,-1.5885,-1.5885,-1.5885,-1.5885,-1.5885,-1.5885,-1.5885,-1.5885,-1.5885,-1.5885,-1.5885,-1.5885,-1.5885,-1.5885,-1.5885,-1.5885,-1.5885,-1.5885,-1.5885,-1.5885,-1.5885,-1.5885,-1.5885,-1.5885,-1.5885,-1.5885,-1.5885,-1.5885,-1.5885,-1.5885,-1.5885,-1.5885,-1.5885,-1.5885,-1.5873,-1.5825,-1.5584,-1.5475,-1.5354,-1.5347,-1.5216,-1.5381,-1.6315,-1.6331,-1.6518,-1.7541,-1.7612,-1.7563,-1.7563,-1.7515,-1.7479,-1.7479,-1.7479,-1.7479,-1.7479,-1.7479,-1.7479,-1.7479,-1.7286,-1.7153,-1.7092,-1.6839,-1.6598,-1.638,-1.6054,-1.5885,-1.5885,-1.5885,-1.5885,-1.5885,-1.5885,-1.5885,-1.5885,-1.5885,-1.5885,-1.5885,-1.5885,-1.5885,-1.5885,-1.5885,-1.5885,-1.5885,-1.5885,-1.5885,-1.5885,-1.5885,-1.5885,-1.5885,-1.5885,-1.5885,-1.5885,-1.5885,-1.5885,-1.5885,-1.5885,-1.5885,-1.5885,-1.5885,-1.6054,-1.6235,-1.6272,-1.6694,-1.708,-1.702,-1.7092,-1.7213,-1.737,-1.7394,-1.7334,-1.7129,-1.7044,-1.6851,-1.6356,-1.6284,-1.6187,-1.5922,-1.5885,-1.5885,-1.5885,-1.5885,-1.5885,-1.5885,-1.5885,-1.5885,-1.5885,-1.5885,-1.5885,-1.5885,-1.5885,-1.5885,-1.5885,-1.5885,-1.5885,-1.5885,-1.5885,-1.5885,-1.5885,-1.5885,-1.5885,-1.5885,-1.5885,-1.5885,-1.5885,-1.5885,-1.5885,-1.5885,-1.5885,-1.5885,-1.5885,-1.5885,-1.5765,-1.5572,-1.5523,-1.5234,-1.4835,-1.419,-1.4227,-1.4244,-1.4811,-1.482,-1.5095,-1.6408,-1.6585,-1.682,-1.742,-1.7479,-1.7479,-1.7479,-1.7479,-1.7479,-1.7479,-1.7479,-1.7479,-1.7479,-1.7237,-1.7032,-1.6911,-1.6646,-1.6368,-1.6103,-1.5958,-1.5885,-1.5885,-1.5885,-1.5885,-1.5885,-1.5885,-1.5885,-1.5885,-1.5885,-1.5885,-1.5885,-1.5885,-1.5885,-1.5885,-1.5885,-1.5885,-1.5885,-1.5885,-1.5885,-1.5885,-1.5885,-1.5885,-1.5885,-1.5885,-1.5885,-1.5885,-1.5885,-1.5885,-1.5885,-1.5885,-1.5885,-1.5885,-1.5885,-1.5994,-1.6103,-1.6103,-1.6501,-1.6936,-1.7068,-1.7189,-1.7322,-1.7455,-1.7382,-1.7298,-1.7286,-1.7177,-1.696,-1.6549,-1.6477,-1.6344,-1.5946,-1.5885,-1.5885,-1.5885,-1.5885,-1.5885,-1.5885,-1.5885,-1.5885,-1.5885,-1.5885,-1.5885,-1.5885,-1.5885,-1.5885,-1.5885,-1.5885,-1.5885,-1.5885,-1.5885,-1.5885,-1.5885,-1.5885,-1.5885,-1.5885,-1.5885,-1.5885,-1.5885,-1.5885,-1.5885,-1.5885,-1.5885,-1.5885,-1.5873,-1.5753,-1.562,-1.5475,-1.5221,-1.4871,-1.4497,-1.3127,-1.3371,-1.3377,-1.3333,-1.3366,-1.3784,-1.5095,-1.5273,-1.5628,-1.6703,-1.682,-1.695,-1.7126,-1.7361,-1.7479,-1.7479,-1.7479,-1.7467,-1.7418,-1.7165,-1.6911,-1.6634,-1.6404,-1.6151,-1.5897,-1.5934,-1.5934,-1.5885,-1.5885,-1.5885,-1.5885,-1.5885,-1.5885,-1.5885,-1.5885,-1.5885,-1.5885,-1.5885,-1.5885,-1.5885,-1.5885,-1.5885,-1.5885,-1.5885,-1.5885,-1.5885,-1.5885,-1.5885,-1.5885,-1.5885,-1.5885,-1.5885,-1.5885,-1.5885,-1.5885,-1.5885,-1.5885,-1.5885,-1.5885,-1.5885,-1.5885,-1.5885,-1.626,-1.6694,-1.696,-1.7261,-1.7479,-1.7479,-1.731,-1.7225,-1.7443,-1.7298,-1.7056,-1.6754,-1.6706,-1.6513,-1.597,-1.5885,-1.5885,-1.5885,-1.5885,-1.5885,-1.5885,-1.5885,-1.5885,-1.5885,-1.5885,-1.5885,-1.5885,-1.5885,-1.5885,-1.5885,-1.5885,-1.5885,-1.5885,-1.5885,-1.5885,-1.5885,-1.5885,-1.5885,-1.5885,-1.5885,-1.5885,-1.5885,-1.5885,-1.5885,-1.5885,-1.5885,-1.5861,-1.5801,-1.5584,-1.5439,-1.5306,-1.4823,-1.4497,-1.4292,-1.0336,-1.039,-1.0747,-1.1752,-1.1993,-1.2406,-1.3725,-1.3963,-1.4023,-1.4202,-1.4202,-1.4619,-1.5747,-1.682,-1.7479,-1.7479,-1.7479,-1.7382,-1.7165,-1.6899,-1.6634,-1.6344,-1.6296,-1.6151,-1.5897,-1.6115,-1.6115,-1.5885,-1.5885,-1.5885,-1.5885,-1.5885,-1.5885,-1.5885,-1.5885,-1.5885,-1.5885,-1.5885,-1.5885,-1.5885,-1.5885,-1.5885,-1.5885,-1.5885,-1.5885,-1.5885,-1.5885,-1.5885,-1.5885,-1.5885,-1.5885,-1.5885,-1.5885,-1.5885,-1.5885,-1.5885,-1.5885,-1.5885,-1.5885,-1.5885,-1.5885,-1.5885,-1.6115,-1.6404,-1.6694,-1.7129,-1.7479,-1.7479,-1.7455,-1.7443,-1.7479,-1.7455,-1.7274,-1.6779,-1.6706,-1.6513,-1.597,-1.5885,-1.5885,-1.5885,-1.5885,-1.5885,-1.5885,-1.5885,-1.5885,-1.5885,-1.5885,-1.5885,-1.5885,-1.5885,-1.5885,-1.5885,-1.5885,-1.5885,-1.5885,-1.5885,-1.5885,-1.5885,-1.5885,-1.5885,-1.5885,-1.5885,-1.5885,-1.5885,-1.5885,-1.5885,-1.5885,-1.5885,-1.5753,-1.5547,-1.5511,-1.5221,-1.4787,-1.4473,-1.4328,-1.4292,-0.9822,-0.9822,-1.0004,-1.0543,-1.0664,-1.1088,-1.2406,-1.2586,-1.2826,-1.3605,-1.3725,-1.3904,-1.45,-1.5688,-1.6703,-1.742,-1.7479,-1.743,-1.7322,-1.6923,-1.6646,-1.6525,-1.6223,-1.6006,-1.5897,-1.6006,-1.6006,-1.5885,-1.5885,-1.5885,-1.5885,-1.5885,-1.5885,-1.5885,-1.5885,-1.5885,-1.5885,-1.5885,-1.5885,-1.5885,-1.5885,-1.5885,-1.5885,-1.5885,-1.5885,-1.5885,-1.5885,-1.5885,-1.5885,-1.5885,-1.5885,-1.5885,-1.5885,-1.5885,-1.5885,-1.5885,-1.5885,-1.5885,-1.5885,-1.5885,-1.5885,-1.5885,-1.6199,-1.6549,-1.667,-1.7105,-1.7479,-1.7479,-1.7479,-1.7479,-1.7479,-1.7358,-1.7141,-1.6767,-1.6573,-1.6332,-1.5946,-1.5885,-1.5885,-1.5885,-1.5885,-1.5885,-1.5885,-1.5885,-1.5885,-1.5885,-1.5885,-1.5885,-1.5885,-1.5885,-1.5885,-1.5885,-1.5737,-1.5684,-1.5684,-1.547,-1.5416,-1.5416,-1.5416,-1.5565,-1.5885,-1.5885,-1.5885,-1.5885,-1.5885,-1.5885,-1.5885,-1.5728,-1.5608,-1.5475,-1.5173,-1.4823,-1.4473,-1.434,-1.4292,-1.4292]}]]